[[{"header":{"parameterUnit":"m.s-1","parameterCategory":1,"la1":30.6,"la2":28.766,"lo1":-90.7593,"lo2":-88.6598,"dy":0.0162,"dx":0.0183,"nx":116,"ny":114,"refTime":"2024-06-30T00:00:00:Z","depth":0,"parameterNumber":2,"parameterNumberName":"U-component_of_WINDS"},"data":[0.0,0.0,0.0,0.0,0.0,0.0,0.0,0.0,0.0,0.0,0.0,0.0,0.0,0.0,0.0,0.0,0.0,0.0,0.0,0.0,0.0,0.0,0.0,0.0,0.0,0.0,0.0,0.0,0.0,0.0,0.0,0.0,0.0,0.0,0.0,0.0,0.0,0.0,0.0,0.0,0.0,0.0,0.0,0.0,0.0,0.0,0.0,0.0,0.0,0.0,0.0,0.0,0.0,0.0,0.0,0.0,0.0,0.0,0.0,0.0,0.0,0.0,0.0,0.0,0.0,0.0,0.0,0.0,0.0,0.0,0.0,0.0,0.0,0.0,0.0,0.0,0.0,0.0,0.0,0.0,0.0,0.0,0.0,0.0,0.0,0.0,0.0,0.0,0.0,0.0,0.0,0.0,0.0,0.0,0.0,0.0,0.0,0.0,0.0,0.0,0.0,0.0,0.0,0.0,0.0,0.0,0.0,0.0,0.0,0.0,0.0,0.0,0.0,0.0,0.0,0.0,0.0,0.0,0.0,0.0,0.0,0.0,0.0,0.0,0.0,0.0,0.0,0.0,0.0,0.0,0.0,0.0,0.0,0.0,0.0,0.0,0.0,0.0,0.0,0.0,0.0,0.0,0.0,0.0,0.0,0.0,0.0,0.0,0.0,0.0,0.0,0.0,0.0,0.0,0.0,0.0,0.0,0.0,0.0,0.0,0.0,0.0,0.0,0.0,0.0,0.0,0.0,0.0,0.0,0.0,0.0,0.0,0.0,0.0,0.0,0.0,0.0,0.0,0.0,0.0,0.0,0.0,0.0,0.0,0.0,0.0,0.0,0.0,0.0,0.0,0.0,0.0,0.0,0.0,0.0,0.0,0.0,0.0,0.0,0.0,0.0,0.0,0.0,0.0,0.0,0.0,0.0,0.0,0.0,0.0,0.0,0.0,0.0,0.0,0.0,0.0,0.0,0.0,0.0,0.0,0.0,0.0,0.0,0.0,0.0,0.0,0.0,0.0,0.0,0.0,0.0,0.0,0.0,0.0,0.0,0.0,0.0,0.0,0.0,0.0,0.0,0.0,0.0,0.0,0.0,0.0,0.0,0.0,0.0,0.0,0.0,0.0,0.0,0.0,0.0,0.0,0.0,0.0,0.0,0.0,0.0,0.0,0.0,0.0,0.0,0.0,0.0,0.0,0.0,0.0,0.0,0.0,0.0,0.0,0.0,0.0,0.0,0.0,0.0,0.0,0.0,0.0,0.0,0.0,0.0,0.0,0.0,0.0,0.0,0.0,0.0,0.0,0.0,0.0,0.0,0.0,0.0,0.0,0.0,0.0,0.0,0.0,0.0,0.0,0.0,0.0,0.0,0.0,0.0,0.0,0.0,0.0,0.0,0.0,0.0,0.0,0.0,0.0,0.0,0.0,0.0,0.0,0.0,0.0,0.0,0.0,0.0,0.0,0.0,0.0,0.0,0.0,0.0,0.0,0.0,0.0,0.0,0.0,0.0,0.0,0.0,0.0,0.0,0.0,0.0,0.0,0.0,0.0,0.0,0.0,0.0,0.0,0.0,0.0,0.0,0.0,0.0,0.0,0.0,0.0,0.0,0.0,0.0,0.0,0.0,0.0,0.0,0.0,0.0,0.0,0.0,0.0,0.0,0.0,0.0,0.0,0.0,0.0,0.0,0.0,0.0,0.0,0.0,0.0,0.0,0.0,0.0,0.0,0.0,0.0,0.0,0.0,0.0,0.0,0.0,0.0,0.0,0.0,0.0,0.0,0.0,0.0,0.0,0.0,0.0,0.0,0.0,0.0,0.0,0.0,0.0,0.0,0.0,0.0,0.0,0.0,0.0,0.0,0.0,0.0,0.0,0.0,0.0,0.0,0.0,0.0,0.0,0.0,0.0,0.0,0.0,0.0,0.0,0.0,0.0,0.0,0.0,0.0,0.0,0.0,0.0,0.0,0.0,0.0,0.0,0.0,0.0,0.0,0.0,0.0,0.0,0.0,0.0,0.0,0.0,0.0,0.0,0.0,0.0,0.0,0.0,0.0,0.0,0.0,0.0,0.0,0.0,0.0,0.0,0.0,0.0,0.0,0.0,0.0,0.0,0.0,0.0,0.0,0.0,0.0,0.0,0.0,0.0,0.0,0.0,0.0,0.0,0.0,0.0,0.0,0.0,0.0,0.0,0.0,0.0,0.0,0.0,0.0,0.0,0.0,0.0,0.0,0.0,0.0,0.0,0.0,0.0,0.0,0.0,0.0,0.0,0.0,0.0,0.0,0.0,0.0,0.0,0.0,0.0,0.0,0.0,0.0,0.0,0.0,0.0,0.0,0.0,0.0,0.0,0.0,0.0,0.0,0.0,0.0,0.0,0.0,0.0,0.0,0.0,0.0,0.0,0.0,0.0,0.0,0.0,0.0,0.0,0.0,0.0,0.0,0.0,0.0,0.0,0.0,0.0,0.0,0.0,0.0,0.0,0.0,0.0,0.0,0.0,0.0,0.0,0.0,0.0,0.0,0.0,0.0,0.0,0.0,0.0,0.0,0.0,0.0,0.0,0.0,0.0,0.0,0.0,0.0,0.0,0.0,0.0,0.0,0.0,0.0,0.0,0.0,0.0,0.0,0.0,0.0,0.0,0.0,0.0,0.0,0.0,0.0,0.0,0.0,0.0,0.0,0.0,0.0,0.0,0.0,0.0,0.0,0.0,0.0,0.0,0.0,0.0,0.0,0.0,0.0,0.0,0.0,0.0,0.0,0.0,0.0,0.0,0.0,0.0,0.0,0.0,0.0,0.0,0.0,0.0,0.0,0.0,0.0,0.0,0.0,0.0,0.0,0.0,0.0,0.0,0.0,0.0,0.0,0.0,0.0,0.0,0.0,0.0,0.0,0.0,0.0,0.0,0.0,0.0,0.0,0.0,0.0,0.0,0.0,0.0,0.0,0.0,0.0,0.0,0.0,0.0,0.0,0.0,0.0,0.0,0.0,0.0,0.0,0.0,0.0,0.0,0.0,0.0,0.0,0.0,0.0,0.0,0.0,0.0,0.0,0.0,0.0,0.0,0.0,0.0,0.0,0.0,0.0,0.0,0.0,0.0,0.0,0.0,0.0,0.0,0.0,0.0,0.0,0.0,0.0,0.0,0.0,0.0,0.0,0.0,0.0,0.0,0.0,0.0,0.0,0.0,0.0,0.0,0.0,0.0,0.0,0.0,0.0,0.0,0.0,0.0,0.0,0.0,0.0,0.0,0.0,0.0,0.0,0.0,0.0,0.0,0.0,0.0,0.0,0.0,0.0,0.0,0.0,0.0,0.0,0.0,0.0,0.0,0.0,0.0,0.0,0.0,0.0,0.0,0.0,0.0,0.0,0.0,0.0,0.0,0.0,0.0,0.0,0.0,0.0,0.0,0.0,0.0,0.0,0.0,0.0,0.0,0.0,0.0,0.0,0.0,0.0,0.0,0.0,0.0,0.0,0.0,0.0,0.0,0.0,0.0,0.0,0.0,0.0,0.0,0.0,0.0,0.0,0.0,0.0,0.0,0.0,0.0,0.0,0.0,0.0,0.0,0.0,0.0,0.0,0.0,0.0,0.0,0.0,0.0,0.0,0.0,0.0,0.0,0.0,0.0,0.0,0.0,0.0,0.0,0.0,0.0,0.0,0.0,0.0,0.0,0.0,0.0,0.0,0.0,0.0,0.0,0.0,0.0,0.0,0.0,0.0,0.0,0.0,0.0,0.0,0.0,0.0,0.0,0.0,0.0,0.0,0.0,0.0,0.0,0.0,0.0,0.0,0.0,0.0,0.0,0.0,0.0,0.0,0.0,0.0,0.0,0.0,0.0,0.0,0.0,0.0,0.0,0.0,0.0,0.0,0.0,0.0,0.0,0.0,0.0,0.0,0.0,0.0,0.0,0.0,0.0,0.0,0.0,0.0,0.0,0.0,0.0,0.0,0.0,0.0,0.0,0.0,0.0,0.0,0.0,0.0,0.0,0.0,0.0,0.0,0.0,0.0,0.0,0.0,0.0,0.0,0.0,0.0,0.0,0.0,0.0,0.0,0.0,0.0,0.0,0.0,0.0,0.0,0.0,0.0,0.0,0.0,0.0,0.0,0.0,0.0,0.0,0.0,0.0,0.0,0.0,0.0,0.0,0.0,0.0,0.0,0.0,0.0,0.0,0.0,0.0,0.0,0.0,0.0,0.0,0.0,0.0,0.0,0.0,0.0,0.0,0.0,0.0,0.0,0.0,0.0,0.0,0.0,0.0,0.0,0.0,0.0,0.0,0.0,0.0,0.0,0.0,0.0,0.0,0.0,0.0,0.0,0.0,0.0,0.0,0.0,0.0,0.0,0.0,0.0,0.0,0.0,0.0,0.0,0.0,0.0,0.0,0.0,0.0,0.0,0.0,0.0,0.0,0.0,0.0,0.0,0.0,0.0,0.0,0.0,0.0,0.0,0.0,0.0,0.0,0.0,0.0,0.0,0.0,0.0,0.0,0.0,0.0,0.0,0.0,0.0,0.0,0.0,0.0,0.0,0.0,0.0,0.0,0.0,0.0,0.0,0.0,0.0,0.0,0.0,0.0,0.0,0.0,0.0,0.0,0.0,0.0,0.0,0.0,0.0,0.0,0.0,0.0,0.0,0.0,0.0,0.0,0.0,0.0,0.0,0.0,0.0,0.0,0.0,0.0,0.0,0.0,0.0,0.0,0.0,0.0,0.0,0.0,0.0,0.0,0.0,0.0,0.0,0.0,0.0,0.0,0.0,0.0,0.0,0.0,0.0,0.0,0.0,0.0,0.0,0.0,0.0,0.0,0.0,0.0,0.0,0.0,0.0,0.0,0.0,0.0,0.0,0.0,0.0,0.0,0.0,0.0,0.0,0.0,0.0,0.0,0.0,0.0,0.0,0.0,0.0,0.0,0.0,0.0,0.0,0.0,0.0,0.0,0.0,0.0,0.0,0.0,0.0,0.0,0.0,0.0,0.0,0.0,0.0,0.0,0.0,0.0,0.0,0.0,0.0,0.0,0.0,0.0,0.0,0.0,0.0,0.0,0.0,0.0,0.0,0.0,0.0,0.0,0.0,0.0,0.0,0.0,0.0,0.0,0.0,0.0,0.0,0.0,0.0,0.0,0.0,0.0,0.0,0.0,0.0,0.0,0.0,0.0,0.0,0.0,0.0,0.0,0.0,0.0,0.0,0.0,0.0,0.0,0.0,0.0,0.0,0.0,0.0,0.0,0.0,0.0,0.0,0.0,0.0,0.0,0.0,0.0,0.0,0.0,0.0,0.0,0.0,0.0,0.0,0.0,0.0,0.0,0.0,0.0,0.0,0.0,0.0,0.0,0.0,0.0,0.0,0.0,0.0,0.0,0.0,0.0,0.0,0.0,0.0,0.0,0.0,0.0,0.0,0.0,0.0,0.0,0.0,0.0,0.0,0.0,0.0,0.0,0.0,0.0,0.0,0.0,0.0,0.0,0.0,0.0,0.0,0.0,0.0,0.0,0.0,0.0,0.0,0.0,0.0,0.0,0.0,0.0,0.0,0.0,0.0,0.0,0.0,0.0,0.0,0.0,0.0,0.0,0.0,0.0,0.0,0.0,0.0,0.0,0.0,0.0,0.0,0.0,0.0,0.0,0.0,0.0,0.0,0.0,0.0,0.0,0.0,0.0,0.0,0.0,0.0,0.0,0.0,0.0,0.0,0.0,0.0,0.0,0.0,0.0,0.0,0.0,0.0,0.0,0.0,0.0,0.0,0.0,0.0,0.0,0.0,0.0,0.0,0.0,0.0,0.0,0.0,0.0,0.0,0.0,0.0,0.0,0.0,0.0,0.0,0.0,0.0,0.0,0.0,0.0,0.0,0.0,0.0,0.0,0.0,0.0,0.0,0.0,0.0,0.0,0.0,0.0,0.0,0.0,0.0,0.0,0.0,0.0,0.0,0.0,0.0,0.0,0.0,0.0,0.0,0.0,0.0,0.0,0.0,0.0,0.0,0.0,0.0,0.0,0.0,0.0,0.0,0.0,0.0,0.0,0.0,0.0,0.0,0.0,0.0,0.0,0.0,0.0,0.0,0.0,0.0,0.0,0.0,0.0,0.0,0.0,0.0,-2.6135,0.0,0.0,0.0,0.0,0.0,0.0,0.0,0.0,0.0,0.0,0.0,0.0,0.0,0.0,0.0,0.0,0.0,0.0,0.0,0.0,0.0,0.0,0.0,0.0,-1.4529,-1.502,-1.5392,-1.5582,-1.5703,-1.5651,0.0,0.0,0.0,0.0,0.0,-1.4007,-1.4248,-1.4352,-1.4274,-1.4888,-1.571,-1.6667,-1.6637,-1.5784,-1.421,0.0,0.0,0.0,0.0,0.0,0.0,0.0,0.0,0.0,0.0,0.0,0.0,0.0,0.0,0.0,0.0,0.0,0.0,0.0,0.0,0.0,0.0,0.0,0.0,0.0,0.0,0.0,0.0,0.0,0.0,0.0,0.0,0.0,0.0,0.0,0.0,0.0,0.0,0.0,0.0,0.0,0.0,0.0,0.0,0.0,0.0,0.0,0.0,0.0,0.0,0.0,0.0,0.0,0.0,0.0,0.0,0.0,0.0,0.0,0.0,0.0,0.0,0.0,0.0,0.0,0.0,0.0,0.0,0.0,0.0,0.0,-2.7969,0.0,0.0,0.0,0.0,0.0,0.0,0.0,0.0,0.0,0.0,0.0,0.0,0.0,0.0,0.0,0.0,0.0,0.0,0.0,0.0,0.0,-1.4314,-1.4562,-1.5654,-1.6485,-1.6795,-1.7203,-1.7418,-1.7334,-1.7145,0.0,0.0,0.0,-1.526,-1.4679,-1.5086,-1.5371,-1.5527,-1.6802,-1.8059,-1.9241,-1.9917,-1.9124,-1.7148,-1.6668,0.0,0.0,0.0,0.0,0.0,0.0,0.0,0.0,0.0,0.0,0.0,0.0,0.0,0.0,0.0,0.0,0.0,0.0,0.0,0.0,0.0,0.0,0.0,0.0,0.0,0.0,0.0,0.0,0.0,0.0,0.0,0.0,0.0,0.0,0.0,0.0,0.0,0.0,0.0,0.0,0.0,0.0,0.0,0.0,0.0,0.0,0.0,0.0,0.0,0.0,0.0,0.0,0.0,0.0,0.0,0.0,0.0,0.0,0.0,0.0,0.0,0.0,0.0,-3.6309,-3.7036,-3.8261,-3.7635,-3.7388,-3.7168,-3.3322,-3.1325,-3.0701,0.0,0.0,0.0,0.0,0.0,0.0,0.0,0.0,0.0,0.0,0.0,0.0,0.0,0.0,0.0,0.0,0.0,0.0,0.0,0.0,-1.478,-1.6051,-1.6925,-1.7919,-1.9214,-1.927,-1.895,-1.8266,-1.8085,0.0,0.0,-1.6568,-1.6635,-1.6877,-1.6885,-1.741,-1.8458,-1.9718,-2.0681,-2.1321,-2.1999,-2.2403,-2.2473,-2.0202,-1.8493,-1.728,0.0,0.0,0.0,0.0,0.0,0.0,0.0,0.0,0.0,0.0,0.0,0.0,0.0,0.0,0.0,0.0,0.0,0.0,0.0,0.0,0.0,0.0,0.0,0.0,0.0,0.0,0.0,0.0,0.0,0.0,0.0,0.0,0.0,0.0,0.0,0.0,0.0,0.0,0.0,0.0,0.0,-2.1938,-2.3669,0.0,0.0,0.0,0.0,0.0,0.0,0.0,0.0,0.0,0.0,0.0,0.0,0.0,0.0,-3.5008,-3.7178,-3.8362,-3.8548,-3.9208,-3.9606,-3.9809,-3.9698,-3.9673,-3.9639,-3.9005,0.0,-3.3842,-3.3077,0.0,0.0,0.0,0.0,0.0,0.0,0.0,0.0,0.0,0.0,0.0,0.0,0.0,0.0,0.0,0.0,0.0,0.0,0.0,0.0,0.0,-1.8193,-1.9182,-1.984,-1.9833,-1.9647,-1.9323,-1.8792,-1.8259,-1.7782,-1.7578,-1.7511,-1.7581,-1.8593,-1.9811,-2.1257,-2.2108,-2.2801,-2.3334,-2.4014,-2.4462,-2.4672,-2.3535,-2.1874,-1.9896,-1.9238,0.0,0.0,0.0,0.0,0.0,0.0,0.0,0.0,0.0,0.0,0.0,0.0,0.0,0.0,0.0,0.0,0.0,0.0,0.0,0.0,0.0,0.0,0.0,0.0,0.0,0.0,0.0,0.0,0.0,0.0,0.0,0.0,0.0,0.0,0.0,0.0,0.0,0.0,0.0,-2.2286,-2.5183,-2.6379,-2.6862,-2.7097,0.0,0.0,0.0,0.0,0.0,0.0,0.0,0.0,0.0,-3.5537,-3.7229,-3.8531,-3.936,-4.0781,-4.1914,-4.276,-4.2675,-4.2844,-4.3234,-4.2354,-4.1948,-4.1931,-4.1508,-4.0392,-3.8717,-3.6755,-3.4861,-3.303,0.0,0.0,0.0,0.0,0.0,-3.105,0.0,0.0,0.0,0.0,0.0,0.0,0.0,0.0,0.0,0.0,0.0,0.0,-1.8165,-1.9622,-2.0699,-2.1107,-2.0921,-2.0706,0.0,0.0,-1.9151,-1.8849,-1.8592,-1.854,-1.8715,-2.0667,-2.2208,-2.3264,-2.4191,-2.489,-2.5367,-2.6063,-2.6467,-2.6617,-2.6617,-2.5076,-2.2398,-2.156,-1.9866,0.0,0.0,0.0,0.0,0.0,0.0,0.0,0.0,0.0,0.0,0.0,0.0,0.0,0.0,0.0,0.0,0.0,0.0,0.0,0.0,0.0,0.0,0.0,0.0,0.0,0.0,0.0,0.0,0.0,0.0,0.0,0.0,0.0,0.0,0.0,0.0,0.0,0.0,-2.5059,-2.7561,-2.914,-2.9403,-2.9669,0.0,0.0,0.0,0.0,0.0,0.0,-3.5537,-3.6721,-3.8091,-3.9783,-4.0933,-4.2049,-4.3149,-4.391,-4.4857,-4.5974,-4.5415,-4.5449,-4.594,-4.4807,-4.4181,-4.3978,-4.3403,-4.2946,-4.2388,-3.9817,-3.7973,-3.662,-3.5334,-3.437,-3.3732,-3.3732,-3.4083,-3.4658,0.0,0.0,0.0,0.0,0.0,0.0,0.0,0.0,0.0,0.0,0.0,-1.7507,-1.9647,0.0,-2.2736,-2.4152,-2.357,-2.2834,0.0,0.0,-2.0545,-1.977,-1.9548,-1.9993,-2.1189,-2.3419,-2.4418,-2.4038,-2.5918,-2.704,-2.7465,-2.8128,-2.8786,-2.9412,-2.9412,-2.756,-2.4365,-2.3116,-2.1784,-2.0329,0.0,0.0,0.0,0.0,0.0,0.0,0.0,0.0,0.0,0.0,0.0,0.0,0.0,0.0,0.0,0.0,0.0,0.0,0.0,0.0,0.0,0.0,0.0,0.0,0.0,0.0,0.0,0.0,0.0,0.0,0.0,0.0,0.0,0.0,0.0,0.0,0.0,0.0,0.0,-3.2017,-3.2057,0.0,0.0,0.0,0.0,-3.5109,-3.6045,-3.7185,-3.8684,-4.0798,-4.2016,-4.2117,-4.4265,-4.5466,-4.5534,-4.6261,-4.6667,-4.6735,-4.6701,-4.6701,-4.6735,-4.665,-4.6244,-4.5585,-4.5551,-4.4705,-4.3206,-4.1677,-4.0578,-3.9808,-3.9005,-3.8261,-3.7618,-3.7618,-3.7652,-3.7787,0.0,0.0,0.0,-0.9292,-1.029,-1.1103,-1.1103,-1.2804,-1.4377,-1.5105,-1.6908,-1.8787,0.0,-2.2107,-2.341,-2.4406,-2.3801,-2.3262,-2.2992,0.0,-2.0982,-2.0659,-2.0936,-2.2082,-2.4122,-2.5221,-2.6194,-2.7063,-2.8064,-2.8712,-2.9004,-2.926,-2.9447,-2.9606,-2.9606,-2.8921,-2.7694,-2.5967,-2.3976,-2.1874,-2.0737,-1.9226,0.0,0.0,0.0,0.0,0.0,0.0,0.0,0.0,0.0,0.0,0.0,0.0,0.0,0.0,0.0,0.0,0.0,0.0,0.0,0.0,0.0,0.0,0.0,0.0,0.0,0.0,0.0,0.0,0.0,0.0,0.0,0.0,0.0,0.0,0.0,0.0,0.0,-3.5293,-3.5653,0.0,0.0,-3.6924,-3.6924,-3.7736,-3.936,-4.0781,-4.1796,-4.3521,-4.4705,-4.5179,-4.5974,-4.6633,-4.7124,-4.7394,-4.775,-4.8206,-4.7733,-4.7513,-4.7496,-4.7022,-4.665,-4.6413,-4.6413,-4.5838,-4.4857,-4.4316,-4.3081,-4.15,-4.1221,-4.095,-4.073,-4.073,-4.073,-4.0696,-0.8897,-0.8897,0.0,-0.8897,-1.0121,-1.1103,-1.1103,-1.3041,-1.4842,-1.5842,-1.7687,-1.9684,-2.1715,-2.3052,-2.4169,-2.5168,-2.4338,-2.378,-2.378,0.0,-2.1654,-2.1866,-2.2912,-2.4331,-2.6138,-2.7026,-2.8039,-2.9218,-2.9847,-3.0144,-3.0219,-3.0407,-3.0403,-3.0238,-3.0238,-3.0118,-2.9804,-2.8472,-2.6393,-2.3946,-2.3041,-2.15,-1.966,0.0,0.0,0.0,0.0,0.0,0.0,0.0,0.0,0.0,0.0,0.0,0.0,0.0,0.0,0.0,0.0,0.0,0.0,0.0,0.0,0.0,0.0,0.0,0.0,0.0,0.0,0.0,0.0,0.0,0.0,0.0,0.0,0.0,0.0,0.0,-3.5364,-3.8154,-3.869,-3.9244,-4.0392,-4.0476,-4.0696,-4.1221,-4.2625,-4.3775,-4.4519,-4.5754,-4.6684,-4.7158,-4.7411,-4.7784,-4.8291,-4.8291,-4.8528,-4.9001,-4.8511,-4.8291,-4.8257,-4.7767,-4.7411,-4.7175,-4.7175,-4.6752,-4.6058,-4.5805,-4.4807,-4.342,-4.3166,-4.2912,-4.2675,-4.2675,-4.2506,-4.2219,-0.8897,-0.8897,-0.8897,-0.8897,-1.0121,-1.1103,-1.1103,-1.305,-1.5071,-1.6512,-1.8008,-2.0061,-2.3071,-2.4068,-2.5083,-2.6573,-2.5354,-2.4491,-2.4491,-2.3139,-2.2682,-2.346,-2.5396,-2.6678,-2.7196,-2.897,-3.0023,-3.0291,-3.1201,-3.1439,-3.104,-3.1568,-3.1698,-3.1511,-3.1511,-3.1137,-3.0537,-3.0507,-2.9041,-2.6602,-2.5232,-2.3528,-2.1814,0.0,0.0,0.0,0.0,0.0,0.0,0.0,0.0,0.0,0.0,0.0,0.0,0.0,0.0,0.0,0.0,0.0,0.0,0.0,0.0,0.0,0.0,0.0,0.0,0.0,0.0,0.0,0.0,0.0,0.0,0.0,0.0,0.0,-3.3048,-3.4849,-3.7261,-4.0524,-4.1026,-4.1748,-4.3341,-4.3494,-4.4147,-4.5635,-4.5771,-4.6075,-4.6786,-4.7564,-4.7956,-4.7956,-4.8697,-4.9069,-4.9035,-4.9035,-4.9018,-4.9001,-4.9001,-4.9001,-4.9001,-4.9001,-4.8612,-4.7922,-4.7922,-4.753,-4.6769,-4.6058,-4.5771,-4.5669,-4.4919,-4.4113,-4.3426,-4.3426,-4.298,-4.232,-0.8897,-0.8897,-0.8897,-0.8897,-1.0121,-1.1103,-1.1103,-1.3481,-1.5629,-1.658,-1.8454,-2.064,-2.3122,-2.4068,-2.5083,-2.6573,-2.5354,-2.4491,-2.4491,-2.3613,-2.39,-2.571,-2.6792,-2.8129,-2.9819,-3.1196,-3.2004,-3.2241,-3.2816,-3.274,-3.2026,-3.2059,-3.1868,-3.1511,-3.1511,-3.1406,-3.1182,-3.0717,-3.0088,-2.9265,-2.7485,-2.5869,-2.4477,0.0,0.0,0.0,0.0,0.0,0.0,0.0,0.0,0.0,0.0,0.0,0.0,0.0,0.0,0.0,0.0,0.0,0.0,0.0,0.0,0.0,0.0,0.0,0.0,0.0,0.0,0.0,0.0,0.0,0.0,0.0,0.0,-3.4668,-3.5021,-3.7498,-4.0331,-4.3015,-4.3485,-4.4204,-4.572,-4.5872,-4.6041,-4.6464,-4.7005,-4.7365,-4.7597,-4.8798,-4.9492,-4.9492,-5.0219,-5.0355,-4.9796,-4.9796,-4.9526,-4.9001,-4.9001,-4.9001,-4.9001,-4.9001,-4.89,-4.8714,-4.8714,-4.8291,-4.7597,-4.7365,-4.6989,-4.6363,-4.5106,-4.4479,-4.4265,-4.4265,-4.3775,-4.3115,-0.8897,-0.8897,-0.8897,-0.8897,-1.0121,-1.1103,-1.1103,-1.365,-1.5967,-1.7016,-1.8814,-2.0876,-2.3139,-2.378,-2.4508,-2.5692,-2.4711,-2.4169,-2.4474,-2.4677,-2.5355,-2.664,-2.8242,-2.9799,-3.1368,-3.2612,-3.337,-3.3616,-3.374,-3.334,-3.2465,-3.2302,-3.1938,-3.1511,-3.1511,-3.1511,-3.1481,-3.1077,-3.0913,-3.0806,-2.937,-2.8023,-2.6797,-2.6108,-2.4807,-2.3295,-2.3026,-2.2233,-2.1126,-1.9824,0.0,0.0,0.0,0.0,0.0,0.0,0.0,0.0,0.0,0.0,0.0,0.0,0.0,0.0,0.0,0.0,0.0,0.0,0.0,0.0,0.0,0.0,0.0,0.0,-3.6316,-3.8622,-3.9203,-4.0948,-4.2842,-4.4653,-4.5527,-4.6312,-4.7175,-4.7547,-4.7716,-4.7716,-4.8409,-4.8832,-4.8832,-4.9932,-5.0557,-5.0557,-5.0997,-5.0997,-5.0557,-5.0557,-5.0185,-4.9458,-4.9458,-4.9306,-4.9001,-4.9001,-4.9001,0.0,-4.9001,-4.8765,-4.8359,-4.8024,-4.7665,0.0,0.0,0.0,0.0,0.0,-4.4282,-4.391,-0.8897,-0.8897,-0.8931,-0.901,-1.0172,-1.113,-1.1214,-1.3718,-1.6103,-1.749,-1.9022,-2.0842,-2.3038,-2.3342,-2.3712,-2.444,-2.3831,-2.3712,-2.444,-2.5879,-2.681,-2.7063,-2.9692,-3.1537,-3.2341,-3.3561,-3.4306,-3.457,-3.4176,-3.3523,-3.2641,-3.237,-3.2012,-3.1644,-3.1615,-3.1645,-3.172,-3.1645,-3.1615,-3.1555,-3.0896,-2.9894,-2.8742,-2.8079,-2.7001,-2.5749,-2.5143,-2.4455,-2.364,-2.2428,0.0,0.0,0.0,0.0,0.0,0.0,0.0,0.0,0.0,0.0,0.0,0.0,0.0,0.0,0.0,0.0,0.0,0.0,0.0,0.0,0.0,0.0,0.0,0.0,-4.0186,-4.302,-4.4198,-4.4555,-4.499,-4.5843,-4.7094,-4.7922,-4.8007,-4.8629,-4.9035,-4.912,-4.9729,-5.0135,-5.0219,0.0,0.0,0.0,0.0,-5.1437,-5.1303,-5.1303,-5.0963,-5.0219,-5.0135,-4.9746,-4.912,-4.9035,-4.9001,-4.9001,-4.9001,-4.9001,-4.8951,-4.8308,-4.7973,-4.7736,-4.6295,-4.5703,-4.5618,-4.4886,-4.4615,-4.4615,-0.8897,-0.8897,-0.9095,-0.9686,-1.0521,-1.1316,-1.1975,-1.4073,-1.5927,-1.679,-1.8713,-2.064,-2.233,-2.3038,-2.3712,-2.444,-2.3831,-2.3712,0.0,0.0,-2.752,-2.9364,-3.112,-3.2675,-3.4006,-3.4857,-3.5193,-3.4994,-3.457,-3.3942,-3.3071,-3.2574,-3.241,-3.245,-3.2347,-3.2617,-3.308,-3.2557,-3.2303,-3.2243,-3.157,-3.0823,-3.0073,-2.9457,-2.8378,-2.721,-2.7076,-2.6228,-2.5091,-2.4291,-2.3588,-2.2787,-2.138,0.0,0.0,0.0,0.0,0.0,0.0,0.0,0.0,0.0,0.0,0.0,0.0,0.0,0.0,0.0,0.0,0.0,0.0,0.0,0.0,-4.0515,-4.265,-4.4315,-4.5833,-4.6705,-4.725,-4.7432,-4.772,-4.8125,-4.8731,-4.8917,-4.9255,-4.983,-5.0016,-5.0355,-5.0963,-5.1691,0.0,-5.2097,-5.2723,-5.2756,-5.2097,-5.2097,-5.1725,-5.0997,0.0,0.0,-4.9864,-4.9272,-4.9001,-4.9001,-4.9001,-4.9001,-4.8984,-4.8849,-4.8443,-4.7736,-4.6295,-4.5703,-4.5618,-4.4886,-4.4615,-4.4615,-0.8897,-0.8897,-0.9128,-0.9872,-1.0605,-1.1367,-1.2178,-1.387,-1.5443,-1.6563,-1.798,-1.9473,-2.0978,-2.1485,-2.2006,-2.2781,-2.3526,0.0,0.0,-2.6809,-2.8705,-3.0565,-3.2053,-3.3355,-3.4472,-3.5211,-3.5458,-3.5088,-3.4763,-3.4159,-3.3356,-3.322,-3.309,-3.2968,-3.3095,-3.3321,-3.3607,-3.3186,-3.2826,-3.2452,-3.2123,-3.16,-3.0913,-3.0298,-2.9624,-2.8978,-2.8334,-2.7664,-2.6946,-2.5944,-2.5375,-2.4866,-2.3565,-2.2458,-2.138,0.0,0.0,0.0,0.0,0.0,0.0,0.0,0.0,0.0,0.0,0.0,0.0,0.0,0.0,-3.2644,0.0,0.0,-3.9863,-4.2795,-4.4737,-4.6199,-4.7076,-4.7926,-4.8294,-4.7922,-4.824,-4.8612,-4.8968,-4.9323,-4.9695,-5.005,-5.0777,-5.1352,-5.1742,-5.2486,-5.2909,-5.2909,-5.3298,-5.3315,-5.2909,-5.2909,-5.252,-5.1758,-5.1386,-5.1014,-5.0642,-4.9881,-4.9543,-4.9526,-4.9171,-4.9001,-4.9001,-4.9001,-4.8781,-4.8359,-4.7242,-4.6363,-4.5669,-4.528,-4.4936,-4.4615,-0.8897,-0.901,-0.9343,-1.0075,-1.0707,-1.1424,-1.2365,-1.3641,-1.4926,-1.6113,-1.7168,-1.8256,-1.9427,-1.9833,-2.0318,0.0,0.0,0.0,0.0,-2.7723,-2.9721,-3.1326,-3.2696,-3.3812,-3.4692,-3.5295,-3.5464,-3.5175,-3.4875,-3.4374,-3.3684,-3.3907,-3.3858,-3.3587,-3.3968,-3.4182,-3.4197,-3.3742,-3.3216,-3.2677,-3.2392,-3.1974,-3.1436,-3.0776,-3.0432,-3.0193,-2.916,-2.8622,-2.8233,-2.7156,-2.6782,-2.6572,-2.5367,-2.4515,-2.3759,-2.2607,-2.171,0.0,0.0,0.0,0.0,0.0,0.0,0.0,0.0,0.0,-3.2357,-3.2864,-3.5348,-3.7853,-3.9207,-4.1325,-4.3335,-4.4595,-4.6434,-4.7831,-4.8075,-4.8646,-4.8781,-4.8176,-4.8646,-4.9001,-4.9001,-4.9661,-5.0152,-5.0287,-5.1555,-5.2367,-5.252,-5.3145,-5.3501,-5.3501,-5.3501,-5.3501,-5.3501,-5.3501,-5.3179,-5.2536,-5.2367,-5.1995,-5.1403,-5.0642,-5.0236,-5.005,-4.9323,-4.9001,-4.9001,-4.9001,-4.9001,-4.8951,-4.8359,-4.731,-4.6092,-4.5821,-4.5314,-4.4801,-0.8897,-0.9421,-1.0109,-1.0842,-1.1052,-1.1594,-1.3049,-1.3971,-1.4554,-1.4723,-1.6532,-1.7867,-1.802,-1.9208,-2.0318,-2.1123,-2.2629,0.0,-2.5508,-2.7723,-2.9958,-3.209,-3.2966,-3.4066,-3.5447,-3.5549,-3.5549,-3.5446,-3.5065,-3.4707,-3.439,-3.4408,-3.4593,-3.4914,-3.5164,-3.5493,-3.5685,-3.4317,-3.3622,-3.3275,-3.2079,-3.157,-3.1436,-3.0776,-3.0163,-2.9696,-2.9547,-2.8723,-2.769,-2.754,-2.748,-2.736,-2.6602,-2.5914,-2.5241,-2.4485,0.0,-2.2853,-2.4582,-2.6797,-2.8648,-2.8798,-3.0066,-3.1508,0.0,0.0,-3.525,-3.6797,-3.875,-4.0694,-4.2509,-4.3873,-4.53,-4.7023,-4.7612,-4.8108,-4.8798,-4.8951,-4.8968,-4.89,-4.8951,-4.9001,-4.9001,-4.9661,-5.0371,-5.1048,-5.1843,-5.2604,-5.3331,-5.345,-5.3501,-5.3501,-5.3501,-5.3501,-5.3501,-5.3501,-5.345,-5.3365,-5.2638,-5.2266,-5.2147,-5.142,-5.0727,-5.005,-4.9323,-4.9001,-4.9001,-4.9001,-4.9001,-4.9001,-4.8917,-4.8392,-4.7483,-4.6194,-4.5652,-4.5483,-0.8897,-0.9489,-1.0227,-1.0961,-1.1485,-1.2169,-1.3244,-1.3659,-1.4005,-1.4436,-1.567,-1.6678,-1.7101,-1.8488,-1.9672,-2.0433,-2.2276,-2.4036,-2.5507,-2.7723,-2.9805,-3.1562,-3.278,-3.3897,-3.4945,-3.538,-3.5571,-3.5492,-3.5245,-3.4994,-3.4748,-3.489,-3.5209,-3.5629,-3.5654,-3.569,-3.5646,-3.4728,-3.3772,-3.2886,-3.2303,-3.16,-3.0883,-3.0612,-2.9639,-2.8438,-2.8438,-2.8079,0.0,0.0,-2.6437,-2.6378,-2.6108,-2.6093,-2.6048,-2.5367,-2.5407,0.0,-2.7705,-2.9546,0.0,0.0,-3.3493,-3.4893,-3.5887,-3.7321,-3.8721,-3.969,-4.1492,-4.3169,-4.4155,-4.5567,-4.6844,0.0,-4.8213,-4.8663,-4.8968,-4.9001,-4.9001,-4.9001,-4.9001,-4.9001,-4.9001,-5.0067,-5.0879,-5.1168,-5.2334,-5.3145,-5.3484,-5.3501,-5.3501,-5.3501,-5.3501,-5.3501,-5.3501,-5.3501,-5.3501,-5.3501,-5.3162,-5.301,-5.2976,-5.2198,-5.12,-5.0067,-4.9763,-4.9407,-4.9001,-4.9001,-4.9001,-4.9001,-4.9001,-4.8815,-4.8376,-4.6887,-4.6075,-4.5602,-0.9162,-0.9794,-1.0531,-1.1299,-1.2077,-1.2778,-1.3328,-1.3396,-1.3659,-1.4402,-1.5138,-1.596,-1.6908,-1.7963,-1.8978,-1.9917,-2.1718,-2.3579,-2.5474,-2.7334,-2.9213,-3.1106,-3.2222,-3.3322,-3.4472,-3.503,-3.5374,-3.552,-3.5406,-3.5245,-3.5058,-3.5383,-3.5636,-3.5856,-3.5871,-3.564,-3.5198,-3.4577,-3.3608,-3.2467,-3.2288,-3.1511,-3.0462,-3.0118,-2.8981,-2.76,-2.76,-2.724,0.0,0.0,-2.5307,-2.5307,-2.5307,-2.5794,-2.6258,-2.6021,-2.7263,-2.9026,-3.0285,0.0,0.0,-3.4693,-3.6152,-3.7546,-3.8592,-3.9991,-4.1227,-4.1824,-4.3373,-4.4705,-4.5053,-4.6361,0.0,-4.7855,-4.8359,-4.8781,-4.8968,-4.9001,-4.9001,-4.9001,-4.9001,-4.9001,-4.9001,-5.0152,-5.0997,-5.1168,-5.2435,-5.3264,-5.3501,-5.3501,-5.3501,-5.3501,-5.3501,-5.3501,-5.3501,-5.3501,-5.3501,-5.3501,-5.3501,-5.3501,-5.3467,-5.2672,-5.1606,-5.0388,-5.0185,-4.9678,-4.9001,-4.9001,-4.9001,-4.9001,-4.9001,-4.9001,-4.8849,-4.7581,-4.6633,-4.5906,-0.9821,-1.0555,-1.1316,-1.2128,-1.288,-1.3379,-1.3396,-1.3396,-1.3659,-1.4402,-1.5138,-1.6153,-1.7614,-1.78,-1.8425,-1.9866,-2.0771,-2.251,-2.5406,-2.6336,-2.8095,-3.1072,-3.1241,-3.2273,-3.4438,-3.4506,-3.4878,-3.56,-3.552,-3.5492,-3.5486,-3.5892,-3.5885,-3.5526,-3.5867,-3.5475,-3.4558,-3.3637,-3.2955,-3.2452,-3.1795,-3.1107,-3.0372,-2.9131,-2.8229,-2.76,-2.76,0.0,0.0,0.0,-2.4634,-2.4634,-2.4634,-2.5083,0.0,-2.6537,-2.8819,0.0,0.0,0.0,-3.643,-3.6676,-3.7982,-3.9487,-4.0499,-4.1253,-4.2062,-4.3131,-4.4158,-4.5003,-4.5333,-4.6014,-4.6844,-4.777,-4.7906,-4.8189,-4.89,-4.9001,-4.9001,-4.9001,-4.9001,-4.9001,0.0,-4.9678,-5.0422,-5.1134,-5.1911,-5.2689,-5.3467,-5.3501,-5.3501,-5.3501,-5.3501,-5.3501,-5.3501,-5.3501,-5.3501,-5.3501,-5.3501,-5.3501,-5.3467,-5.2672,-5.1894,-5.115,-5.0405,-4.9678,-4.9001,-4.9001,-4.9001,-4.9001,-4.9001,-4.9001,-4.8917,-4.8156,-4.7411,-4.665,-0.9855,-1.0582,-1.135,-1.2162,-1.2914,-1.3396,-1.3396,-1.3396,-1.3659,-1.4402,-1.5561,0.0,0.0,0.0,0.0,0.0,-2.0463,-2.1833,-2.331,-2.5473,-2.7148,-2.8163,-2.9668,-3.1055,-3.2273,-3.2801,-3.3389,-3.4129,-3.4124,-3.4103,-3.4119,-3.4163,-3.4239,-3.4362,-3.4062,-3.3507,-3.2707,-3.2112,-3.1377,-3.0552,-3.0328,-2.9564,-2.8543,-2.8109,-2.6701,-2.4964,0.0,0.0,0.0,0.0,-2.2966,-2.3325,-2.3325,0.0,0.0,-2.9189,0.0,-3.2831,0.0,0.0,-3.7687,-3.9263,-4.0225,-4.1094,-4.2098,-4.2659,-4.2983,-4.2945,-4.3768,-4.4397,-4.4029,-4.5041,-4.6237,-4.7056,-4.7597,-4.8173,-4.89,-4.9001,-4.9001,-4.9001,-4.9001,0.0,0.0,0.0,0.0,-5.115,-5.1894,-5.2655,-5.3467,-5.3501,-5.3501,-5.3501,-5.3501,-5.3501,-5.3501,-5.3501,-5.3501,-5.3501,-5.3501,-5.3501,-5.3501,-5.323,-5.2418,-5.12,-5.0947,-5.0135,-4.9001,-4.9001,-4.9001,-4.9001,-4.9001,-4.9001,-4.8968,-4.8731,-4.7851,-4.6684,-1.0244,-1.1011,-1.1773,-1.2558,-1.3091,0.0,0.0,0.0,0.0,0.0,0.0,0.0,0.0,0.0,0.0,0.0,0.0,-2.0923,-2.2212,-2.4069,-2.5473,-2.6268,-2.796,-2.9364,-3.0398,-3.1142,-3.1867,-3.2611,-3.2611,-3.2611,-3.2611,-3.2529,-3.255,-3.2669,-3.2184,-3.1526,-3.0767,-3.0459,-2.979,-2.8955,-2.8955,-2.8255,-2.7195,-2.6692,-2.53,0.0,0.0,0.0,0.0,0.0,0.0,0.0,0.0,0.0,0.0,0.0,0.0,-3.4521,0.0,-3.84,-3.9445,-4.0979,-4.1788,-4.2419,-4.3136,-4.3367,-4.326,-4.2623,-4.2853,-4.3063,-4.2564,-4.3574,-4.4908,-4.6194,-4.7039,-4.7953,-4.9221,-4.939,-4.9492,-4.9763,-4.9796,-4.9796,0.0,0.0,0.0,-5.1151,-5.1894,-5.2655,-5.3467,-5.3501,-5.3501,-5.3501,-5.3501,-5.3501,-5.3501,-5.3501,-5.3501,-5.3501,-5.3501,-5.3501,-5.3501,-5.3501,-5.2672,-5.1185,-5.1185,-5.0371,-4.9001,-4.9001,-4.9001,-4.9001,-4.9001,-4.9001,-4.9001,-4.9001,-4.8071,-4.6718,-1.0961,-1.1756,-1.2534,0.0,0.0,0.0,0.0,0.0,0.0,0.0,0.0,0.0,0.0,0.0,0.0,0.0,0.0,0.0,-2.1975,-2.2229,0.0,-2.5339,-2.6167,-2.73,-2.879,-2.9516,-3.0226,-3.097,-3.097,-3.097,-3.097,-3.097,-3.0796,-3.0475,-3.0245,-2.9653,-2.8847,-2.8631,-2.8196,-2.7665,-2.7619,-2.7139,-2.6282,-2.5001,0.0,0.0,0.0,0.0,0.0,0.0,0.0,0.0,0.0,0.0,0.0,0.0,0.0,-3.6414,-3.7975,-4.0011,-4.1687,-4.1855,-4.2663,-4.3413,-4.3532,-4.333,-4.2896,-4.2139,-4.1471,-4.1035,0.0,0.0,-4.2878,-4.5162,-4.621,-4.7513,-4.9729,-5.0067,-5.0371,0.0,0.0,0.0,0.0,0.0,0.0,-5.1268,0.0,-5.2655,-5.3467,-5.3501,-5.3501,-5.3501,-5.3501,-5.3501,-5.3501,-5.3501,-5.3501,-5.3501,-5.3501,-5.3501,-5.3501,-5.3501,-5.2672,-5.1185,-5.1185,-5.0371,-4.9001,-4.9001,-4.9001,-4.9001,-4.9001,-4.9001,-4.9001,-4.9001,-4.8088,-4.6836,0.0,0.0,0.0,0.0,0.0,0.0,0.0,0.0,0.0,0.0,0.0,0.0,0.0,0.0,0.0,0.0,0.0,0.0,-1.9722,-2.135,0.0,0.0,0.0,-2.5506,-2.6454,-2.6657,-2.7114,0.0,0.0,-2.7841,-2.7841,-2.7841,-2.7699,-2.7441,-2.7824,-2.7566,-2.6841,-2.6682,-2.6293,-2.5735,0.0,-2.4539,-2.3739,0.0,0.0,0.0,0.0,0.0,0.0,0.0,0.0,0.0,0.0,0.0,-3.2838,0.0,0.0,-3.8608,-4.0828,-4.1956,-4.2634,-4.3181,-4.3252,-4.3277,-4.3305,-4.2465,-4.1507,-4.0746,-3.9606,-3.8751,-3.8751,0.0,0.0,-4.2794,-4.4739,0.0,-4.8968,-4.9746,0.0,0.0,0.0,-5.1185,-5.1185,-5.1708,0.0,0.0,-5.2198,-5.2655,-5.3467,-5.3501,-5.3501,-5.3501,-5.3501,-5.3501,-5.3501,-5.3501,-5.3501,-5.3501,-5.3501,-5.3501,-5.3501,-5.3501,-5.2672,-5.1185,-5.1185,-5.0371,-4.9001,-4.9001,-4.9001,-4.9001,-4.9001,-4.9001,-4.9001,-4.9001,-4.8426,-4.7547,0.0,0.0,0.0,0.0,0.0,0.0,0.0,0.0,0.0,0.0,0.0,0.0,0.0,0.0,0.0,0.0,0.0,0.0,0.0,-2.0403,0.0,-2.1803,-2.3238,-2.422,-2.4628,-2.4949,-2.532,0.0,0.0,0.0,0.0,-2.5743,-2.5646,-2.548,-2.5727,-2.5502,-2.4942,-2.4757,0.0,0.0,0.0,0.0,0.0,0.0,0.0,0.0,0.0,0.0,0.0,0.0,0.0,-2.9045,-3.1911,-3.3797,-3.5364,-3.7679,0.0,-4.0503,-4.2259,-4.3039,-4.3447,-4.3835,-4.3556,-4.3121,-4.2785,-4.1437,-3.9935,-3.8877,-3.7472,0.0,-3.6417,0.0,0.0,0.0,0.0,0.0,-4.912,-5.0118,-5.0997,0.0,-5.2215,0.0,-5.2215,-5.2587,-5.2841,0.0,-5.2841,-5.3027,-5.3484,-5.3501,-5.3501,-5.3501,-5.3501,-5.3501,-5.3501,-5.3501,-5.3501,-5.3501,-5.3501,-5.3501,-5.3501,-5.3501,-5.2672,-5.1185,0.0,-5.0371,-4.9001,-4.9001,-4.9001,-4.9001,-4.9001,-4.9001,-4.9001,-4.9001,-4.8545,-4.777,0.0,0.0,0.0,0.0,0.0,0.0,0.0,0.0,0.0,0.0,0.0,0.0,0.0,0.0,0.0,0.0,0.0,0.0,0.0,0.0,-2.0352,-2.1156,-2.2527,-2.3241,-2.3241,-2.3881,0.0,0.0,0.0,0.0,0.0,0.0,0.0,0.0,0.0,0.0,0.0,0.0,0.0,0.0,0.0,0.0,0.0,0.0,0.0,0.0,0.0,0.0,0.0,0.0,-2.9658,-3.0977,-3.4195,-3.6098,-3.7426,-3.9176,-4.0727,-4.2089,-4.2981,-4.3697,-4.4138,-4.4037,-4.3468,-4.2711,-4.188,-3.9995,-3.8007,-3.6643,0.0,-3.3964,-3.4167,-3.591,-3.8075,-4.0392,0.0,-4.6278,-4.9238,-5.0473,-5.164,-5.3162,-5.3433,-5.3501,-5.3501,-5.3501,-5.3501,-5.3501,-5.3501,-5.3501,-5.3501,-5.3501,-5.3501,-5.3501,-5.3501,-5.3501,-5.3501,-5.3501,-5.3501,-5.3501,-5.3501,-5.3501,-5.3501,-5.3399,-5.257,-5.1185,0.0,0.0,-4.9001,-4.9001,-4.9001,-4.9001,-4.9001,-4.9001,-4.9001,-4.9001,-4.8612,-4.7953,0.0,0.0,0.0,0.0,0.0,0.0,0.0,0.0,0.0,0.0,0.0,0.0,0.0,0.0,0.0,0.0,0.0,0.0,0.0,0.0,0.0,-2.1156,-2.2023,-2.2496,0.0,0.0,0.0,0.0,0.0,0.0,0.0,0.0,0.0,0.0,0.0,0.0,0.0,0.0,0.0,0.0,0.0,0.0,0.0,0.0,0.0,0.0,0.0,0.0,0.0,0.0,-3.1542,-3.3524,-3.5701,-3.7949,-3.9995,-4.1251,-4.2225,-4.3121,-4.408,-4.4429,-4.4361,-4.3692,-4.251,-4.1186,-3.9842,-3.7324,0.0,0.0,0.0,-3.1241,-3.2462,-3.3491,0.0,-3.8007,0.0,0.0,0.0,0.0,-5.0828,0.0,0.0,0.0,0.0,0.0,0.0,0.0,0.0,0.0,-5.3501,-5.3501,-5.3501,-5.3501,-5.3501,-5.3501,-5.3501,-5.3501,-5.3501,-5.3501,-5.3501,-5.3501,-5.3484,-5.2807,-5.2046,-5.1183,0.0,0.0,-4.9001,-4.9001,-4.9001,-4.9001,-4.9001,-4.9001,-4.9001,-4.9001,-4.8934,-4.8714,0.0,0.0,0.0,0.0,0.0,0.0,0.0,0.0,-1.7518,0.0,0.0,0.0,0.0,0.0,0.0,0.0,0.0,0.0,0.0,0.0,0.0,0.0,0.0,0.0,0.0,0.0,0.0,0.0,0.0,0.0,0.0,0.0,0.0,0.0,0.0,0.0,0.0,0.0,0.0,0.0,0.0,0.0,0.0,0.0,0.0,0.0,0.0,0.0,0.0,0.0,-3.059,-3.3135,-3.6537,-3.8705,-4.0324,-4.1796,-4.2719,-4.3489,-4.4367,-4.4615,-4.4429,-4.3606,-4.2303,-4.0713,-3.8853,0.0,0.0,0.0,0.0,-2.9736,-3.0448,0.0,0.0,0.0,0.0,0.0,0.0,0.0,0.0,0.0,0.0,0.0,0.0,0.0,0.0,0.0,0.0,0.0,-5.3501,-5.3501,-5.3501,-5.3501,-5.3501,-5.3501,-5.3501,-5.3501,-5.3501,-5.3501,-5.3501,-5.3501,-5.3467,-5.2672,-5.1911,-5.1166,-5.0422,0.0,-4.9001,-4.9001,-4.9001,-4.9001,-4.9001,-4.9001,-4.9001,-4.9001,-4.9001,-4.89,0.0,0.0,0.0,0.0,0.0,0.0,0.0,-1.6999,-1.8267,-1.8941,-1.9672,-1.9868,-1.9193,-1.8394,-1.7861,0.0,0.0,0.0,0.0,0.0,0.0,0.0,0.0,0.0,0.0,0.0,0.0,0.0,0.0,0.0,0.0,0.0,0.0,0.0,0.0,0.0,0.0,0.0,0.0,0.0,0.0,0.0,0.0,0.0,0.0,0.0,0.0,0.0,0.0,0.0,-2.8943,-3.1522,-3.5904,-3.8213,-3.9596,-4.1338,-4.2472,-4.3352,-4.413,-4.4479,-4.4378,-4.3403,-4.2066,-4.0341,-3.7956,-3.5081,0.0,0.0,0.0,-2.8553,-2.8722,0.0,0.0,0.0,0.0,0.0,0.0,0.0,0.0,0.0,0.0,0.0,0.0,0.0,0.0,0.0,0.0,0.0,-5.3501,-5.3501,-5.3501,-5.3501,-5.3501,-5.3501,-5.3501,-5.3501,-5.3501,-5.3501,-5.3501,-5.3416,-5.3213,-5.2418,-5.1674,-5.093,-5.0185,0.0,0.0,-4.9001,-4.9001,-4.9001,-4.9001,-4.9001,-4.9001,-4.9001,-4.9001,-4.8917,0.0,0.0,0.0,0.0,0.0,0.0,0.0,-1.7422,-1.9031,-1.9625,-2.0408,-2.0775,-2.0449,-1.9342,-1.8361,0.0,0.0,0.0,0.0,0.0,0.0,0.0,0.0,0.0,0.0,0.0,0.0,0.0,0.0,0.0,0.0,0.0,0.0,0.0,0.0,0.0,0.0,0.0,0.0,0.0,0.0,0.0,0.0,0.0,0.0,0.0,0.0,0.0,0.0,0.0,0.0,-2.9267,-3.2622,-3.5597,-3.8209,-3.9834,0.0,0.0,-4.3318,-4.4045,-4.4259,-4.276,-4.1271,-3.9411,-3.6462,0.0,0.0,0.0,-2.7994,-2.7114,-2.779,-2.921,0.0,0.0,0.0,0.0,0.0,0.0,0.0,0.0,0.0,0.0,0.0,0.0,0.0,0.0,0.0,0.0,0.0,-5.3501,-5.3501,-5.3501,-5.3501,-5.3501,-5.3501,-5.3501,-5.3501,-5.3501,-5.3501,-5.3129,-5.2384,-5.1657,-5.0913,-5.0152,0.0,0.0,0.0,-4.9001,-4.9001,-4.9001,-4.9001,-4.9001,-4.9001,-4.9001,-4.9001,-4.8984,0.0,0.0,0.0,0.0,0.0,0.0,0.0,-1.7101,-1.8626,-1.9727,-2.0492,-2.0705,-2.0119,-1.9525,-1.8921,0.0,0.0,0.0,0.0,0.0,0.0,0.0,0.0,0.0,0.0,0.0,0.0,0.0,0.0,0.0,0.0,0.0,0.0,0.0,0.0,0.0,0.0,0.0,0.0,0.0,0.0,0.0,0.0,0.0,0.0,0.0,0.0,0.0,0.0,0.0,0.0,0.0,-2.9732,-3.1426,0.0,0.0,-3.9512,-4.0663,-4.2303,-4.2963,-4.3075,-4.2439,-4.0874,-3.8751,-3.6174,0.0,-3.0768,-2.9297,-2.7774,-2.6793,-2.708,-2.7993,-2.921,0.0,-3.3457,-3.6451,0.0,0.0,0.0,0.0,0.0,0.0,0.0,0.0,0.0,0.0,0.0,0.0,0.0,-5.3501,-5.3501,-5.3501,-5.3501,-5.3501,-5.3501,-5.3501,-5.3501,-5.3501,-5.301,-5.2604,-5.2266,-5.1082,-5.0371,-5.005,0.0,0.0,0.0,-4.9001,-4.9001,-4.9001,-4.9001,-4.9001,-4.9001,-4.9001,-4.9001,-4.9001,0.0,0.0,0.0,0.0,0.0,0.0,-1.5494,-1.6847,-1.8233,-1.9425,-2.018,-2.0381,-1.9741,-1.9359,-1.8933,-1.844,0.0,0.0,0.0,0.0,0.0,0.0,0.0,0.0,0.0,0.0,0.0,0.0,0.0,0.0,0.0,0.0,0.0,0.0,0.0,0.0,0.0,0.0,0.0,0.0,0.0,0.0,0.0,0.0,0.0,0.0,0.0,0.0,0.0,0.0,0.0,0.0,0.0,0.0,0.0,0.0,-3.7246,-3.843,-4.0443,-4.1305,-4.1593,-4.1373,-3.9817,-3.7804,0.0,0.0,-3.0514,-2.9264,-2.7774,-2.6691,-2.6691,-2.7503,-2.8518,-2.96,-3.2256,-3.5148,-3.7956,0.0,0.0,0.0,0.0,0.0,0.0,0.0,0.0,0.0,0.0,0.0,0.0,-5.3501,-5.3501,-5.3501,-5.3501,-5.3501,-5.3501,-5.3501,-5.3382,-5.3145,-5.257,-5.2063,-5.1606,-5.0557,-4.9965,-4.9746,0.0,0.0,0.0,-4.9001,-4.9001,-4.9001,-4.9001,-4.9001,-4.9001,-4.9001,-4.9001,-4.9001,0.0,0.0,0.0,0.0,0.0,0.0,0.0,-1.6847,-1.803,-1.873,-1.9446,-1.9826,-1.9628,-1.8835,-1.8261,-1.8116,0.0,0.0,0.0,0.0,0.0,0.0,0.0,0.0,0.0,0.0,0.0,0.0,0.0,0.0,0.0,0.0,0.0,0.0,0.0,0.0,0.0,0.0,0.0,0.0,0.0,0.0,0.0,0.0,0.0,0.0,0.0,0.0,0.0,0.0,0.0,0.0,0.0,-2.6133,-2.7604,0.0,-3.4484,-3.5971,-3.751,-3.9005,-3.996,-3.9208,-3.7929,-3.6423,0.0,-3.2239,-2.9905,-2.9162,-2.7774,-2.6691,-2.6691,-2.796,-2.8993,-2.901,-3.1478,-3.4201,-3.6508,0.0,0.0,0.0,0.0,0.0,0.0,0.0,0.0,0.0,0.0,0.0,0.0,-5.3501,-5.3501,-5.3501,-5.3501,-5.3501,-5.3501,-5.3501,-5.3112,-5.2317,-5.23,-5.1539,-5.0101,-5.0101,-4.9695,0.0,0.0,0.0,0.0,-4.9001,-4.9001,-4.9001,-4.9001,-4.9001,-4.9001,-4.9001,-4.9001,-4.9001,0.0,0.0,0.0,0.0,0.0,0.0,0.0,-1.568,-1.6735,-1.7963,-1.8677,-1.906,-1.8988,-1.8522,-1.8179,-1.8036,0.0,0.0,0.0,0.0,0.0,0.0,0.0,0.0,0.0,0.0,0.0,0.0,0.0,0.0,0.0,0.0,0.0,0.0,0.0,0.0,0.0,0.0,0.0,0.0,0.0,0.0,0.0,0.0,0.0,0.0,0.0,0.0,0.0,0.0,0.0,0.0,0.0,0.0,0.0,-2.7368,-3.0565,-3.366,-3.5165,-3.6282,-3.711,-3.7422,-3.6355,-3.4849,-3.3343,-3.1495,-2.9717,-2.845,-2.7385,-2.6691,-2.6691,-2.752,-2.8366,-2.8908,-3.1058,0.0,0.0,0.0,0.0,0.0,0.0,0.0,0.0,0.0,0.0,0.0,0.0,0.0,0.0,-5.3501,-5.3501,-5.3501,-5.3501,-5.3501,-5.3501,-5.2959,-5.2553,-5.2283,-5.1285,-5.0541,-5.0067,-4.9576,0.0,0.0,0.0,0.0,0.0,-4.9001,-4.9001,-4.9001,-4.9001,-4.9001,-4.9001,-4.9001,-4.9001,-4.9001,0.0,0.0,0.0,0.0,0.0,0.0,0.0,-1.4892,-1.5704,-1.7169,-1.7647,-1.7955,-1.8153,-1.79,-1.7743,-1.7818,0.0,0.0,0.0,0.0,0.0,0.0,0.0,0.0,0.0,0.0,0.0,0.0,0.0,0.0,0.0,0.0,0.0,0.0,0.0,0.0,0.0,0.0,0.0,0.0,0.0,0.0,-2.1433,0.0,0.0,0.0,0.0,0.0,0.0,0.0,0.0,0.0,0.0,0.0,0.0,0.0,-2.7148,-3.0161,-3.1955,-3.3169,-3.4066,-3.4556,-3.3744,-3.2594,-3.1664,-3.0311,-2.8956,-2.801,-2.7198,-2.6691,-2.6691,-2.7554,-2.8518,-2.9279,-3.1515,0.0,0.0,0.0,0.0,0.0,0.0,0.0,0.0,0.0,0.0,0.0,0.0,0.0,0.0,0.0,-5.3061,-5.3061,-5.3061,-5.3061,-5.3061,-5.2283,-5.1758,-5.1454,-5.0524,-4.9949,-4.9661,-4.9204,0.0,0.0,0.0,0.0,0.0,-4.9001,-4.9001,-4.9001,-4.9001,-4.9001,-4.9001,-4.9001,-4.9001,-4.9001,0.0,0.0,0.0,0.0,0.0,0.0,0.0,0.0,0.0,0.0,-1.649,-1.6697,-1.7226,-1.7035,-1.7051,0.0,0.0,0.0,0.0,0.0,0.0,0.0,0.0,0.0,0.0,0.0,0.0,0.0,-2.3429,-2.3834,-2.456,0.0,0.0,0.0,0.0,0.0,0.0,0.0,0.0,0.0,0.0,-2.1433,0.0,0.0,0.0,0.0,0.0,0.0,0.0,0.0,0.0,0.0,0.0,0.0,0.0,0.0,0.0,0.0,0.0,-2.9786,-3.097,-3.1021,-3.0531,-3.0023,-2.9956,-2.8821,0.0,-2.7739,-2.7232,-2.6776,-2.6776,-2.8096,-2.9382,-3.0074,0.0,0.0,0.0,0.0,0.0,0.0,0.0,0.0,0.0,0.0,0.0,0.0,0.0,0.0,0.0,0.0,-5.2232,-5.2232,-5.2164,-5.2164,-5.2232,-5.1505,-5.0777,-5.0084,-5.0033,-4.9661,-4.9001,-4.9001,0.0,0.0,0.0,0.0,0.0,-4.9001,-4.9001,-4.9001,-4.9001,-4.9001,-4.9001,-4.9001,-4.9001,-4.9001,0.0,0.0,0.0,0.0,0.0,0.0,0.0,0.0,0.0,0.0,-1.6104,-1.6556,-1.7093,-1.6863,-1.7072,0.0,0.0,0.0,0.0,0.0,0.0,0.0,0.0,0.0,0.0,0.0,0.0,-2.3319,-2.3783,-2.4391,-2.5112,-2.5226,0.0,0.0,0.0,0.0,0.0,0.0,0.0,0.0,-2.1663,-2.1706,0.0,0.0,0.0,0.0,-2.2254,-2.2282,0.0,0.0,0.0,0.0,0.0,0.0,0.0,0.0,-2.3207,-2.4154,-2.5269,0.0,-2.8737,-2.9347,-2.9399,-2.9093,0.0,-2.806,-2.7638,-2.708,-2.7283,-2.7536,-2.7536,-2.9262,-3.0734,0.0,0.0,0.0,0.0,0.0,0.0,0.0,0.0,0.0,0.0,0.0,0.0,0.0,0.0,0.0,0.0,0.0,-5.1471,-5.1471,-5.0913,-5.0896,-5.1471,-5.0727,-5.027,-5.0084,-4.9526,-4.9171,-4.9001,-4.9001,0.0,0.0,0.0,0.0,-4.9001,-4.9001,-4.9001,-4.9001,-4.9001,-4.9001,-4.9001,-4.9001,-4.9001,-4.9001,0.0,0.0,0.0,0.0,0.0,0.0,0.0,0.0,0.0,0.0,0.0,0.0,0.0,0.0,0.0,0.0,0.0,0.0,0.0,0.0,0.0,0.0,0.0,0.0,0.0,0.0,0.0,0.0,0.0,-2.4797,0.0,0.0,0.0,0.0,0.0,0.0,0.0,0.0,0.0,0.0,-2.1797,0.0,0.0,0.0,0.0,0.0,-2.2268,-2.2296,0.0,-2.2296,-2.2296,-2.2296,0.0,0.0,0.0,0.0,-2.2581,-2.3122,-2.4203,-2.5625,-2.7046,-2.818,-2.8214,-2.7909,-2.7824,-2.7536,-2.7182,-2.6776,0.0,-2.7908,-2.8281,-3.0192,0.0,0.0,0.0,0.0,0.0,0.0,0.0,0.0,0.0,0.0,0.0,0.0,0.0,0.0,0.0,0.0,0.0,0.0,-5.071,-5.071,-4.9982,-4.9949,-5.0693,-4.9965,-4.9593,-4.9593,-4.9187,-4.9001,-4.9001,-4.9001,0.0,0.0,0.0,0.0,-4.9001,-4.9001,-4.9001,-4.9001,-4.9001,-4.9001,-4.9001,-4.9001,-4.9001,-4.9001,0.0,0.0,0.0,0.0,0.0,0.0,0.0,0.0,0.0,0.0,0.0,0.0,0.0,0.0,0.0,0.0,0.0,0.0,0.0,0.0,0.0,0.0,0.0,0.0,0.0,0.0,0.0,0.0,0.0,0.0,0.0,0.0,0.0,0.0,0.0,0.0,0.0,0.0,0.0,0.0,0.0,0.0,0.0,0.0,0.0,0.0,0.0,0.0,0.0,-2.2296,-2.2296,-2.2296,-2.2296,0.0,0.0,0.0,0.0,0.0,-2.4101,-2.5033,-2.5964,-2.757,-2.752,-2.7232,-2.7976,0.0,0.0,0.0,0.0,0.0,-2.9213,-3.1244,0.0,0.0,0.0,0.0,0.0,0.0,0.0,0.0,0.0,0.0,0.0,0.0,0.0,0.0,0.0,0.0,0.0,0.0,0.0,-4.9915,-4.9323,-4.9306,-4.9915,-4.9306,-4.9001,-4.9001,-4.9001,-4.9001,-4.9001,-4.9001,-4.9001,0.0,0.0,0.0,-4.9001,-4.9001,-4.9001,-4.9001,-4.9001,-4.9001,-4.9001,-4.9001,-4.9001,-4.9001,0.0,0.0,0.0,0.0,0.0,0.0,0.0,0.0,0.0,0.0,0.0,0.0,0.0,0.0,0.0,0.0,0.0,0.0,0.0,0.0,0.0,0.0,0.0,0.0,0.0,0.0,0.0,0.0,0.0,0.0,-2.5669,-2.5875,-2.5472,0.0,0.0,0.0,0.0,0.0,0.0,0.0,0.0,0.0,0.0,0.0,0.0,0.0,0.0,0.0,0.0,-2.2296,-2.2296,-2.2296,-2.2296,0.0,0.0,0.0,0.0,0.0,-2.4101,-2.5033,-2.6116,-2.8264,-2.8739,-2.884,-2.9583,-2.9178,0.0,0.0,0.0,0.0,0.0,0.0,0.0,0.0,0.0,0.0,0.0,0.0,0.0,0.0,0.0,0.0,0.0,0.0,0.0,0.0,0.0,0.0,0.0,0.0,0.0,-4.9171,-4.9069,-4.9052,-4.9171,-4.9069,-4.9001,-4.9001,-4.9001,-4.9001,-4.9001,-4.9001,-4.9001,0.0,0.0,-4.9001,-4.9001,-4.9001,-4.9001,-4.9001,-4.9001,-4.9001,-4.9001,-4.9001,-4.9001,-4.9001,0.0,0.0,0.0,0.0,0.0,0.0,0.0,0.0,0.0,0.0,0.0,0.0,0.0,0.0,0.0,0.0,0.0,0.0,0.0,0.0,0.0,0.0,0.0,0.0,0.0,0.0,0.0,0.0,0.0,-2.4499,-2.5563,-2.5571,-2.5004,-2.3934,0.0,0.0,0.0,0.0,0.0,0.0,0.0,0.0,0.0,0.0,0.0,0.0,0.0,0.0,0.0,0.0,-2.2296,-2.2296,-2.2296,0.0,0.0,0.0,0.0,0.0,-2.4101,-2.5337,-2.6742,-2.9025,-2.9583,-2.9888,-3.1021,-3.1041,-3.0787,0.0,0.0,0.0,0.0,0.0,0.0,0.0,0.0,0.0,0.0,0.0,0.0,0.0,0.0,0.0,0.0,0.0,0.0,0.0,0.0,0.0,0.0,0.0,0.0,0.0,-4.9001,-4.9001,-4.9001,-4.9001,-4.9001,-4.9001,-4.9001,-4.9001,-4.9001,-4.9001,-4.9001,-4.9001,0.0,-4.9001,-4.9001,-4.9001,-4.9001,-4.9001,-4.9001,-4.9001,-4.9001,-4.9001,-4.9001,-4.8951,0.0,0.0,0.0,0.0,0.0,0.0,0.0,0.0,0.0,0.0,0.0,0.0,0.0,0.0,0.0,0.0,0.0,0.0,0.0,0.0,0.0,0.0,0.0,0.0,0.0,0.0,0.0,-2.3337,-2.3619,-2.4267,-2.5196,-2.4867,-2.4239,0.0,0.0,0.0,0.0,0.0,0.0,-2.1928,0.0,0.0,0.0,0.0,0.0,0.0,0.0,0.0,0.0,0.0,0.0,0.0,0.0,0.0,0.0,-2.2296,-2.2296,-2.2617,-2.4101,-2.5591,-2.7249,-2.9533,-3.0362,-3.1004,-3.2479,-3.2953,-3.3139,0.0,0.0,0.0,0.0,0.0,0.0,0.0,0.0,0.0,0.0,0.0,0.0,0.0,0.0,0.0,0.0,0.0,0.0,0.0,0.0,0.0,0.0,0.0,0.0,0.0,-4.9001,-4.9001,-4.9001,-4.9001,-4.9001,-4.9001,-4.9001,-4.9001,-4.9001,-4.9001,-4.9001,-4.9001,-4.9001,-4.9001,-4.9001,-4.9001,-4.9001,-4.9001,-4.9001,-4.9001,-4.8984,-4.8815,-4.8748,-4.8646,0.0,0.0,0.0,0.0,0.0,0.0,0.0,0.0,0.0,0.0,0.0,0.0,0.0,0.0,0.0,0.0,0.0,0.0,0.0,0.0,0.0,0.0,0.0,0.0,0.0,-2.1675,-2.2341,-2.3117,-2.3701,-2.3902,-2.3741,-2.3208,-2.2772,-2.236,0.0,0.0,0.0,0.0,0.0,-2.1928,-2.2109,0.0,0.0,0.0,0.0,0.0,0.0,0.0,0.0,0.0,0.0,0.0,0.0,0.0,-2.2296,-2.2296,-2.2296,-2.2617,-2.4101,-2.5591,-2.7249,-2.9533,-3.1123,-3.253,-3.402,-3.4878,0.0,-3.6338,0.0,0.0,0.0,0.0,0.0,0.0,0.0,0.0,0.0,0.0,0.0,0.0,0.0,0.0,0.0,0.0,0.0,0.0,0.0,0.0,0.0,0.0,0.0,0.0,0.0,-4.9001,-4.9001,-4.9001,-4.9001,-4.9001,-4.9001,-4.9001,-4.9001,-4.9001,-4.9001,-4.9001,-4.9001,-4.9001,-4.9001,-4.9001,-4.9001,-4.9001,-4.9001,-4.9001,-4.8917,-4.824,-4.7973,-4.7855,0.0,0.0,0.0,0.0,0.0,0.0,0.0,0.0,0.0,0.0,0.0,0.0,0.0,0.0,0.0,0.0,0.0,0.0,0.0,0.0,0.0,0.0,0.0,-2.0059,-2.0828,-2.1487,-2.2345,-2.342,-2.3311,-2.3285,-2.3326,-2.2329,0.0,0.0,0.0,0.0,0.0,0.0,0.0,-2.2094,-2.2211,-2.2254,0.0,0.0,0.0,0.0,0.0,0.0,0.0,0.0,-2.2296,-2.2296,-2.2296,-2.2296,-2.2296,-2.2296,-2.2296,-2.2617,-2.4101,-2.5591,-2.7249,-2.9533,-3.1901,-3.3914,0.0,-3.6502,-3.7939,-3.87,-3.98,0.0,0.0,0.0,0.0,0.0,0.0,0.0,0.0,0.0,0.0,0.0,0.0,0.0,0.0,0.0,0.0,0.0,0.0,0.0,0.0,0.0,0.0,0.0,0.0,-4.9001,-4.9001,-4.9001,-4.8781,-4.8342,-4.8781,-4.9001,-4.9001,-4.9001,-4.9001,-4.8984,-4.8528,-4.8342,-4.8291,-4.7817,-4.7631,-4.7631,-4.7631,-4.7631,-4.7597,-4.7327,-4.7225,-4.7107,0.0,0.0,0.0,0.0,0.0,0.0,0.0,0.0,0.0,0.0,0.0,0.0,0.0,0.0,0.0,0.0,0.0,0.0,0.0,0.0,0.0,0.0,0.0,-1.9794,-2.0673,-2.1156,-2.1919,-2.2996,-2.265,-2.2496,-2.2496,0.0,0.0,0.0,0.0,0.0,0.0,0.0,0.0,0.0,-2.2268,-2.2296,0.0,0.0,0.0,0.0,0.0,0.0,0.0,0.0,-2.2296,-2.2296,-2.2296,-2.2296,-2.2296,-2.2296,-2.2448,-2.297,-2.4441,-2.6116,-2.796,-3.0226,-3.2848,0.0,-3.64,-3.8244,-3.9901,-4.0646,-4.1779,0.0,0.0,0.0,0.0,0.0,0.0,0.0,0.0,0.0,0.0,0.0,0.0,0.0,0.0,0.0,0.0,0.0,0.0,0.0,0.0,0.0,0.0,0.0,0.0,0.0,-4.8308,-4.8308,-4.8054,-4.7564,-4.8071,-4.8308,-4.8308,-4.8308,-4.8308,-4.8274,-4.7784,-4.7564,-4.7513,-4.7005,-4.6786,-4.6786,-4.6786,-4.6786,-4.6752,-4.6532,-4.6447,-4.6346,0.0,0.0,0.0,0.0,0.0,0.0,0.0,0.0,0.0,0.0,0.0,0.0,0.0,0.0,0.0,0.0,0.0,0.0,0.0,0.0,0.0,0.0,0.0,-1.9313,-2.0658,-2.0688,-2.1017,-2.1695,-2.1763,-2.1514,-2.0992,-2.1054,0.0,0.0,0.0,0.0,0.0,0.0,0.0,0.0,-2.2268,-2.2296,-2.2296,0.0,0.0,0.0,0.0,0.0,0.0,0.0,-2.2296,-2.2296,-2.2296,-2.2296,-2.2296,-2.2296,-2.2835,-2.3714,-2.522,-2.7266,-2.9534,-3.1752,0.0,0.0,-3.8481,-4.0155,-4.1407,-4.2168,0.0,0.0,0.0,0.0,0.0,0.0,0.0,0.0,0.0,0.0,0.0,0.0,0.0,0.0,0.0,0.0,0.0,0.0,0.0,0.0,0.0,0.0,0.0,0.0,0.0,0.0,-4.6786,-4.6786,-4.6786,-4.6786,-4.6786,-4.6786,-4.6786,-4.6786,-4.6786,-4.6786,-4.6786,-4.6786,-4.6786,-4.6769,-4.6769,-4.6769,-4.6769,-4.6769,-4.6684,-4.5957,-4.5703,-4.5602,0.0,0.0,0.0,0.0,0.0,0.0,0.0,0.0,0.0,0.0,0.0,0.0,0.0,0.0,0.0,0.0,0.0,0.0,0.0,0.0,0.0,0.0,0.0,0.0,0.0,0.0,-2.0557,-2.1695,-2.125,-2.0963,0.0,0.0,0.0,-2.0594,0.0,0.0,0.0,0.0,0.0,0.0,0.0,-2.2296,-2.2296,0.0,0.0,0.0,0.0,0.0,0.0,0.0,0.0,0.0,-2.2296,-2.2296,-2.2398,-2.2919,-2.3224,-2.3833,-2.5828,-2.7655,0.0,-3.2391,0.0,0.0,0.0,-4.051,0.0,0.0,0.0,0.0,0.0,0.0,0.0,0.0,0.0,0.0,0.0,0.0,0.0,0.0,0.0,0.0,0.0,0.0,0.0,0.0,0.0,0.0,0.0,0.0,0.0,0.0,0.0,0.0,-4.6786,-4.6786,-4.6532,-4.6024,-4.6024,-4.6295,-4.6786,-4.6786,-4.6786,-4.6752,-4.6244,-4.6024,-4.5991,-4.5449,-4.5258,-4.5258,-4.5258,-4.5258,-4.5241,-4.5021,-4.4925,-4.4874,0.0,0.0,0.0,0.0,0.0,0.0,0.0,0.0,0.0,0.0,0.0,-1.4295,0.0,0.0,0.0,0.0,0.0,0.0,0.0,0.0,0.0,0.0,0.0,0.0,0.0,-1.9708,-2.0112,0.0,0.0,0.0,0.0,0.0,0.0,-2.0578,0.0,-2.123,0.0,0.0,0.0,0.0,-2.2149,-2.2178,-2.2192,0.0,0.0,0.0,0.0,0.0,0.0,0.0,0.0,0.0,-2.2296,-2.2296,-2.2431,-2.3173,-2.3816,-2.4763,-2.7013,-2.8942,0.0,-3.3998,-3.5994,-3.7872,-4.0417,0.0,0.0,0.0,0.0,0.0,0.0,0.0,0.0,0.0,0.0,0.0,0.0,0.0,0.0,0.0,0.0,0.0,0.0,0.0,0.0,0.0,0.0,0.0,0.0,0.0,0.0,0.0,0.0,0.0,-4.5935,-4.5935,-4.5686,-4.5263,-4.5263,-4.5483,-4.5935,-4.5935,-4.5935,-4.5889,-4.5449,-4.5263,-4.5229,-4.4801,-4.4615,-4.4615,-4.4615,-4.4615,-4.4615,-4.4615,-4.4615,-4.4615,0.0,0.0,-1.2333,-1.2215,0.0,0.0,0.0,0.0,0.0,0.0,-1.3893,-1.4369,0.0,0.0,0.0,-1.5799,0.0,0.0,0.0,0.0,0.0,0.0,0.0,0.0,0.0,0.0,0.0,0.0,0.0,0.0,0.0,0.0,-2.025,-2.0676,0.0,-2.1007,0.0,0.0,0.0,0.0,-2.1869,-2.1898,-2.1929,-2.2135,0.0,0.0,0.0,0.0,0.0,0.0,0.0,0.0,-2.2296,-2.2296,-2.2448,-2.3257,-2.4509,-2.6116,-2.8468,-3.0719,0.0,-3.6068,-3.7499,0.0,-4.1593,0.0,0.0,0.0,0.0,0.0,0.0,0.0,0.0,0.0,0.0,0.0,0.0,0.0,0.0,0.0,0.0,0.0,0.0,0.0,0.0,0.0,0.0,0.0,0.0,0.0,0.0,0.0,0.0,0.0,-4.4615,-4.4615,-4.4615,0.0,-4.4615,-4.4615,-4.4615,-4.4615,-4.4615,-4.4615,-4.4615,-4.4615,-4.4615,-4.4615,-4.4615,-4.4615,-4.4615,-4.4615,-4.4615,-4.4615,-4.4615,-4.4615,0.0,0.0,-1.2164,-1.2133,0.0,0.0,0.0,0.0,-1.2381,-1.3053,-1.3579,-1.4188,-1.4931,-1.547,0.0,-1.5799,-1.5799,0.0,0.0,0.0,0.0,0.0,0.0,0.0,0.0,0.0,0.0,0.0,0.0,0.0,0.0,0.0,0.0,-2.0494,0.0,-2.099,0.0,0.0,0.0,-2.0893,-2.1125,-2.1225,-2.1292,-2.195,-2.22,0.0,0.0,0.0,0.0,0.0,0.0,0.0,-2.2296,-2.2296,-2.2564,-2.3881,-2.4898,-2.6218,-2.9093,-3.1478,0.0,0.0,-3.865,-4.0663,-4.1288,0.0,0.0,0.0,0.0,0.0,0.0,0.0,0.0,0.0,0.0,0.0,0.0,0.0,0.0,0.0,0.0,0.0,0.0,0.0,0.0,0.0,0.0,0.0,0.0,0.0,0.0,0.0,0.0,-4.4615,-4.4615,-4.4615,-4.4615,0.0,-4.4615,-4.4615,-4.4615,-4.4615,-4.4615,-4.4615,-4.4615,-4.4615,-4.4615,-4.4615,-4.4615,-4.4615,-4.4615,-4.4615,-4.4615,-4.4615,-4.4615,-4.4615,0.0,0.0,0.0,0.0,0.0,0.0,0.0,0.0,-1.2682,-1.3268,-1.392,-1.4568,-1.5214,-1.5589,0.0,0.0,-1.5799,-1.5799,0.0,0.0,0.0,0.0,0.0,0.0,0.0,0.0,0.0,0.0,0.0,0.0,0.0,0.0,0.0,-2.0357,0.0,-2.0556,0.0,0.0,0.0,-1.9996,-2.0207,-2.029,-2.038,-2.0874,-2.1049,-2.1062,-2.1157,0.0,0.0,0.0,0.0,0.0,0.0,0.0,-2.2516,-2.3644,-2.4746,-2.6184,-2.8839,0.0,0.0,-3.6569,0.0,-4.1204,0.0,0.0,0.0,0.0,0.0,0.0,0.0,0.0,0.0,0.0,0.0,0.0,0.0,0.0,0.0,0.0,0.0,0.0,0.0,0.0,0.0,0.0,0.0,0.0,0.0,0.0,0.0,0.0,-4.4615,-4.4615,-4.4615,-4.4615,-4.4615,-4.4615,-4.4615,-4.4615,-4.4615,-4.4615,-4.4615,-4.4615,-4.4615,-4.4615,-4.4615,-4.4615,-4.4615,-4.4615,-4.4615,-4.4615,-4.4615,-4.4615,-4.4615,-4.4615,0.0,0.0,0.0,0.0,0.0,0.0,0.0,0.0,0.0,-1.372,-1.4378,-1.505,-1.5724,-1.5799,-1.5799,0.0,0.0,0.0,-1.5799,0.0,0.0,0.0,0.0,0.0,0.0,0.0,0.0,0.0,0.0,0.0,0.0,0.0,0.0,-2.0591,0.0,0.0,0.0,0.0,-1.9554,-1.9121,-1.9279,-1.9373,-1.9459,-1.9733,-1.9818,-1.9831,-1.9963,-2.0433,-2.1021,-2.1156,0.0,0.0,0.0,0.0,-2.226,-2.2987,-2.4171,-2.5727,-2.7994,0.0,-3.3529,-3.7026,-3.9377,0.0,0.0,0.0,0.0,0.0,0.0,0.0,0.0,0.0,0.0,0.0,0.0,0.0,0.0,0.0,0.0,0.0,0.0,0.0,0.0,0.0,0.0,0.0,0.0,0.0,0.0,0.0,-4.4615,-4.4615,-4.4615,-4.4615,-4.4615,-4.4615,-4.4615,-4.4615,-4.4615,-4.4615,-4.4615,-4.4615,-4.4615,-4.4615,-4.4615,-4.4615,-4.4615,-4.4615,-4.4615,-4.4615,-4.4615,-4.4615,-4.4615,-4.4615,-4.4615,-4.4615,0.0,0.0,0.0,0.0,0.0,0.0,0.0,0.0,0.0,0.0,-1.4378,-1.505,-1.5724,-1.5799,-1.5799,-1.5799,-1.5799,-1.5799,0.0,0.0,0.0,0.0,0.0,0.0,0.0,0.0,0.0,0.0,0.0,0.0,0.0,0.0,0.0,-2.1748,0.0,0.0,0.0,0.0,-1.8882,-1.8372,-1.8612,-1.8726,-1.8818,-1.9584,-1.9887,-1.9899,-1.9976,-2.0082,-2.0268,-2.097,-2.1258,0.0,0.0,0.0,0.0,0.0,-2.3038,-2.4171,0.0,0.0,-3.4793,0.0,-3.8599,0.0,0.0,0.0,0.0,0.0,0.0,0.0,0.0,0.0,0.0,0.0,0.0,0.0,0.0,0.0,0.0,0.0,0.0,0.0,0.0,0.0,0.0,0.0,0.0,0.0,0.0,-4.4615,-4.4615,-4.4615,-4.4615,-4.4615,-4.4615,-4.4615,-4.4615,-4.4615,-4.4615,-4.4615,-4.4615,-4.4615,-4.4615,-4.4615,-4.4615,-4.4615,-4.4615,-4.4615,-4.4615,-4.4615,-4.4615,-4.4615,-4.4615,-4.4615,-4.4615,-4.4615,0.0,0.0,0.0,0.0,0.0,0.0,0.0,0.0,0.0,0.0,0.0,-1.505,-1.5724,-1.5799,-1.5649,-1.5275,-1.523,0.0,0.0,0.0,0.0,0.0,0.0,0.0,0.0,0.0,0.0,0.0,0.0,0.0,0.0,-2.2268,-2.2454,0.0,0.0,0.0,0.0,0.0,-1.9664,-1.8895,-1.9134,-1.9514,-1.9993,-2.0407,-2.0568,-2.0581,-2.0643,0.0,-2.072,-2.1072,-2.1478,-2.1803,0.0,0.0,0.0,0.0,0.0,-2.2832,-2.5862,-2.96,-3.3186,0.0,-3.7195,0.0,0.0,0.0,0.0,0.0,0.0,0.0,0.0,0.0,0.0,0.0,0.0,0.0,0.0,0.0,0.0,0.0,0.0,0.0,0.0,0.0,0.0,0.0,0.0,0.0,-4.3927,-4.3927,-4.3927,-4.3927,-4.3521,-4.3504,-4.3927,-4.3927,-4.4147,-4.4615,-4.4615,-4.4615,-4.4615,-4.4615,-4.4615,-4.4615,-4.4615,-4.4615,-4.4615,-4.4615,-4.4615,-4.4615,-4.4615,-4.4615,-4.4615,-4.4615,-4.4615,-4.4615,0.0,0.0,0.0,0.0,0.0,0.0,0.0,0.0,0.0,0.0,0.0,-1.505,-1.5724,0.0,0.0,0.0,-1.4901,0.0,0.0,0.0,0.0,0.0,0.0,0.0,0.0,0.0,0.0,0.0,0.0,0.0,-2.1685,-2.3305,-2.3534,0.0,-2.3332,0.0,0.0,0.0,0.0,-1.9413,-1.9843,-2.0521,-2.1317,-2.1588,-2.1683,-2.1683,-2.1738,0.0,0.0,0.0,0.0,0.0,0.0,0.0,0.0,0.0,0.0,0.0,0.0,0.0,-3.0869,-3.3102,0.0,0.0,0.0,0.0,0.0,0.0,0.0,0.0,0.0,0.0,0.0,0.0,0.0,0.0,0.0,0.0,0.0,0.0,0.0,0.0,0.0,0.0,0.0,0.0,0.0,0.0,-4.3132,-4.3132,-4.3132,-4.3132,-4.2591,-4.2557,-4.3132,-4.3132,-4.342,-4.4022,-4.4022,-4.4022,-4.4022,-4.4022,-4.4124,-4.4327,-4.4513,-4.4615,-4.4615,-4.4615,-4.4615,-4.4615,-4.4615,-4.4615,-4.4615,-4.4615,-4.4615,-4.4615,0.0,0.0,0.0,0.0,0.0,0.0,0.0,0.0,0.0,0.0,0.0,-1.505,-1.5724,-1.5799,-1.5784,-1.5754,-1.517,0.0,0.0,0.0,0.0,0.0,0.0,0.0,0.0,0.0,0.0,0.0,0.0,0.0,-2.0997,-2.3168,-2.4183,-2.4189,-2.4425,-2.3772,-2.2428,0.0,0.0,-1.9393,-2.0492,-2.1376,-2.214,-2.296,-2.3274,-2.3274,0.0,0.0,0.0,0.0,0.0,0.0,0.0,0.0,0.0,0.0,0.0,0.0,0.0,-2.5744,0.0,0.0,0.0,0.0,0.0,0.0,0.0,0.0,0.0,0.0,0.0,0.0,0.0,0.0,0.0,0.0,0.0,0.0,0.0,0.0,0.0,0.0,0.0,0.0,0.0,0.0,0.0,0.0,-4.2354,-4.2354,-4.2354,-4.2354,-4.2303,-4.2303,-4.2354,-4.2354,-4.2371,-4.2405,-4.2405,-4.2405,-4.2405,-4.2405,-4.2794,-4.3494,-4.4265,-4.4615,-4.4615,-4.4615,-4.4615,-4.4615,-4.4615,-4.4615,-4.4615,-4.4615,-4.4615,-4.4615,0.0,0.0,0.0,0.0,0.0,0.0,0.0,0.0,0.0,0.0,0.0,0.0,0.0,-1.5799,-1.5634,-1.52,-1.4946,0.0,0.0,0.0,0.0,0.0,0.0,0.0,0.0,0.0,0.0,0.0,0.0,-1.939,-2.0523,-2.3159,-2.4457,-2.458,-2.5123,-2.4661,-2.3421,-2.3279,0.0,-2.2212,-2.3269,-2.4493,0.0,-2.6657,-2.7283,-2.7638,0.0,0.0,0.0,0.0,0.0,0.0,0.0,-2.0653,-1.9765,-1.8544,-1.891,0.0,0.0,0.0,0.0,0.0,0.0,0.0,0.0,0.0,0.0,0.0,0.0,0.0,0.0,0.0,0.0,0.0,0.0,0.0,0.0,0.0,0.0,0.0,0.0,0.0,0.0,0.0,0.0,0.0,0.0,0.0,-4.1593,-4.1593,-4.1593,-4.1593,-4.1119,-4.1128,-4.1593,-4.2049,-4.2286,-4.2286,-4.2286,-4.2286,-4.2286,-4.2286,-4.2439,-4.2709,-4.2997,-4.3701,-4.4615,-4.4615,-4.4615,-4.4615,-4.4615,-4.4615,-4.4615,-4.4615,-4.4615,-4.4615,0.0,0.0,0.0,-1.3628,0.0,-1.2999,-1.2538,-1.2849,-1.3388,0.0,0.0,0.0,0.0,0.0,-1.5529,-1.4871,-1.5005,0.0,0.0,0.0,0.0,0.0,0.0,0.0,0.0,0.0,0.0,0.0,0.0,0.0,0.0,-2.2105,-2.3455,-2.3824,-2.4653,-2.4467,0.0,0.0,0.0,-2.3424,0.0,0.0,-2.8153,0.0,-3.0211,0.0,0.0,0.0,0.0,0.0,0.0,0.0,0.0,-2.0873,-1.9439,-1.8471,-1.8691,0.0,-2.0852,0.0,0.0,0.0,0.0,0.0,0.0,0.0,0.0,0.0,0.0,0.0,0.0,0.0,0.0,0.0,0.0,0.0,0.0,0.0,0.0,0.0,0.0,0.0,0.0,0.0,0.0,0.0,0.0,0.0,-4.0832,-4.0832,-4.0832,-4.0832,-4.0367,-4.035,-4.0832,-4.1305,-4.1568,-4.1568,-4.1568,-4.1568,-4.1568,-4.1568,-4.1694,-4.1931,-4.1931,-4.2777,-4.4198,-4.4198,-4.435,-4.4615,-4.4615,-4.4615,-4.4615,-4.4615,-4.4615,-4.4615,-1.5799,-1.5275,-1.4826,-1.4811,-1.4259,-1.3812,-1.3797,-1.3812,-1.4066,-1.4751,0.0,0.0,0.0,0.0,0.0,0.0,0.0,0.0,0.0,0.0,0.0,0.0,0.0,0.0,0.0,0.0,0.0,0.0,0.0,0.0,0.0,0.0,-2.1177,-2.1963,-2.2921,-2.319,-2.2992,0.0,-2.3828,-2.2834,0.0,-2.7492,-2.899,0.0,0.0,0.0,-3.2429,-3.1478,0.0,0.0,0.0,0.0,0.0,-2.1363,-1.8961,-1.8939,-1.9439,0.0,0.0,0.0,0.0,0.0,0.0,0.0,0.0,0.0,0.0,0.0,0.0,0.0,0.0,0.0,0.0,0.0,0.0,0.0,0.0,0.0,0.0,0.0,0.0,0.0,0.0,0.0,0.0,0.0,0.0,-4.0096,-4.0096,-4.0096,-4.0096,-4.0096,-4.0096,-4.0096,-4.0096,-4.0096,-4.0096,-4.0096,-4.0096,-4.0096,-4.0096,-4.0096,-4.0476,-4.117,-4.117,-4.1999,-4.3325,-4.3341,-4.3842,-4.4564,-4.4564,-4.4581,-4.4615,-4.4615,-4.4615,-4.4615,-1.5799,-1.5649,-1.5365,-1.4886,-1.4648,-1.4363,-1.3872,-1.4214,-1.4766,0.0,0.0,0.0,-1.7101,-1.716,0.0,0.0,0.0,0.0,0.0,0.0,0.0,0.0,0.0,0.0,0.0,0.0,0.0,0.0,0.0,0.0,0.0,0.0,0.0,0.0,-2.145,-2.1789,-2.1416,-2.3648,0.0,0.0,-2.774,-2.9733,0.0,0.0,0.0,0.0,0.0,-3.4595,0.0,0.0,-3.048,-2.7791,0.0,0.0,0.0,-1.9862,-1.9833,0.0,-2.0987,0.0,0.0,0.0,0.0,0.0,0.0,0.0,0.0,0.0,0.0,0.0,0.0,0.0,0.0,0.0,0.0,0.0,0.0,0.0,0.0,0.0,0.0,0.0,0.0,0.0,0.0,0.0,-4.0096,-4.0096,-4.0096,-4.0096,-4.0096,-4.0096,-4.0096,-4.0096,-4.0096,-4.0096,-4.0096,-4.0096,-4.0096,-4.0096,-4.0096,-4.0096,-4.0214,-4.0417,-4.0417,-4.0933,-4.1863,-4.2388,-4.3047,-4.3741,-4.3741,-4.4079,-4.4615,-4.4615,-4.4615,-4.4615,-1.5799,-1.5799,-1.5769,-1.562,-1.5591,-1.5561,-1.5441,-1.5755,-1.6159,0.0,0.0,0.0,-1.7652,0.0,0.0,0.0,0.0,0.0,0.0,0.0,0.0,-1.5799,-1.5799,-1.5799,0.0,0.0,0.0,0.0,0.0,0.0,0.0,0.0,0.0,0.0,-2.0247,-2.0775,-2.0868,-2.3044,0.0,0.0,-2.8636,0.0,0.0,-3.4851,-3.6299,0.0,0.0,0.0,-3.5808,-3.5064,-3.2649,0.0,0.0,0.0,-2.2426,-2.1651,-2.1417,0.0,0.0,0.0,0.0,0.0,0.0,0.0,0.0,0.0,0.0,0.0,0.0,0.0,0.0,0.0,0.0,0.0,0.0,0.0,0.0,0.0,0.0,0.0,0.0,0.0,0.0,0.0,0.0,0.0,-4.0096,-4.0096,-4.0096,-4.0096,-4.0096,-4.0096,-4.0096,-4.0096,-4.0096,-4.0096,-4.0096,-4.0096,-4.0096,-4.0096,-4.0096,-4.0096,-4.0096,-4.0096,-4.0096,-4.035,-4.0764,-4.1187,-4.1999,-4.298,-4.3274,-4.369,-4.413,-4.4496,-4.4615,-4.4615,0.0,-1.5858,-1.6069,-1.6622,-1.6756,-1.701,-1.7608,-1.7713,-1.7728,0.0,-1.7953,0.0,0.0,0.0,0.0,0.0,0.0,0.0,0.0,0.0,-1.5799,-1.5799,-1.5799,-1.5799,-1.5799,0.0,0.0,0.0,0.0,0.0,0.0,0.0,0.0,0.0,-1.9229,-2.004,-2.0893,-2.2465,0.0,-2.5648,-2.8774,-3.1392,0.0,0.0,-3.6772,0.0,-3.8125,-3.8091,-3.7889,-3.6958,-3.4409,0.0,0.0,-2.62,-2.4846,-2.4103,-2.3765,0.0,-2.4541,-2.4677,0.0,0.0,0.0,0.0,0.0,-2.7198,0.0,0.0,0.0,0.0,0.0,0.0,0.0,0.0,0.0,0.0,0.0,0.0,0.0,0.0,0.0,0.0,0.0,0.0,-4.0096,-4.0096,-4.0096,-4.0096,-4.0096,-4.0096,-4.0096,-4.0096,-4.0096,-4.0096,-4.0096,-4.0096,-4.0096,-4.0096,-4.0096,-4.0096,-4.0096,-4.0096,-4.0096,-4.0096,-4.0096,-4.0096,-4.0096,-4.0096,-4.0925,-4.2236,-4.2912,-4.3189,-4.3386,-4.4164,-4.4479,-4.4496,-1.5799,-1.6189,-1.6562,-1.6681,-1.716,-1.7548,-1.7684,-1.7713,-1.7893,-1.8431,0.0,0.0,0.0,0.0,0.0,0.0,0.0,0.0,0.0,0.0,-1.5799,-1.5799,-1.5799,-1.5799,-1.5799,-1.5799,0.0,0.0,0.0,0.0,0.0,0.0,0.0,0.0,-1.8522,-1.9374,-2.0312,-2.2439,0.0,-2.6657,-2.9606,0.0,-3.4501,-3.6654,-3.8007,-3.8853,-3.9469,-3.9276,-3.8481,0.0,-3.4962,-3.344,0.0,0.0,0.0,0.0,0.0,-2.5338,-2.6065,-2.5828,-2.5389,0.0,0.0,0.0,0.0,-2.6843,0.0,0.0,0.0,0.0,0.0,0.0,0.0,0.0,0.0,0.0,0.0,0.0,0.0,0.0,0.0,0.0,0.0,0.0,-4.0096,-4.0096,-4.0096,-4.0096,-4.0096,-4.0096,-4.0096,-4.0096,-4.0096,-4.0096,-4.0096,-4.0096,-4.0096,-4.0096,-4.0096,-4.0096,-4.0096,-4.0096,-4.0096,-4.0096,-4.0096,-4.0096,-4.0096,-4.0096,-4.0637,-4.1441,-4.1576,-4.1999,-4.2608,-4.3369,-4.3639,-4.3741,-1.5799,-1.6278,-1.6816,-1.7145,-1.7758,-1.8311,-1.8657,-1.8702,-1.8942,-1.9615,0.0,0.0,0.0,0.0,0.0,0.0,0.0,0.0,0.0,0.0,-1.6352,-1.6352,-1.6007,-1.5799,-1.5799,-1.5799,0.0,0.0,0.0,0.0,0.0,0.0,0.0,0.0,-1.8545,-1.9437,-2.0711,0.0,-2.4678,-2.6962,-2.9918,0.0,-3.4742,-3.7043,-3.8362,-3.9089,-3.9842,-3.9639,-3.8768,-3.7263,-3.5994,0.0,0.0,-3.1529,-3.0499,0.0,-2.8703,-2.801,0.0,0.0,-2.7385,-2.7757,0.0,0.0,0.0,0.0,0.0,0.0,0.0,0.0,0.0,0.0,0.0,0.0,0.0,0.0,0.0,0.0,0.0,0.0,0.0,0.0,0.0,0.0,-3.8988,-3.8988,-3.9326,-3.9554,-3.9554,-3.991,-4.0096,-4.0096,-4.0096,-4.0096,-4.0096,-4.0096,-4.0096,-4.0096,-4.0096,-4.0096,-4.0096,-4.0096,-4.0096,-4.0096,-4.0096,-4.0096,-4.0096,-4.0096,-4.0333,-4.0679,-4.1068,-4.1424,-4.183,-4.2591,-4.2861,-4.2912,-1.5799,-1.6383,-1.707,-1.7609,-1.8356,-1.9076,-1.9618,-1.9813,-2.0213,0.0,0.0,0.0,0.0,0.0,0.0,0.0,0.0,0.0,0.0,0.0,0.0,-1.7091,-1.6368,-1.5964,-1.5964,-1.5858,0.0,0.0,0.0,0.0,0.0,0.0,0.0,0.0,0.0,0.0,0.0,0.0,0.0,-2.7165,0.0,-3.2527,-3.4742,-3.7043,-3.8362,-3.9089,-3.9842,-3.9639,-3.8886,-3.8159,0.0,-3.5583,-3.4247,-3.3322,0.0,0.0,0.0,0.0,0.0,0.0,0.0,0.0,0.0,-2.7435,0.0,0.0,0.0,-2.6573,0.0,0.0,0.0,0.0,0.0,0.0,0.0,0.0,0.0,0.0,0.0,0.0,0.0,0.0,0.0,0.0,-3.7702,-3.7702,-3.8362,-3.8853,-3.8988,-3.9706,-4.0096,-4.0096,-4.0096,-4.0096,-4.0096,-4.0096,-4.0096,-4.0096,-4.0096,-4.0096,-4.0096,-4.0096,-4.0096,-4.0096,-4.0096,-4.0096,-4.0096,-4.0096,-4.0096,-4.0163,-4.0747,-4.0984,-4.1085,-4.1813,-4.2083,-4.21,-1.5799,-1.6757,-1.7608,-1.7699,-1.8747,-1.9618,-1.9693,-2.0198,-2.1231,0.0,0.0,0.0,0.0,0.0,0.0,0.0,0.0,0.0,-2.1121,0.0,0.0,-1.7815,-1.7028,-1.6607,-1.6607,-1.6069,-1.587,0.0,0.0,0.0,0.0,0.0,-1.841,-1.878,-2.0884,0.0,0.0,0.0,-2.6252,0.0,-3.026,-3.2527,0.0,-3.7043,-3.8362,-3.9089,-3.9842,-3.9639,-3.8886,0.0,-3.7347,-3.6524,0.0,-3.4844,0.0,0.0,0.0,0.0,0.0,0.0,0.0,0.0,-3.0395,0.0,0.0,0.0,-2.659,-2.6674,0.0,0.0,0.0,0.0,0.0,0.0,0.0,0.0,0.0,0.0,0.0,0.0,0.0,0.0,0.0,0.0,0.0,-3.6931,-3.7601,-3.8311,-3.8954,-3.9706,-4.0096,-4.0096,-4.0096,-4.0096,-4.0096,-4.0096,-4.0096,-4.0096,-4.0096,-4.0096,-4.0096,-4.0096,-4.0096,-4.0096,-4.0096,-4.0096,-4.0096,-4.0096,-4.0096,-4.0113,-4.0197,-4.0231,-4.0316,-4.1052,-4.1322,-4.1424,-1.5799,-1.6832,-1.7713,-1.7713,-1.8807,-1.9708,-1.9708,-2.0936,-2.2278,0.0,0.0,0.0,0.0,0.0,0.0,0.0,0.0,-2.5061,0.0,0.0,0.0,-1.9336,-1.8471,-1.7829,-1.7405,-1.6774,-1.6472,0.0,-1.6351,0.0,0.0,0.0,-1.8656,-1.9424,-2.1345,0.0,-2.3695,0.0,0.0,0.0,0.0,0.0,0.0,-3.7195,-3.8616,-3.969,-3.9994,-3.9639,-3.8937,0.0,-3.7753,0.0,0.0,0.0,0.0,0.0,0.0,0.0,0.0,0.0,0.0,0.0,0.0,0.0,0.0,0.0,-2.6826,0.0,0.0,0.0,0.0,0.0,0.0,0.0,0.0,0.0,0.0,0.0,0.0,0.0,0.0,0.0,0.0,0.0,0.0,0.0,0.0,-3.6451,-3.7675,-3.8843,-3.9673,-4.0096,-4.0096,-4.0096,-4.0096,-4.0096,-4.0096,-4.0096,-4.0096,-4.0096,-4.0096,-4.0096,-4.0096,-4.0096,-4.0096,-4.0096,-4.0096,-4.0096,-4.0096,-4.0096,-4.0096,-4.0096,-4.0146,-4.0468,-4.0544,-4.0595,-1.6278,0.0,0.0,-1.7938,-1.8927,-1.9887,-2.0441,-2.1909,-2.3377,0.0,0.0,0.0,-2.8189,-2.9654,0.0,0.0,0.0,-2.8347,0.0,0.0,-2.2982,-2.1232,-2.0319,0.0,0.0,0.0,0.0,-1.7273,-1.6949,0.0,0.0,0.0,-1.9388,-2.0498,0.0,-2.3959,-2.549,0.0,0.0,-3.0886,-3.2899,-3.4844,-3.6648,-3.7787,-3.8988,-4.0096,-4.0096,-3.9639,-3.8988,-3.8988,-3.8142,0.0,-3.7736,0.0,0.0,0.0,0.0,0.0,-3.6022,0.0,0.0,0.0,0.0,0.0,0.0,0.0,0.0,0.0,0.0,0.0,0.0,0.0,0.0,0.0,0.0,0.0,0.0,0.0,0.0,0.0,0.0,0.0,0.0,0.0,0.0,0.0,0.0,0.0,-3.6101,-3.7956,-3.9266,-3.9791,-3.9994,-4.0096,-4.0096,-4.0096,-4.0096,-4.0096,-4.0096,-4.0096,-4.0096,-4.0096,-4.0096,-4.0096,-4.0096,-4.0096,-4.0096,-4.0096,-4.0096,-4.0096,-4.0096,-4.0096,-4.0096,-4.0096,-4.0096,-4.0096,-1.7519,-1.7669,0.0,0.0,0.0,-2.0367,-2.2298,-2.3146,-2.4552,0.0,0.0,0.0,0.0,0.0,0.0,0.0,0.0,-3.0592,-2.9182,0.0,-2.5649,0.0,0.0,-2.1396,0.0,0.0,-1.8558,-1.7956,-1.8146,0.0,0.0,0.0,0.0,0.0,0.0,-2.6253,-2.7807,-2.9328,-3.0852,-3.2361,-3.3867,-3.6231,-3.8886,0.0,-3.9453,-4.0096,-4.0096,0.0,0.0,-3.8988,-3.8481,0.0,0.0,0.0,0.0,0.0,0.0,0.0,0.0,0.0,0.0,-3.4641,0.0,0.0,0.0,0.0,-2.7993,0.0,0.0,0.0,0.0,0.0,0.0,0.0,0.0,0.0,0.0,0.0,0.0,0.0,0.0,0.0,0.0,0.0,0.0,0.0,0.0,0.0,-3.4523,-3.7381,-3.9005,-3.9022,-3.974,-4.0096,-4.0096,-4.0096,-4.0096,-4.0096,-4.0096,-4.0096,-4.0096,-4.0096,-4.0096,-4.0096,-4.0096,-4.0096,-4.0096,-4.0096,-4.0096,-4.0096,-4.0096,-4.0096,-4.0096,-4.0096,-4.0096,-4.0096,0.0,0.0,0.0,0.0,0.0,-2.1055,-2.3101,-2.4341,-2.5772,0.0,0.0,0.0,0.0,0.0,-3.512,0.0,0.0,-3.3937,-3.2044,-3.0833,0.0,0.0,0.0,-2.4686,0.0,0.0,-2.0714,-1.9392,-1.9147,0.0,0.0,0.0,0.0,0.0,0.0,-2.5865,0.0,0.0,0.0,0.0,0.0,-3.8386,-3.9673,0.0,0.0,-4.0096,-4.0096,-3.9943,0.0,-3.974,-3.9225,-3.87,-3.9191,-3.8684,-3.8007,-3.8481,-3.8108,0.0,0.0,0.0,-3.6214,-3.5436,0.0,0.0,0.0,0.0,0.0,0.0,0.0,0.0,0.0,0.0,0.0,0.0,0.0,0.0,0.0,0.0,0.0,0.0,0.0,0.0,0.0,0.0,0.0,0.0,0.0,0.0,0.0,-3.6163,-3.7997,-3.8954,-3.9723,-4.0096,-4.0096,-4.0096,-4.0096,-4.0096,-4.0096,-4.0096,-4.0096,-4.0096,-4.0096,-4.0096,-4.0096,-4.0096,-4.0096,-4.0096,-4.0096,-4.0096,-4.0096,-4.0096,-4.0096,-4.0096,-4.0096,-4.0096,-1.8927,0.0,0.0,0.0,0.0,0.0,0.0,0.0,0.0,0.0,-3.1528,0.0,-3.4446,0.0,-3.7095,0.0,-3.7173,-3.6322,-3.462,-3.3429,0.0,-2.9736,-2.8862,0.0,0.0,0.0,0.0,-2.1031,0.0,-2.0002,0.0,0.0,0.0,0.0,0.0,0.0,0.0,0.0,-3.3136,0.0,0.0,-3.9453,0.0,0.0,-3.969,-4.0096,0.0,-4.0096,-4.0096,-4.0096,-3.9791,-3.9462,-3.996,-3.9453,-3.8768,-3.9242,-3.887,-3.8345,-3.8616,-3.7939,0.0,-3.6546,-3.4742,0.0,-3.2476,0.0,0.0,0.0,0.0,0.0,0.0,0.0,0.0,0.0,0.0,0.0,0.0,0.0,0.0,0.0,0.0,0.0,0.0,0.0,-2.5406,-2.5879,0.0,0.0,0.0,0.0,-3.6924,-3.8176,-3.9199,-3.9842,-4.0096,-4.0096,-4.0096,-4.0096,-4.0096,-4.0096,-4.0096,-4.0096,-4.0096,-4.0096,-4.0096,-4.0096,-4.0096,-4.0096,-4.0096,-4.0096,-4.0096,-4.0096,-4.0096,-4.0096,-4.0096,-4.0096,0.0,0.0,0.0,0.0,-2.1569,0.0,0.0,0.0,-2.9327,0.0,-3.3165,-3.4319,-3.7048,-3.7492,-3.7975,-3.8957,-3.8451,0.0,-3.6845,-3.5405,0.0,0.0,-3.1438,-2.9945,-2.7572,0.0,0.0,0.0,0.0,0.0,0.0,0.0,0.0,0.0,-2.474,0.0,-2.9094,-3.1345,-3.3643,-3.5955,-3.8159,-3.9462,-4.0096,-4.0096,0.0,-4.0096,-4.0096,-4.0096,-4.0096,-4.0096,-4.0096,-4.0096,-4.0096,-4.0096,-4.0096,-4.0096,-3.9605,-3.9191,-3.991,-3.9039,-3.7956,-3.7956,0.0,0.0,0.0,0.0,-3.2615,0.0,0.0,0.0,0.0,0.0,0.0,0.0,0.0,0.0,0.0,0.0,0.0,0.0,0.0,0.0,0.0,0.0,-2.4457,-2.4491,-2.7875,0.0,0.0,0.0,-3.5893,-3.6778,-3.8227,-3.9368,-4.0096,-4.0096,-4.0096,-4.0096,-4.0096,-4.0096,-4.0096,-4.0096,-4.0096,-4.0096,-4.0096,-4.0096,-4.0096,-4.0096,-4.0096,-4.0096,-4.0096,-4.0096,-4.0096,-4.0096,-4.0096,-4.0096,-2.1141,-2.1744,-2.2619,0.0,-2.4294,-2.5077,0.0,0.0,0.0,0.0,-3.4973,-3.6524,-3.7685,-3.843,-3.9067,-3.9609,-3.9328,0.0,0.0,0.0,0.0,-3.5678,-3.4898,-3.3678,-3.185,-3.052,0.0,-2.5377,0.0,0.0,-2.1939,0.0,0.0,0.0,0.0,0.0,-2.828,-3.1108,-3.4561,-3.8227,-3.9368,-3.9943,0.0,0.0,-4.0096,-4.0096,-4.0096,-4.0096,-4.0096,-4.0096,-4.0096,-4.0096,-4.0096,-4.0096,-4.0096,-4.0096,-3.9977,-3.9859,-4.0045,-3.9436,-3.8717,-3.8717,-3.7449,-3.6045,0.0,0.0,0.0,0.0,0.0,0.0,0.0,0.0,0.0,0.0,0.0,0.0,0.0,0.0,0.0,0.0,0.0,0.0,0.0,-2.3139,-2.3915,-2.4457,-2.6404,0.0,0.0,0.0,0.0,-3.6745,-3.8227,-3.9368,-4.0096,-4.0096,-4.0096,-4.0096,-4.0096,-4.0096,-4.0096,-4.0096,-4.0096,-4.0096,-4.0096,-4.0096,-4.0096,-4.0096,-4.0096,-4.0096,-4.0096,-4.0096,-4.0096,-4.0096,-4.0096,-4.0096,-2.2149,0.0,0.0,-2.6816,0.0,0.0,-2.9144,0.0,0.0,-3.4563,-3.626,0.0,-3.8645,-3.9166,-3.9599,-3.9961,-3.9798,0.0,0.0,0.0,0.0,-3.7668,-3.6937,-3.5785,-3.4192,-3.2655,0.0,-2.7165,0.0,0.0,-2.2492,0.0,0.0,0.0,0.0,-2.5509,0.0,-3.1918,-3.5588,-3.8616,-3.9673,0.0,0.0,-4.0096,-4.0096,-4.0096,-4.0096,-4.0096,-4.0096,-4.0096,-4.0096,-4.0096,-4.0096,-4.0096,-4.0096,-4.0096,-4.0096,-4.0096,-4.0096,-3.9808,-3.9486,-3.9486,-3.8623,-3.7635,-3.7195,-3.6518,-3.5994,0.0,0.0,0.0,0.0,0.0,0.0,0.0,0.0,0.0,0.0,0.0,0.0,0.0,0.0,0.0,0.0,-2.3156,-2.3577,-2.4,-2.5676,0.0,0.0,0.0,0.0,-3.5746,-3.7567,-3.887,-3.9622,-3.9943,-4.0096,-4.0096,-4.0096,-4.0096,-4.0096,-4.0096,-4.0096,-4.0096,-4.0096,-4.0096,-4.0096,-4.0096,-4.0096,-4.0096,-4.0096,-4.0096,-4.0096,-4.0096,-4.0096,-4.0096,0.0,0.0,0.0,0.0,0.0,0.0,0.0,-3.2694,0.0,-3.6248,0.0,-3.8268,-3.9558,-3.9703,-3.9807,-4.0087,0.0,-3.9901,-3.9901,-3.9168,-3.874,-3.8765,-3.8145,-3.7066,-3.5482,-3.3945,0.0,0.0,0.0,0.0,-2.3039,0.0,0.0,0.0,0.0,0.0,0.0,-3.3233,-3.6479,0.0,-3.952,-4.0096,-4.0096,-4.0096,-4.0096,-4.0096,-4.0096,-4.0096,-4.0096,-4.0096,-4.0096,-4.0096,-4.0096,-4.0096,-4.0096,-4.0096,-4.0096,-4.0096,-4.0096,-4.0096,-4.0096,-4.0096,-3.9622,-3.9106,-3.9005,-3.8497,-3.8024,-3.7922,-3.7905,-3.7432,0.0,0.0,0.0,0.0,0.0,0.0,0.0,0.0,0.0,0.0,0.0,0.0,0.0,-2.3359,-2.3291,-2.3393,0.0,0.0,0.0,0.0,0.0,-3.4303,-3.6569,0.0,-3.8988,0.0,-4.0096,-4.0096,-4.0096,-4.0096,-4.0096,-4.0096,-4.0096,-4.0096,-4.0096,-4.0096,-4.0096,-4.0096,-4.0096,-4.0096,-4.0096,-4.0096,-4.0096,-4.0096,-4.0096,-4.0096,0.0,0.0,0.0,0.0,0.0,-3.3414,-3.5063,-3.5932,-3.6669,-3.7431,-3.8263,0.0,-3.9635,-3.9703,-3.9807,-4.0087,-3.9977,0.0,0.0,0.0,0.0,-3.9673,-3.9556,-3.8774,-3.7278,-3.5782,-3.3477,0.0,-2.7548,-2.543,-2.3865,0.0,0.0,0.0,0.0,0.0,-3.0632,-3.4112,0.0,-3.8041,-3.952,-4.0096,-4.0096,-4.0096,-4.0096,-4.0096,-4.0096,-4.0096,-4.0096,-4.0096,-4.0096,-4.0096,-4.0096,-4.0096,-4.0096,-4.0096,-4.0096,-4.0096,-4.0096,-4.0096,-4.0096,-4.0096,-4.0011,-3.9757,-3.914,-3.8903,-3.8633,-3.8041,-3.7905,-3.7432,-3.587,0.0,0.0,0.0,0.0,0.0,0.0,0.0,0.0,0.0,0.0,0.0,0.0,0.0,0.0,0.0,0.0,0.0,0.0,0.0,0.0,0.0,0.0,0.0,0.0,0.0,-4.0096,-4.0096,-4.0096,-4.0096,-4.0096,-4.0096,-4.0096,-4.0096,-4.0096,-4.0096,-4.0096,-4.0096,-4.0096,-4.0096,-4.0096,-4.0096,-4.0096,-4.0096,-4.0096,-4.0096,0.0,0.0,0.0,0.0,0.0,0.0,0.0,-3.7849,0.0,-3.8133,-3.8782,-3.9388,-3.9755,-3.9807,-3.9884,-4.007,-4.0037,-4.0011,-4.0011,-3.9935,-3.9935,-3.9986,-4.0011,0.0,-3.8383,-3.6922,-3.4835,-3.2097,-2.9215,-2.6808,0.0,-2.3457,0.0,-2.2929,0.0,-2.8891,0.0,0.0,0.0,-3.8565,-3.9673,-4.0096,-4.0096,-4.0096,-4.0096,-4.0096,-4.0096,-4.0096,-4.0096,-4.0096,-4.0096,-4.0096,-4.0096,-4.0096,-4.0096,-4.0096,-4.0096,-4.0096,-4.0096,-4.0096,-4.0096,-4.0096,-4.0096,-4.0011,-3.9656,-3.9571,-3.9462,-3.9106,-3.9039,-3.8447,-3.6569,-3.3778,0.0,0.0,0.0,0.0,0.0,0.0,0.0,0.0,0.0,0.0,0.0,0.0,0.0,0.0,0.0,0.0,0.0,0.0,0.0,0.0,0.0,0.0,0.0,0.0,0.0,-4.0096,-4.0096,-4.0096,-4.0096,-4.0096,-4.0096,-4.0096,-4.0096,-4.0096,-4.0096,-4.0096,-4.0096,-4.0096,-4.0096,-4.0096,-4.0096,-4.0096,-4.0096,-4.0096,0.0,-3.3629,0.0,0.0,-3.6669,0.0,-3.8461,-3.9415,-3.9714,-3.8813,-3.9187,-3.9616,-3.9875,-3.9901,-3.9935,-4.007,-4.0096,-4.0096,-4.0096,-4.0096,-4.0096,-4.0096,-4.0096,-3.9757,-3.9005,-3.7557,-3.5763,0.0,0.0,0.0,0.0,-2.4712,-2.4288,-2.4729,0.0,0.0,0.0,0.0,-3.7658,-3.9056,-3.9808,-4.0096,-4.0096,-4.0096,-4.0096,-4.0096,-4.0096,-4.0096,-4.0096,-4.0096,-4.0096,-4.0096,-4.0096,-4.0096,-4.0096,-4.0096,-4.0096,-4.0096,-4.0096,-4.0096,-4.0096,-4.0096,-4.0096,-4.0096,-4.0096,-4.0096,-4.0096,-4.0096,-3.9977,-3.93,-3.7388,-3.481,0.0,0.0,0.0,0.0,0.0,0.0,0.0,0.0,0.0,0.0,0.0,0.0,0.0,0.0,0.0,0.0,0.0,0.0,0.0,0.0,0.0,-3.6113,-3.7652,0.0,-3.9385,0.0,-4.0096,-4.0096,-4.0096,-4.0096,-4.0096,-4.0096,-4.0096,-4.0096,-4.0096,-4.0096,-4.0096,-4.0096,-4.0096,-4.0096,-4.0096,-4.0096,-4.0096,-4.0096,0.0,0.0,0.0,0.0,0.0,0.0,0.0,-4.1201,-4.1302,-3.9787,-3.9644,-3.9729,-3.9901,-3.9901,-3.9935,-4.007,-4.0096,-4.0096,-4.0096,-4.0096,-4.0096,-4.0096,-4.0096,-3.9757,-3.9005,-3.7557,-3.6017,0.0,0.0,0.0,0.0,0.0,-2.7148,-2.8519,0.0,0.0,0.0,-3.6118,-3.7658,-3.9056,-3.9808,-4.0096,-4.0096,-4.0096,-4.0096,-4.0096,-4.0096,-4.0096,-4.0096,-4.0096,-4.0096,-4.0096,-4.0096,-4.0096,-4.0096,-4.0096,-4.0096,-4.0096,-4.0096,-4.0096,-4.0096,-4.0096,-4.0096,-4.0096,-4.0096,-4.0096,-4.0096,-4.0096,-3.9571,-3.8836,-3.7956,-3.6411,-3.5064,0.0,0.0,0.0,0.0,0.0,0.0,0.0,0.0,0.0,0.0,0.0,0.0,0.0,0.0,0.0,0.0,0.0,0.0,-3.026,0.0,-3.5334,-3.6897,-3.8294,0.0,-4.0096,-4.0096,-4.0096,-4.0096,-4.0096,-4.0096,-4.0096,-4.0096,-4.0096,-4.0096,-4.0096,-4.0096,-4.0096,-4.0096,-4.0096,-4.0096,-4.0096,-4.0096,-4.0096,0.0,0.0,0.0,0.0,0.0,0.0,0.0,-4.1903,-4.1977,-4.1334,-4.1249,-4.1276,-4.1328,-4.1328,-4.1186,-4.0798,-4.0747,-4.0561,-4.013,-4.0096,-4.0096,-4.0096,-4.0096,-3.996,-3.9673,-3.8657,-3.7388,0.0,0.0,0.0,0.0,0.0,0.0,0.0,0.0,-3.4167,-3.6603,-3.7669,-3.8725,-3.969,-3.9994,-4.0096,-4.0096,-4.0096,-4.0096,-4.0096,-4.0096,-4.0096,-4.0096,-4.0096,-4.0096,-4.0096,-4.0096,-4.0096,-4.0096,-4.0096,-4.0096,-4.0096,-4.0096,-4.0096,-4.0096,-4.0096,-4.0096,-4.0096,-4.0096,-4.0096,-4.0096,-4.0096,-3.9157,-3.8261,-3.7956,-3.6282,-3.4844,0.0,0.0,0.0,0.0,0.0,0.0,0.0,0.0,0.0,0.0,0.0,0.0,0.0,0.0,-2.4186,-2.4474,0.0,0.0,-3.0717,0.0,-3.5013,-3.7432,-3.8058,-3.892,-4.0096,-4.0096,-4.0096,-4.0096,-4.0096,-4.0096,-4.0096,-4.0096,-4.0096,-4.0096,-4.0096,-4.0096,-4.0096,-4.0096,-4.0096,-4.0096,-4.0096,-4.0096,-4.0096,-3.9177,0.0,-4.1037,0.0,-4.1816,-4.2326,-4.2425,-4.2746,-4.299,-4.299,-4.299,-4.2794,-4.2337,-4.2286,-4.2083,-4.1576,-4.1525,-4.1305,-4.079,-4.0553,-4.0409,-4.0409,-4.0231,0.0,-4.0096,-3.9377,-3.8481,-3.7455,-3.5932,0.0,0.0,-3.1749,0.0,0.0,-3.4714,-3.6299,-3.8261,-3.8768,-3.9436,-4.0096,-4.0096,-4.0096,-4.0096,-4.0096,-4.0096,-4.0096,-4.0096,-4.0096,-4.0096,-4.0096,-4.0096,-4.0096,-4.0096,-4.0096,-4.0096,-4.0096,-4.0096,-4.0096,-4.0096,-4.0096,-4.0096,-4.0096,-4.0096,-4.0096,-4.0096,-4.0096,-4.0096,-4.0096,-3.9089,-3.8159,-3.7939,-3.64,-3.5081,-3.4861,0.0,0.0,0.0,0.0,0.0,0.0,0.0,-2.6066,0.0,0.0,0.0,0.0,0.0,-2.5388,-2.5168,0.0,0.0,0.0,0.0,0.0,0.0,-3.8007,-3.8853,-4.0096,-4.0096,-4.0096,-4.0096,-4.0096,-4.0096,-4.0096,-4.0096,-4.0096,-4.0096,-4.0096,-4.0096,-4.0096,-4.0096,-4.0096,-4.0096,-4.0096,-4.0096,-4.0096,-4.1144,-4.1335,-4.1526,-4.1683,-4.2529,-4.3193,-4.3193,-4.3962,-4.4581,-4.4581,-4.4581,-4.4005,-4.2455,-4.2286,-4.2286,-4.2286,-4.2286,-4.2269,-4.2252,-4.1593,-4.1187,0.0,0.0,-4.0096,-4.0096,-3.9377,-3.8988,-3.8954,0.0,0.0,-3.5532,-3.4793,-3.5272,-3.6745,-3.6761,-3.7608,-3.8988,-3.8988,-3.9436,-4.0096,-4.0096,-4.0096,-4.0096,-4.0096,-4.0096,-4.0096,-4.0096,-4.0096,-4.0096,-4.0096,-4.0096,-4.0096,-4.0096,-4.0096,-4.0096,-4.0096,-4.0096,-4.0096,-4.0096,-4.0096,-4.0096,-4.0096,-4.0096,-4.0096,-4.0096,-4.0096,-4.0096,-4.0096,-3.952,-3.8751,-3.8041,-3.728,-3.6524,-3.5718,0.0,0.0,0.0,0.0,0.0,0.0,0.0,-2.7198,-2.5728,0.0,0.0,0.0,0.0,0.0,0.0,0.0,0.0,-3.1123,-3.3339,0.0,-3.6795,-3.8268,-3.9343,-4.0096,-4.0096,-4.0096,-4.0096,-4.0096,-4.0096,-4.0096,-4.0096,-4.0096,-4.0096,-4.0096,-4.0096,-4.0096,-4.0096,-4.0096,-4.0096,-4.0096,-4.0096,-4.0096,-4.2297,-4.2896,-4.3434,-4.3462,-4.3833,-4.4142,-4.4142,-4.4418,-4.4615,-4.4615,-4.4615,-4.4412,-4.3938,-4.3887,-4.3639,0.0,-4.3064,-4.2844,0.0,-4.2066,-4.1728,-4.1221,-4.0984,-4.0595,-4.0113,-3.9876,-3.9503,-3.8988,0.0,0.0,0.0,-3.6941,-3.7347,-3.8294,-3.8294,-3.8843,-3.9757,-3.9757,-3.9893,-4.0096,-4.0096,-4.0096,-4.0096,-4.0096,-4.0096,-4.0096,-4.0096,-4.0096,-4.0096,-4.0096,-4.0096,-4.0096,-4.0096,-4.0096,-4.0096,-4.0096,-4.0096,-4.0096,-4.0096,-4.0096,-4.0096,-4.0096,-4.0096,-4.0096,-4.0096,-4.0096,-4.0096,-4.0096,-3.952,-3.8768,-3.8041,-3.7297,-3.6535,-3.5718,-3.4551,0.0,0.0,0.0,0.0,0.0,0.0,-2.8416,0.0,-2.813,0.0,0.0,0.0,0.0,0.0,0.0,0.0,0.0,-3.437,0.0,-3.8278,-3.8751,-3.9385,-4.0096,-4.0096,-4.0096,-4.0096,-4.0096,-4.0096,-4.0096,-4.0096,-4.0096,-4.0096,-4.0096,-4.0096,-4.0096,-4.0096,-4.0096,-4.0096,-4.0096,-4.0096,-4.0096,-4.3496,-4.3979,-4.4412,-4.4412,-4.4514,-4.4615,-4.4615,-4.4615,-4.4615,-4.4615,-4.4615,-4.4615,-4.4615,-4.4615,0.0,-4.3893,-4.3859,-4.3656,-4.3183,-4.2878,-4.2506,-4.2066,-4.1762,-4.139,-4.0942,0.0,0.0,-3.9834,-3.9546,-3.9174,-3.8717,-3.8717,-3.8954,-3.9394,-3.9394,-3.9673,-4.0096,-4.0096,-4.0096,-4.0096,-4.0096,-4.0096,-4.0096,-4.0096,-4.0096,-4.0096,-4.0096,-4.0096,-4.0096,-4.0096,-4.0096,-4.0096,-4.0096,-4.0096,-4.0096,-4.0096,-4.0096,-4.0096,-4.0096,-4.0096,-4.0096,-4.0096,-4.0096,-4.0096,-4.0096,-4.0096,-4.0096,-4.0096,-3.952,-3.8768,-3.8041,-3.7297,-3.6535,-3.5718,-3.4585,-3.3728,0.0,0.0,0.0,0.0,0.0,0.0,0.0,-3.0076,0.0,0.0,0.0,0.0,0.0,0.0,0.0,-3.4146,-3.5419,0.0,-3.8971,-3.9259,-3.9656,-4.0096,-4.0096,-4.0096,-4.0096,-4.0096,-4.0096,-4.0096,-4.0096,-4.0096,-4.0096,-4.0096,-4.0096,-4.0096,-4.0096,-4.0096,-4.0096,-4.0096,-4.0096,-4.0146,-4.4615,-4.4615,0.0,0.0,-4.4615,0.0,-4.4615,-4.4615,-4.4615,-4.4615,-4.4615,-4.4615,-4.4615,-4.4615,-4.4615,-4.4615,0.0,0.0,0.0,-4.391,-4.3443,-4.3392,-4.2743,-4.2337,-4.2286,-4.1627,-4.1255,-4.1204,-4.0493,-4.0146,-4.0096,-4.0096,-4.0096,-4.0096,-4.0096,-4.0096,-4.0096,-4.0096,-4.0096,-4.0096,-4.0096,-4.0096,-4.0096,-4.0096,-4.0096,-4.0096,-4.0096,-4.0096,-4.0096,-4.0096,-4.0096,-4.0096,-4.0096,-4.0096,-4.0096,-4.0096,-4.0096,-4.0096,-4.0096,-4.0096,-4.0096,-4.0096,-4.0096,-4.0096,-4.0096,-4.0096,-4.0096,-4.0096,-3.9554,-3.8836,-3.8058,-3.733,-3.6586,-3.5735,-3.4945,-3.4184,-3.3508,0.0,0.0,0.0,0.0,0.0,0.0,-3.1972,-3.2395,0.0,0.0,0.0,0.0,0.0,-3.2848,-3.56,-3.6502,-3.7642,-3.9056,-3.9757,-4.0096,-4.0096,-4.0096,-4.0096,-4.0096,-4.0096,-4.0096,-4.0096,-4.0096,-4.0096,-4.0096,-4.0096,-4.0096,-4.0096,-4.0096,-4.0096,-4.0096,-4.0096,-4.013,-4.0282,0.0,0.0,-4.4615,-4.4615,-4.4615,-4.4615,-4.4615,-4.4615,-4.4615,-4.4615,-4.4615,-4.4615,-4.4615,-4.4615,-4.4615,-4.4615,-4.4615,-4.4615,-4.4615,-4.4429,-4.4045,-4.3426,-4.325,-4.2878,-4.2303,-4.2117,-4.1762,-4.1204,-4.1035,-4.0646,-4.0096,-4.0096,-4.0096,-4.0096,-4.0096,-4.0096,-4.0096,-4.0096,-4.0096,-4.0096,-4.0096,-4.0096,-4.0096,-4.0096,-4.0096,-4.0096,-4.0096,-4.0096,-4.0096,-4.0096,-4.0096,-4.0096,-4.0096,-4.0096,-4.0096,-4.0096,-4.0096,-4.0096,-4.0096,-4.0096,-4.0096,-4.0096,-4.0096,-4.0096,-4.0096,-4.0096,-4.0096,-4.0096,-3.996,-3.9453,-3.8142,-3.777,-3.7195,-3.5819,-3.4501,-3.3609,-3.3423,-3.2763,0.0,0.0,-3.2527,-3.2882,-3.2882,-3.3034,-3.3372,0.0,0.0,0.0,0.0,-3.5661,-3.5797,-3.6508,-3.7787,-3.8928,-3.9842,-4.0011,-4.0096,-4.0096,-4.0096,-4.0096,-4.0096,-4.0096,-4.0096,-4.0096,-4.0096,-4.0096,-4.0096,-4.0096,-4.0096,-4.0096,-4.0096,-4.0096,-4.0096,-4.0096,-4.0468,-4.0967,-4.4615,-4.4615,-4.4615,-4.4615,-4.4615,-4.4615,-4.4615,-4.4615,-4.4615,-4.4615,-4.4615,-4.4615,-4.4615,-4.4615,-4.4615,-4.4615,-4.4615,-4.4615,-4.4615,-4.4615,-4.4429,-4.3961,-4.3944,-4.3758,-4.3379,-4.298,-4.2439,-4.1694,-4.1694,-4.1491,-4.1111,-4.1111,-4.1111,-4.1111,-4.1111,-4.1111,-4.1111,-4.1111,-4.1111,-4.1111,-4.1111,-4.1111,-4.1111,-4.1111,-4.1111,-4.1111,-4.1111,-4.1111,-4.1111,-4.1111,-4.0891,-4.0595,-4.0595,-4.0383,-4.0096,-4.0096,-4.0096,-4.0096,-4.0096,-4.0096,-4.0096,-4.0096,-4.0096,-4.0096,-4.0096,-4.0096,-4.0096,-4.0096,-4.0096,-3.9757,-3.8616,-3.8125,-3.7516,-3.6349,-3.4607,-3.3525,-3.3863,-3.2987,0.0,-3.3677,-3.4167,-3.467,-3.5402,-3.547,-3.5622,-3.6028,0.0,0.0,-3.7246,-3.7625,-3.7811,-3.7811,-3.8565,-3.9368,-4.0096,-4.0096,-4.0096,-4.0096,-4.0096,-4.0096,-4.0096,-4.0096,-4.0096,-4.0096,-4.0096,-4.0096,-4.0096,-4.0096,-4.0096,-4.0096,-4.0096,-4.0096,-4.0096,-4.0096,-4.0561,-4.1255,-4.4615,-4.4615,-4.4615,-4.4615,-4.4615,-4.4615,-4.4615,-4.4615,-4.4615,-4.4615,-4.4615,-4.4615,-4.4615,-4.4615,-4.4615,-4.4615,-4.4615,-4.4615,-4.4615,-4.4615,-4.4615,-4.4615,-4.4615,-4.4615,-4.4615,-4.3927,-4.3217,-4.2472,-4.2472,-4.2405,-4.2286,-4.2286,-4.2286,-4.2286,-4.2286,-4.2286,-4.2286,-4.2286,-4.2286,-4.2286,-4.2286,-4.2286,-4.2286,-4.2286,-4.2286,-4.2286,-4.2286,-4.2286,-4.2286,-4.2286,-4.188,-4.1373,-4.1373,-4.0849,-4.0282,-4.0282,-4.0197,-4.0096,-4.0096,-4.0096,-4.0096,-4.0096,-4.0096,-4.0096,-4.0096,-4.0096,-4.0096,-4.0096,-4.0096,-3.9876,-3.9123,-3.8396,-3.7669,-3.6931,-3.4979,-3.3778,-3.4404,0.0,-3.3491,-3.538,-3.5802,-3.6462,-3.7787,-3.7905,-3.7956,-3.8075,-3.8075,-3.8125,0.0,-3.8819,-3.9157,-3.9157,-3.9157,-3.9486,-4.0096,-4.0096,-4.0096,-4.0096,-4.0096,-4.0096,-4.0096,-4.0096,-4.0096,-4.0096,-4.0096,-4.0096,-4.0096,-4.0096,-4.0096,-4.0096,-4.0096,-4.0096,-4.0096,-4.0096,-4.0629,-4.1457,-4.4615,-4.4615,-4.4615,-4.4615,-4.4615,-4.4615,-4.4615,-4.4615,-4.4615,-4.4615,-4.4615,-4.4615,-4.4615,-4.4615,-4.4615,-4.4615,-4.4615,-4.4615,-4.4615,-4.4615,-4.4615,-4.4615,-4.4615,-4.4615,-4.4615,-4.4496,-4.4012,-4.325,-4.325,-4.2912,-4.2286,-4.2286,-4.2286,-4.2286,-4.2286,-4.2286,-4.2286,-4.2286,-4.2286,-4.2286,-4.2286,-4.2286,-4.2286,-4.2286,-4.2286,-4.2286,-4.2286,-4.2286,-4.2286,-4.2286,-4.2219,-4.2117,-4.2117,-4.161,-4.1035,-4.1035,-4.0578,-4.0096,-4.0096,-4.0096,-4.0096,-4.0096,-4.0096,-4.0096,-4.0096,-4.0096,-4.0096,-4.0096,-4.0096,-3.9876,-3.9123,-3.8396,-3.7669,-3.6931,-3.5402,-3.437,-3.4472,0.0,-3.5211,-3.5566,-3.6749,-3.7652,-3.7889,-3.7905,-3.8159,-3.8768,-3.8819,-3.9089,-3.974,-3.9876,-3.9943,-3.9943,-3.9943,-3.9994,-4.0096,-4.0096,-4.0096,-4.0096,-4.0096,-4.0096,-4.0096,-4.0096,-4.0096,-4.0096,-4.0096,-4.0096,-4.0096,-4.0096,-4.0096,-4.0096,-4.0096,-4.0096,-4.0096,-4.0096,-4.0976,-4.2151,-4.4615,-4.4615,-4.4615,-4.4615,-4.4615,-4.4615,-4.4615,-4.4615,-4.4615,-4.4615,-4.4615,-4.4615,-4.4615,-4.4615,-4.4615,-4.4615,-4.4615,-4.4615,-4.4615,-4.4615,-4.4615,-4.4615,-4.4615,-4.4615,-4.4615,-4.4615,-4.4429,-4.4045,-4.4045,-4.3859,-4.3548,-4.3548,-4.3548,-4.3548,-4.3548,-4.3548,-4.3548,-4.3548,-4.3548,-4.3548,-4.3548,-4.3548,-4.3548,-4.3548,-4.3548,-4.3548,-4.3548,-4.3548,-4.3548,-4.3548,-4.325,-4.2895,-4.2895,-4.2388,-4.1779,-4.1779,-4.0984,-4.0096,-4.0096,-4.0096,-4.0096,-4.0096,-4.0096,-4.0096,-4.0096,-4.0096,-4.0096,-4.0096,-4.0096,-3.9994,-3.9673,-3.8988,-3.8244,-3.7499,-3.6096,0.0,0.0,-3.5673,-3.6056,-3.7297,-3.8058,-3.865,-3.9039,-3.9073,-3.9249,-3.9571,-3.9605,-3.974,-4.0079,-4.0096,-4.0096,-4.0096,-4.0096,-4.0096,-4.0096,-4.0096,-4.0096,-4.0096,-4.0096,-4.0096,-4.0096,-4.0096,-4.0096,-4.0096,-4.0096,-4.0096,-4.0096,-4.0096,-4.0096,-4.0096,-4.0096,-4.0096,-4.0146,-4.057,-4.1356,-4.2354,-4.4615,-4.4615,-4.4615,-4.4615,-4.4615,-4.4615,-4.4615,-4.4615,-4.4615,-4.4615,-4.4615,-4.4615,-4.4615,-4.4615,-4.4615,-4.4615,-4.4615,-4.4615,-4.4615,-4.4615,-4.4615,-4.4615,-4.4615,-4.4615,-4.4615,-4.4615,-4.4615,-4.4615,-4.4615,-4.4615,-4.4615,-4.4615,-4.4615,-4.4615,-4.4615,-4.4615,-4.4615,-4.4615,-4.4615,-4.4615,-4.4615,-4.4615,-4.4615,-4.4615,-4.4615,-4.4615,-4.4615,-4.4615,-4.4615,-4.4615,-4.4181,-4.369,-4.369,-4.3166,-4.2557,-4.2557,-4.1627,-4.057,-4.0417,-4.0231,-4.0096,-4.0096,-4.0096,-4.0096,-4.0096,-4.0096,-4.0096,-4.0096,-4.0096,-4.0096,-4.0096,-3.9503,-3.8802,-3.8261,0.0,0.0,0.0,-3.6671,-3.7043,-3.8785,-3.914,-3.9486,-4.0045,-4.0096,-4.0096,-4.0096,-4.0096,-4.0096,-4.0096,-4.0096,-4.0096,-4.0096,-4.0096,-4.0096,-4.0096,-4.0096,-4.0096,-4.0096,-4.0096,-4.0096,-4.0096,-4.0096,-4.0096,-4.0096,-4.0096,-4.0096,-4.0096,-4.0096,-4.0096,-4.0096,-4.0096,-4.0096,-4.0197,-4.0933,-4.166,-4.2405,-4.4615,-4.4615,-4.4615,-4.4615,-4.4615,-4.4615,-4.4615,-4.4615,-4.4615,-4.4615,-4.4615,-4.4615,-4.4615,-4.4615,-4.4615,-4.4615,-4.4615,-4.4615,-4.4615,-4.4615,-4.4615,-4.4615,-4.4615,-4.4615,-4.4615,-4.4615,-4.4615,-4.4615,-4.4615,-4.4615,-4.4615,-4.4615,-4.4615,-4.4615,-4.4615,-4.4615,-4.4615,-4.4615,-4.4615,-4.4615,-4.4615,-4.4615,-4.4615,-4.4615,-4.4615,-4.4615,-4.4615,-4.4615,-4.4615,-4.4615,-4.4564,-4.4513,-4.4513,-4.3961,-4.3308,-4.3308,-4.276,-4.1982,-4.1305,-4.0612,-4.0096,-4.0096,-4.0096,-4.0096,-4.0096,-4.0096,-4.0096,-4.0096,-4.0096,-4.0096,-4.0096,-3.9503,-3.8971,-3.892,0.0,0.0,-3.7821,-3.8362,-3.8802,-3.8971,-3.9605,-4.0045,-4.0096,-4.0096,-4.0096,-4.0096,-4.0096,-4.0096,-4.0096,-4.0096,-4.0096,-4.0096,-4.0096,-4.0096,-4.0096,-4.0096,-4.0096,-4.0096,-4.0096,-4.0096,-4.0096,-4.0096,-4.0096,-4.0096,-4.0096,-4.0096,-4.0096,-4.0096,-4.0096,-4.0096,-4.0096,-4.0096,-4.0197,-4.0933,-4.166,-4.2405,-4.4615,-4.4615,-4.4615,-4.4615,-4.4615,-4.4615,-4.4615,-4.4615,-4.4615,-4.4615,-4.4615,-4.4615,-4.4615,-4.4615,-4.4615,-4.4615,-4.4615,-4.4615,-4.4615,-4.4615,-4.4615,-4.4615,-4.4615,-4.4615,-4.4615,-4.4615,-4.4615,-4.4615,-4.4615,-4.4615,-4.4615,-4.4615,-4.4615,-4.4615,-4.4615,-4.4615,-4.4615,-4.4615,-4.4615,-4.4615,-4.4615,-4.4615,-4.4615,-4.4615,-4.4615,-4.4615,-4.4615,-4.4615,-4.4615,-4.4615,-4.4615,-4.4615,-4.4615,-4.4384,-4.413,-4.413,-4.3589,-4.2929,-4.2632,-4.1694,-4.0663,-4.0214,-4.0096,-4.0096,-4.0096,-4.0096,-4.0096,-4.0096,-4.0096,-4.0096,-4.0096,-3.9876,-3.9537,-3.9056,0.0,-3.8582,-3.8582,-3.8819,-3.9157,-3.9639,-3.9943,-4.0096,-4.0096,-4.0096,-4.0096,-4.0096,-4.0096,-4.0096,-4.0096,-4.0096,-4.0096,-4.0096,-4.0096,-4.0096,-4.0096,-4.0096,-4.0096,-4.0096,-4.0096,-4.0096,-4.0096,-4.0096,-4.0096,-4.0096,-4.0096,-4.0096,-4.0096,-4.0096,-4.0096,-4.0096,-4.0096,-4.0383,-4.0865,-4.161,-4.2354,-4.3098,-4.4615,-4.4615,-4.4615,-4.4615,-4.4615,-4.4615,-4.4615,-4.4615,-4.4615,-4.4615,-4.4615,-4.4615,-4.4615,-4.4615,-4.4615,-4.4615,-4.4615,-4.4615,-4.4615,-4.4615,-4.4615,-4.4615,-4.4615,-4.4615,-4.4615,-4.4615,-4.4615,-4.4615,-4.4615,-4.4615,-4.4615,-4.4615,-4.4615,-4.4615,-4.4615,-4.4615,-4.4615,-4.4615,-4.4615,-4.4615,-4.4615,-4.4615,-4.4615,-4.4615,-4.4615,-4.4615,-4.4615,-4.4615,-4.4615,-4.4615,-4.4615,-4.4615,-4.4615,-4.4615,-4.4615,-4.4615,-4.4198,-4.3724,-4.346,-4.2675,-4.166,-4.0679,-4.0468,-4.0383,-4.0146,-4.0096,-4.0096,-4.0096,-4.0096,-4.0096,-4.0096,-4.0096,-3.9943,-3.9436,-3.9368,-3.9368,-3.9368,-3.9368,-3.9537,-4.0045,-4.0096,-4.0096,-4.0096,-4.0096,-4.0096,-4.0096,-4.0096,-4.0096,-4.0096,-4.0096,-4.0096,-4.0096,-4.0096,-4.0096,-4.0096,-4.0096,-4.0096,-4.0096,-4.0096,-4.0096,-4.0096,-4.0096,-4.0096,-4.0096,-4.0096,-4.0096,-4.0096,-4.0096,-4.0096,-4.0096,-4.0096,-4.0544,-4.1288,-4.2016,-4.2777,-4.3511,-4.4615,-4.4615,-4.4615,-4.4615,-4.4615,-4.4615,-4.4615,-4.4615,-4.4615,-4.4615,-4.4615,-4.4615,-4.4615,-4.4615,-4.4615,-4.4615,-4.4615,-4.4615,-4.4632,-4.4632,-4.4632,-4.4632,-4.4615,-4.4615,-4.4615,-4.4615,-4.4615,-4.4615,-4.4615,-4.4615,-4.4615,-4.4615,-4.4615,-4.4615,-4.4615,-4.4615,-4.4615,-4.4615,-4.4615,-4.4615,-4.4615,-4.4615,-4.4615,-4.4615,-4.4615,-4.4615,-4.4615,-4.4615,-4.4615,-4.4615,-4.4615,-4.4615,-4.4615,-4.4615,-4.4615,-4.4615,-4.4615,-4.4445,-4.3639,-4.3392,-4.3054,-4.1593,-4.1204,-4.1018,-4.0282,-4.0096,-4.0096,-4.0096,-4.0096,-4.0096,-4.0096,-4.0096,-4.0096,-4.0096,-4.0096,-4.0096,-4.0096,-4.0096,-4.0096,-4.0096,-4.0096,-4.0096,-4.0096,-4.0096,-4.0096,-4.0096,-4.0096,-4.0096,-4.0096,-4.0096,-4.0096,-4.0096,-4.0096,-4.0096,-4.0096,-4.0096,-4.0096,-4.0096,-4.0096,-4.0096,-4.0096,-4.0096,-4.0096,-4.0096,-4.0096,-4.0096,-4.0096,-4.0096,-4.0096,-4.0096,-4.0096,-4.0544,-4.1305,-4.2016,-4.2777,-4.3511,-4.4615,-4.4615,-4.4615,-4.4615,-4.4615,-4.4615,-4.4615,-4.4615,-4.4615,-4.4615,-4.4615,-4.4615,-4.4615,-4.4615,-4.4615,-4.4615,-4.506,-4.5585,-4.6092,-4.6126,-4.6126,-4.6126,-4.5156,-4.4615,-4.4615,-4.4615,-4.4615,-4.4615,-4.4615,-4.4615,-4.4615,-4.4615,-4.4615,-4.4615,-4.4615,-4.4615,-4.4615,-4.4615,-4.4615,-4.4615,-4.4615,-4.4615,-4.4615,-4.4615,-4.4615,-4.4615,-4.4615,-4.4615,-4.4615,-4.4615,-4.4615,-4.4615,-4.4615,-4.4615,-4.4615,-4.4615,-4.4615,-4.4564,-4.4327,-4.4231,-4.3876,-4.2337,-4.1576,-4.1136,-4.0916,-4.046,-4.0096,-4.0096,-4.0096,-4.0096,-4.0096,-4.0096,-4.0096,-4.0096,-4.0096,-4.0096,-4.0096,-4.0096,-4.0096,-4.0096,-4.0096,-4.0096,-4.0096,-4.0096,-4.0096,-4.0096,-4.0096,-4.0096,-4.0096,-4.0096,-4.0096,-4.0096,-4.0096,-4.0096,-4.0096,-4.0096,-4.0096,-4.0096,-4.0096,-4.0096,-4.0096,-4.0096,-4.0096,-4.0096,-4.0096,-4.0096,-4.0096,-4.0096,-4.0096,-4.0096,-4.0096,-4.0874,-4.1999,-4.2219,-4.3115,-4.4265,-4.4615,-4.4615,-4.4615,-4.4615,-4.4615,-4.4615,-4.4615,-4.4615,-4.4615,-4.4615,-4.4869,-4.5026,-4.5026,-4.5309,-4.5478,-4.5478,-4.5872,-4.6312,-4.6752,-4.6786,-4.6786,-4.6786,-4.594,-4.5314,-4.5026,-4.5026,-4.5026,-4.5026,-4.5026,-4.5162,-4.5478,-4.5162,-4.5179,-4.5461,-4.4869,-4.4936,-4.5461,-4.5173,-4.5196,-4.5478,-4.5478,-4.5478,-4.5478,-4.5478,-4.5478,-4.5478,-4.5478,-4.5478,-4.5444,-4.5111,-4.4852,-4.4615,-4.4615,-4.4615,-4.4615,-4.4615,-4.4615,-4.4615,-4.4615,-4.4615,-4.4378,-4.342,-4.2642,-4.1999,-4.1694,-4.1052,-4.0527,-4.0527,-4.0316,-4.0096,-4.0096,-4.0096,-4.0096,-4.0096,-4.0096,-4.0096,-4.0096,-4.0096,-4.0096,-4.0096,-4.0096,-4.0096,-4.0096,-4.0096,-4.0096,-4.0096,-4.0096,-4.0096,-4.0096,-4.0096,-4.0096,-4.0096,-4.0096,-4.0096,-4.0096,-4.0096,-4.0096,-4.0096,-4.0096,-4.0096,-4.0096,-4.0096,-4.0096,-4.0096,-4.0096,-4.0096,-4.0096,-4.0096,-4.0096,-4.0096,-4.0096,-4.101,-4.2286,-4.2286,-4.3295,-4.4615,-4.4615,-4.4615,-4.4615,-4.4615,-4.4615,-4.4615,-4.4615,-4.4666,-4.4699,-4.4699,-4.5331,-4.5805,-4.5805,-4.6397,-4.6786,-4.6786,-4.6853,-4.6921,-4.6989,-4.6989,-4.6989,-4.6989,-4.6989,-4.665,-4.5923,-4.5838,-4.5805,-4.5805,-4.5805,-4.6143,-4.6786,-4.6109,-4.616,-4.6735,-4.541,-4.5534,-4.6752,-4.6075,-4.6194,-4.6786,-4.6786,-4.6786,-4.6786,-4.6786,-4.6786,-4.6786,-4.6786,-4.6786,-4.6684,-4.6024,-4.5348,-4.4801,-4.4801,-4.475,-4.4699,-4.4699,-4.4649,-4.4615,-4.4615,-4.4615,-4.4615,-4.4615,-4.4045,-4.3318,-4.2574,-4.183,-4.1305,-4.1305,-4.0747,-4.0282,-4.0214,-4.0197,-4.018,-4.0113,-4.0096,-4.0096,-4.0096,-4.0096,-4.0096,-4.0096,-4.0096,-4.0096,-4.0096,-4.0096,-4.0096,-4.0096,-4.0096,-4.0096,-4.0096,-4.0096,-4.0096,-4.0096,-4.0096,-4.0096,-4.0096,-4.0096,-4.0096,-4.0096,-4.0096,-4.0096,-4.0096,-4.0096,-4.0096,-4.0096,-4.0096,-4.0096,-4.0096,-4.0096,-4.0096,-4.0096,-4.0096,-4.0976,-4.2202,-4.2202,-4.3166,-4.4513,-4.4615,-4.4615,-4.4615,-4.4615,-4.4615,-4.4615,-4.4615,-4.5077,-4.5466,-4.5466,-4.6092,-4.6549,-4.6549,-4.6701,-4.6786,-4.6786,-4.7344,-4.7919,-4.8494,-4.8528,-4.8528,-4.8528,-4.8528,-4.8189,-4.7432,-4.687,-4.6549,-4.6549,-4.6549,-4.6633,-4.6786,-4.6633,-4.665,-4.6786,-4.6464,-4.6481,-4.6786,-4.6616,-4.665,-4.6786,-4.6786,-4.6786,-4.6786,-4.6786,-4.6786,-4.6786,-4.6786,-4.6786,-4.6769,-4.6616,-4.6447,-4.6312,-4.6312,-4.5923,-4.5466,-4.5466,-4.5043,-4.4615,-4.4615,-4.4615,-4.4615,-4.4615,-4.4479,-4.413,-4.3352,-4.2591,-4.2049,-4.2049,-4.1914,-4.1644,-4.1068,-4.0967,-4.0764,-4.0197,-4.0096,-4.0096,-4.0096,-4.0096,-4.0096,-4.0096,-4.0096,-4.0096,-4.0096,-4.0096,-4.0096,-4.0096,-4.0096,-4.0096,-4.0096,-4.0096,-4.0096,-4.0096,-4.0096,-4.0096,-4.0096,-4.0096,-4.0096,-4.0096,-4.0096,-4.0096,-4.0096,-4.0096,-4.0096,-4.0096,-4.0096,-4.0096,-4.0096,-4.0096,-4.0096,-4.0096,-4.0096,-4.0646,-4.1441,-4.1441,-4.2388,-4.3758,-4.4615,-4.4615,-4.4615,-4.4615,-4.4615,-4.4615,-4.4615,-4.5229,-4.5703,-4.5703,-4.665,-4.7327,-4.7327,-4.7648,-4.7851,-4.7851,-4.8206,-4.8595,-4.8984,-4.9001,-4.9001,-4.9001,-4.9001,-4.8832,-4.8443,-4.8054,-4.7682,-4.7327,-4.7327,-4.7496,-4.7834,-4.7496,-4.7513,-4.7817,-4.7107,-4.7192,-4.7834,-4.7479,-4.753,-4.7851,-4.7851,-4.7851,-4.7851,-4.7851,-4.7851,-4.7851,-4.7851,-4.7614,-4.7327,-4.7327,-4.709,-4.6786,-4.6786,-4.6532,-4.6227,-4.6227,-4.5703,-4.5111,-4.5111,-4.4886,-4.4615,-4.4615,-4.4615,-4.4496,-4.4062,-4.3386,-4.2828,-4.2828,-4.254,-4.2168,-4.1796,-4.1728,-4.1474,-4.073,-4.0612,-4.0493,-4.0146,-4.0096,-4.0096,-4.0096,-4.0096,-4.0096,-4.0096,-4.0096,-4.0096,-4.0096,-4.0096,-4.0096,-4.0096,-4.0096,-4.0096,-4.0096,-4.0096,-4.0096,-4.0096,-4.0096,-4.0096,-4.0096,-4.0096,-4.0096,-4.0096,-4.0096,-4.0096,-4.0096,-4.0096,-4.0096,-4.0096,-4.0096,-4.0096,-4.0096,-4.0096,-4.0544,-4.1204,-4.1204,-4.1914,-4.2997,-4.4615,-4.4615,-4.4615,-4.4615,-4.4615,-4.4649,-4.4784,-4.5399,-4.594,-4.6075,-4.7259,-4.8075,-4.8075,-4.8646,-4.9001,-4.9001,-4.9001,-4.9001,-4.9001,-4.9001,-4.9001,-4.9001,-4.9001,-4.9001,-4.9001,-4.9001,-4.8714,-4.8075,-4.8075,-4.8409,-4.8984,-4.8392,-4.8426,-4.8951,-4.7716,-4.7851,-4.8968,-4.8359,-4.846,-4.9001,-4.9001,-4.9001,-4.9001,-4.9001,-4.9001,-4.9001,-4.9001,-4.8612,-4.8075,-4.8075,-4.7682,-4.7175,-4.7175,-4.709,-4.6989,-4.6989,-4.6464,-4.5872,-4.5737,-4.5246,-4.4767,-4.4632,-4.4615,-4.4615,-4.4615,-4.4079,-4.3623,-4.3623,-4.3115,-4.2642,-4.2506,-4.2489,-4.2252,-4.1508,-4.139,-4.117,-4.057,-4.0485,-4.0485,-4.0485,-4.0367,-4.0248,-4.0113,-4.0096,-4.0096,-4.0096,-4.0096,-4.0096,-4.0096,-4.0096,-4.0096,-4.0096,-4.0096,-4.0096,-4.0096,-4.0096,-4.0096,-4.0096,-4.0096,-4.0096,-4.0096,-4.0096,-4.0096,-4.0096,-4.0096,-4.0096,-4.0096,-4.0096,-4.0096,-4.0096,-4.0096,-4.046,-4.1035,-4.1153,-4.1593,-4.2219,-4.4615,-4.4615,-4.4615,-4.4615,-4.4615,-4.4835,-4.5449,-4.6177,-4.687,-4.753,-4.8342,-4.8849,-4.8849,-4.8951,-4.9001,-4.9001,-4.9001,-4.9001,-4.9001,-4.9001,-4.9001,-4.9001,-4.9001,-4.9001,-4.9001,-4.9001,-4.8951,-4.8849,-4.8849,-4.89,-4.9001,-4.89,-4.89,-4.8984,-4.8798,-4.8815,-4.9001,-4.89,-4.8917,-4.9001,-4.9001,-4.9001,-4.9001,-4.9001,-4.9001,-4.9001,-4.9001,-4.8951,-4.8849,-4.8849,-4.8781,-4.8697,-4.8697,-4.8274,-4.7736,-4.7736,-4.7242,-4.6498,-4.5872,-4.5635,-4.5399,-4.4767,-4.4615,-4.4615,-4.4615,-4.453,-4.4445,-4.4445,-4.4378,-4.4062,-4.3386,-4.324,-4.3014,-4.2269,-4.2151,-4.2117,-4.1999,-4.1982,-4.1982,-4.1982,-4.1441,-4.0798,-4.0163,-4.0096,-4.0096,-4.0096,-4.0096,-4.0096,-4.0096,-4.0096,-4.0096,-4.0096,-4.0096,-4.0096,-4.0096,-4.0096,-4.0096,-4.0096,-4.0096,-4.0096,-4.0096,-4.0096,-4.0096,-4.0096,-4.0096,-4.0096,-4.0096,-4.0096,-4.0096,-4.0096,-4.0096,-4.0163,-4.0333,-4.0967,-4.1271,-4.1457,-4.4615,-4.4615,-4.4615,-4.4615,-4.4615,-4.4869,-4.5602,-4.6329,-4.7056,-4.7787,-4.8545,-4.9001,-4.9001,-4.9001,-4.9001,-4.9001,-4.9001,-4.9001,-4.9001,-4.9001,-4.9001,-4.9001,-4.9001,-4.9001,-4.9001,-4.9001,-4.9001,-4.9001,-4.9001,-4.9001,-4.9001,-4.9001,-4.9001,-4.9001,-4.9001,-4.9001,-4.9001,-4.9001,-4.9001,-4.9001,-4.9001,-4.9001,-4.9001,-4.9001,-4.9001,-4.9001,-4.9001,-4.9001,-4.9001,-4.9001,-4.9001,-4.9001,-4.9001,-4.8781,-4.8528,-4.8528,-4.8003,-4.7344,-4.7022,-4.6633,-4.6143,-4.5399,-4.5213,-4.5094,-4.4699,-4.4615,-4.4615,-4.4615,-4.4615,-4.4496,-4.413,-4.4062,-4.3809,-4.3047,-4.2912,-4.2777,-4.2354,-4.2286,-4.2286,-4.2286,-4.1644,-4.1068,-4.0747,-4.035,-4.0096,-4.0096,-4.0096,-4.0096,-4.0096,-4.0096,-4.0096,-4.0096,-4.0096,-4.0096,-4.0096,-4.0096,-4.0096,-4.0096,-4.0096,-4.0096,-4.0096,-4.0096,-4.0096,-4.0096,-4.0096,-4.0096,-4.0096,-4.0096,-4.0096,-4.0096,-4.0096,-4.0096,-4.0146,-4.0485,-4.0578,-4.0679]},{"header":{"parameterUnit":"m.s-1","parameterCategory":1,"la1":30.6,"la2":28.766,"lo1":-90.7593,"lo2":-88.6598,"dy":0.0162,"dx":0.0183,"nx":116,"ny":114,"refTime":"2024-06-30T00:00:00:Z","depth":0,"parameterNumber":3,"parameterNumberName":"V-component_of_WINDS"},"data":[0.0,0.0,0.0,0.0,0.0,0.0,0.0,0.0,0.0,0.0,0.0,0.0,0.0,0.0,0.0,0.0,0.0,0.0,0.0,0.0,0.0,0.0,0.0,0.0,0.0,0.0,0.0,0.0,0.0,0.0,0.0,0.0,0.0,0.0,0.0,0.0,0.0,0.0,0.0,0.0,0.0,0.0,0.0,0.0,0.0,0.0,0.0,0.0,0.0,0.0,0.0,0.0,0.0,0.0,0.0,0.0,0.0,0.0,0.0,0.0,0.0,0.0,0.0,0.0,0.0,0.0,0.0,0.0,0.0,0.0,0.0,0.0,0.0,0.0,0.0,0.0,0.0,0.0,0.0,0.0,0.0,0.0,0.0,0.0,0.0,0.0,0.0,0.0,0.0,0.0,0.0,0.0,0.0,0.0,0.0,0.0,0.0,0.0,0.0,0.0,0.0,0.0,0.0,0.0,0.0,0.0,0.0,0.0,0.0,0.0,0.0,0.0,0.0,0.0,0.0,0.0,0.0,0.0,0.0,0.0,0.0,0.0,0.0,0.0,0.0,0.0,0.0,0.0,0.0,0.0,0.0,0.0,0.0,0.0,0.0,0.0,0.0,0.0,0.0,0.0,0.0,0.0,0.0,0.0,0.0,0.0,0.0,0.0,0.0,0.0,0.0,0.0,0.0,0.0,0.0,0.0,0.0,0.0,0.0,0.0,0.0,0.0,0.0,0.0,0.0,0.0,0.0,0.0,0.0,0.0,0.0,0.0,0.0,0.0,0.0,0.0,0.0,0.0,0.0,0.0,0.0,0.0,0.0,0.0,0.0,0.0,0.0,0.0,0.0,0.0,0.0,0.0,0.0,0.0,0.0,0.0,0.0,0.0,0.0,0.0,0.0,0.0,0.0,0.0,0.0,0.0,0.0,0.0,0.0,0.0,0.0,0.0,0.0,0.0,0.0,0.0,0.0,0.0,0.0,0.0,0.0,0.0,0.0,0.0,0.0,0.0,0.0,0.0,0.0,0.0,0.0,0.0,0.0,0.0,0.0,0.0,0.0,0.0,0.0,0.0,0.0,0.0,0.0,0.0,0.0,0.0,0.0,0.0,0.0,0.0,0.0,0.0,0.0,0.0,0.0,0.0,0.0,0.0,0.0,0.0,0.0,0.0,0.0,0.0,0.0,0.0,0.0,0.0,0.0,0.0,0.0,0.0,0.0,0.0,0.0,0.0,0.0,0.0,0.0,0.0,0.0,0.0,0.0,0.0,0.0,0.0,0.0,0.0,0.0,0.0,0.0,0.0,0.0,0.0,0.0,0.0,0.0,0.0,0.0,0.0,0.0,0.0,0.0,0.0,0.0,0.0,0.0,0.0,0.0,0.0,0.0,0.0,0.0,0.0,0.0,0.0,0.0,0.0,0.0,0.0,0.0,0.0,0.0,0.0,0.0,0.0,0.0,0.0,0.0,0.0,0.0,0.0,0.0,0.0,0.0,0.0,0.0,0.0,0.0,0.0,0.0,0.0,0.0,0.0,0.0,0.0,0.0,0.0,0.0,0.0,0.0,0.0,0.0,0.0,0.0,0.0,0.0,0.0,0.0,0.0,0.0,0.0,0.0,0.0,0.0,0.0,0.0,0.0,0.0,0.0,0.0,0.0,0.0,0.0,0.0,0.0,0.0,0.0,0.0,0.0,0.0,0.0,0.0,0.0,0.0,0.0,0.0,0.0,0.0,0.0,0.0,0.0,0.0,0.0,0.0,0.0,0.0,0.0,0.0,0.0,0.0,0.0,0.0,0.0,0.0,0.0,0.0,0.0,0.0,0.0,0.0,0.0,0.0,0.0,0.0,0.0,0.0,0.0,0.0,0.0,0.0,0.0,0.0,0.0,0.0,0.0,0.0,0.0,0.0,0.0,0.0,0.0,0.0,0.0,0.0,0.0,0.0,0.0,0.0,0.0,0.0,0.0,0.0,0.0,0.0,0.0,0.0,0.0,0.0,0.0,0.0,0.0,0.0,0.0,0.0,0.0,0.0,0.0,0.0,0.0,0.0,0.0,0.0,0.0,0.0,0.0,0.0,0.0,0.0,0.0,0.0,0.0,0.0,0.0,0.0,0.0,0.0,0.0,0.0,0.0,0.0,0.0,0.0,0.0,0.0,0.0,0.0,0.0,0.0,0.0,0.0,0.0,0.0,0.0,0.0,0.0,0.0,0.0,0.0,0.0,0.0,0.0,0.0,0.0,0.0,0.0,0.0,0.0,0.0,0.0,0.0,0.0,0.0,0.0,0.0,0.0,0.0,0.0,0.0,0.0,0.0,0.0,0.0,0.0,0.0,0.0,0.0,0.0,0.0,0.0,0.0,0.0,0.0,0.0,0.0,0.0,0.0,0.0,0.0,0.0,0.0,0.0,0.0,0.0,0.0,0.0,0.0,0.0,0.0,0.0,0.0,0.0,0.0,0.0,0.0,0.0,0.0,0.0,0.0,0.0,0.0,0.0,0.0,0.0,0.0,0.0,0.0,0.0,0.0,0.0,0.0,0.0,0.0,0.0,0.0,0.0,0.0,0.0,0.0,0.0,0.0,0.0,0.0,0.0,0.0,0.0,0.0,0.0,0.0,0.0,0.0,0.0,0.0,0.0,0.0,0.0,0.0,0.0,0.0,0.0,0.0,0.0,0.0,0.0,0.0,0.0,0.0,0.0,0.0,0.0,0.0,0.0,0.0,0.0,0.0,0.0,0.0,0.0,0.0,0.0,0.0,0.0,0.0,0.0,0.0,0.0,0.0,0.0,0.0,0.0,0.0,0.0,0.0,0.0,0.0,0.0,0.0,0.0,0.0,0.0,0.0,0.0,0.0,0.0,0.0,0.0,0.0,0.0,0.0,0.0,0.0,0.0,0.0,0.0,0.0,0.0,0.0,0.0,0.0,0.0,0.0,0.0,0.0,0.0,0.0,0.0,0.0,0.0,0.0,0.0,0.0,0.0,0.0,0.0,0.0,0.0,0.0,0.0,0.0,0.0,0.0,0.0,0.0,0.0,0.0,0.0,0.0,0.0,0.0,0.0,0.0,0.0,0.0,0.0,0.0,0.0,0.0,0.0,0.0,0.0,0.0,0.0,0.0,0.0,0.0,0.0,0.0,0.0,0.0,0.0,0.0,0.0,0.0,0.0,0.0,0.0,0.0,0.0,0.0,0.0,0.0,0.0,0.0,0.0,0.0,0.0,0.0,0.0,0.0,0.0,0.0,0.0,0.0,0.0,0.0,0.0,0.0,0.0,0.0,0.0,0.0,0.0,0.0,0.0,0.0,0.0,0.0,0.0,0.0,0.0,0.0,0.0,0.0,0.0,0.0,0.0,0.0,0.0,0.0,0.0,0.0,0.0,0.0,0.0,0.0,0.0,0.0,0.0,0.0,0.0,0.0,0.0,0.0,0.0,0.0,0.0,0.0,0.0,0.0,0.0,0.0,0.0,0.0,0.0,0.0,0.0,0.0,0.0,0.0,0.0,0.0,0.0,0.0,0.0,0.0,0.0,0.0,0.0,0.0,0.0,0.0,0.0,0.0,0.0,0.0,0.0,0.0,0.0,0.0,0.0,0.0,0.0,0.0,0.0,0.0,0.0,0.0,0.0,0.0,0.0,0.0,0.0,0.0,0.0,0.0,0.0,0.0,0.0,0.0,0.0,0.0,0.0,0.0,0.0,0.0,0.0,0.0,0.0,0.0,0.0,0.0,0.0,0.0,0.0,0.0,0.0,0.0,0.0,0.0,0.0,0.0,0.0,0.0,0.0,0.0,0.0,0.0,0.0,0.0,0.0,0.0,0.0,0.0,0.0,0.0,0.0,0.0,0.0,0.0,0.0,0.0,0.0,0.0,0.0,0.0,0.0,0.0,0.0,0.0,0.0,0.0,0.0,0.0,0.0,0.0,0.0,0.0,0.0,0.0,0.0,0.0,0.0,0.0,0.0,0.0,0.0,0.0,0.0,0.0,0.0,0.0,0.0,0.0,0.0,0.0,0.0,0.0,0.0,0.0,0.0,0.0,0.0,0.0,0.0,0.0,0.0,0.0,0.0,0.0,0.0,0.0,0.0,0.0,0.0,0.0,0.0,0.0,0.0,0.0,0.0,0.0,0.0,0.0,0.0,0.0,0.0,0.0,0.0,0.0,0.0,0.0,0.0,0.0,0.0,0.0,0.0,0.0,0.0,0.0,0.0,0.0,0.0,0.0,0.0,0.0,0.0,0.0,0.0,0.0,0.0,0.0,0.0,0.0,0.0,0.0,0.0,0.0,0.0,0.0,0.0,0.0,0.0,0.0,0.0,0.0,0.0,0.0,0.0,0.0,0.0,0.0,0.0,0.0,0.0,0.0,0.0,0.0,0.0,0.0,0.0,0.0,0.0,0.0,0.0,0.0,0.0,0.0,0.0,0.0,0.0,0.0,0.0,0.0,0.0,0.0,0.0,0.0,0.0,0.0,0.0,0.0,0.0,0.0,0.0,0.0,0.0,0.0,0.0,0.0,0.0,0.0,0.0,0.0,0.0,0.0,0.0,0.0,0.0,0.0,0.0,0.0,0.0,0.0,0.0,0.0,0.0,0.0,0.0,0.0,0.0,0.0,0.0,0.0,0.0,0.0,0.0,0.0,0.0,0.0,0.0,0.0,0.0,0.0,0.0,0.0,0.0,0.0,0.0,0.0,0.0,0.0,0.0,0.0,0.0,0.0,0.0,0.0,0.0,0.0,0.0,0.0,0.0,0.0,0.0,0.0,0.0,0.0,0.0,0.0,0.0,0.0,0.0,0.0,0.0,0.0,0.0,0.0,0.0,0.0,0.0,0.0,0.0,0.0,0.0,0.0,0.0,0.0,0.0,0.0,0.0,0.0,0.0,0.0,0.0,0.0,0.0,0.0,0.0,0.0,0.0,0.0,0.0,0.0,0.0,0.0,0.0,0.0,0.0,0.0,0.0,0.0,0.0,0.0,0.0,0.0,0.0,0.0,0.0,0.0,0.0,0.0,0.0,0.0,0.0,0.0,0.0,0.0,0.0,0.0,0.0,0.0,0.0,0.0,0.0,0.0,0.0,0.0,0.0,0.0,0.0,0.0,0.0,0.0,0.0,0.0,0.0,0.0,0.0,0.0,0.0,0.0,0.0,0.0,0.0,0.0,0.0,0.0,0.0,0.0,0.0,0.0,0.0,0.0,0.0,0.0,0.0,0.0,0.0,0.0,0.0,0.0,0.0,0.0,0.0,0.0,0.0,0.0,0.0,0.0,0.0,0.0,0.0,0.0,0.0,0.0,0.0,0.0,0.0,0.0,0.0,0.0,0.0,0.0,0.0,0.0,0.0,0.0,0.0,0.0,0.0,0.0,0.0,0.0,0.0,0.0,0.0,0.0,0.0,0.0,0.0,0.0,0.0,0.0,0.0,0.0,0.0,0.0,0.0,0.0,0.0,0.0,0.0,0.0,0.0,0.0,0.0,0.0,0.0,0.0,0.0,0.0,0.0,0.0,0.0,0.0,0.0,0.0,0.0,0.0,0.0,0.0,0.0,0.0,0.0,0.0,0.0,0.0,0.0,0.0,0.0,0.0,0.0,0.0,0.0,0.0,0.0,0.0,0.0,0.0,0.0,0.0,0.0,0.0,0.0,0.0,0.0,0.0,0.0,0.0,0.0,0.0,0.0,0.0,0.0,0.0,0.0,0.0,0.0,0.0,0.0,0.0,0.0,0.0,0.0,0.0,0.0,0.0,0.0,0.0,0.0,0.0,0.0,0.0,0.0,0.0,0.0,0.0,0.0,0.0,0.0,0.0,0.0,0.0,0.0,0.0,0.0,0.0,0.0,0.0,0.0,0.0,0.0,0.0,0.0,0.0,0.0,0.0,0.0,0.0,0.0,0.0,0.0,0.0,0.0,0.0,0.0,0.0,0.0,0.0,0.0,0.0,0.0,0.0,0.0,0.0,0.0,0.0,0.0,0.0,0.0,0.0,0.0,0.0,0.0,0.0,0.0,0.0,0.0,0.0,0.0,0.0,0.0,0.0,0.0,0.0,0.0,0.0,0.0,0.0,0.0,0.0,0.0,0.0,0.0,0.0,0.0,0.0,0.0,0.0,0.0,1.5472,0.0,0.0,0.0,0.0,0.0,0.0,0.0,0.0,0.0,0.0,0.0,0.0,0.0,0.0,0.0,0.0,0.0,0.0,0.0,0.0,0.0,0.0,0.0,0.0,0.9685,1.0179,1.0431,1.081,1.1046,1.1087,0.0,0.0,0.0,0.0,0.0,1.1317,1.1641,1.1883,1.1977,1.252,1.3212,1.3986,1.3961,1.3215,1.1871,0.0,0.0,0.0,0.0,0.0,0.0,0.0,0.0,0.0,0.0,0.0,0.0,0.0,0.0,0.0,0.0,0.0,0.0,0.0,0.0,0.0,0.0,0.0,0.0,0.0,0.0,0.0,0.0,0.0,0.0,0.0,0.0,0.0,0.0,0.0,0.0,0.0,0.0,0.0,0.0,0.0,0.0,0.0,0.0,0.0,0.0,0.0,0.0,0.0,0.0,0.0,0.0,0.0,0.0,0.0,0.0,0.0,0.0,0.0,0.0,0.0,0.0,0.0,0.0,0.0,0.0,0.0,0.0,0.0,0.0,0.0,1.6475,0.0,0.0,0.0,0.0,0.0,0.0,0.0,0.0,0.0,0.0,0.0,0.0,0.0,0.0,0.0,0.0,0.0,0.0,0.0,0.0,0.0,0.8901,0.9056,0.9997,1.0655,1.0751,1.1306,1.1583,1.1392,1.1674,0.0,0.0,0.0,1.1683,1.1572,1.2189,1.2643,1.2914,1.4068,1.5153,1.6145,1.6676,1.6011,1.4325,1.3955,0.0,0.0,0.0,0.0,0.0,0.0,0.0,0.0,0.0,0.0,0.0,0.0,0.0,0.0,0.0,0.0,0.0,0.0,0.0,0.0,0.0,0.0,0.0,0.0,0.0,0.0,0.0,0.0,0.0,0.0,0.0,0.0,0.0,0.0,0.0,0.0,0.0,0.0,0.0,0.0,0.0,0.0,0.0,0.0,0.0,0.0,0.0,0.0,0.0,0.0,0.0,0.0,0.0,0.0,0.0,0.0,0.0,0.0,0.0,0.0,0.0,0.0,0.0,2.1016,2.1437,2.209,2.1728,2.1531,2.1405,1.9433,1.836,1.7994,0.0,0.0,0.0,0.0,0.0,0.0,0.0,0.0,0.0,0.0,0.0,0.0,0.0,0.0,0.0,0.0,0.0,0.0,0.0,0.0,0.8925,0.9692,1.0321,1.0981,1.1745,1.21,1.2131,1.1749,1.1885,0.0,0.0,1.1818,1.2225,1.3009,1.3221,1.3848,1.4914,1.6182,1.7162,1.789,1.8418,1.8757,1.8857,1.6914,1.5517,1.4532,0.0,0.0,0.0,0.0,0.0,0.0,0.0,0.0,0.0,0.0,0.0,0.0,0.0,0.0,0.0,0.0,0.0,0.0,0.0,0.0,0.0,0.0,0.0,0.0,0.0,0.0,0.0,0.0,0.0,0.0,0.0,0.0,0.0,0.0,0.0,0.0,0.0,0.0,0.0,0.0,0.0,1.5148,1.6078,0.0,0.0,0.0,0.0,0.0,0.0,0.0,0.0,0.0,0.0,0.0,0.0,0.0,0.0,2.0263,2.1465,2.2148,2.2256,2.2637,2.2924,2.3041,2.292,2.2847,2.2828,2.2519,0.0,1.9588,1.9193,0.0,0.0,0.0,0.0,0.0,0.0,0.0,0.0,0.0,0.0,0.0,0.0,0.0,0.0,0.0,0.0,0.0,0.0,0.0,0.0,0.0,1.0905,1.1497,1.1804,1.2005,1.201,1.1754,1.1686,1.1688,1.1742,1.194,1.2347,1.295,1.4011,1.5408,1.7137,1.8103,1.8921,1.9623,2.015,2.0526,2.0702,1.9748,1.8355,1.6732,1.6179,0.0,0.0,0.0,0.0,0.0,0.0,0.0,0.0,0.0,0.0,0.0,0.0,0.0,0.0,0.0,0.0,0.0,0.0,0.0,0.0,0.0,0.0,0.0,0.0,0.0,0.0,0.0,0.0,0.0,0.0,0.0,0.0,0.0,0.0,0.0,0.0,0.0,0.0,0.0,1.5641,1.6907,1.7295,1.6867,1.6524,0.0,0.0,0.0,0.0,0.0,0.0,0.0,0.0,0.0,2.0518,2.1494,2.2246,2.2725,2.3545,2.4199,2.4687,2.4639,2.4736,2.4961,2.4453,2.4219,2.4209,2.3965,2.332,2.2353,2.1221,2.0127,1.9118,0.0,0.0,0.0,0.0,0.0,1.8017,0.0,0.0,0.0,0.0,0.0,0.0,0.0,0.0,0.0,0.0,0.0,0.0,1.0646,1.1558,1.2193,1.2309,1.2354,1.2258,0.0,0.0,1.1736,1.1778,1.2074,1.2505,1.3044,1.5084,1.7002,1.8755,1.9721,2.0563,2.1333,2.187,2.2209,2.2334,2.2334,2.1041,1.8794,1.8091,1.6706,0.0,0.0,0.0,0.0,0.0,0.0,0.0,0.0,0.0,0.0,0.0,0.0,0.0,0.0,0.0,0.0,0.0,0.0,0.0,0.0,0.0,0.0,0.0,0.0,0.0,0.0,0.0,0.0,0.0,0.0,0.0,0.0,0.0,0.0,0.0,0.0,0.0,0.0,1.7263,1.8199,1.8564,1.8107,1.7783,0.0,0.0,0.0,0.0,0.0,0.0,2.0518,2.1201,2.1992,2.2969,2.3633,2.4277,2.4912,2.5352,2.5898,2.6543,2.6221,2.624,2.6523,2.5869,2.5508,2.5391,2.5059,2.4795,2.4473,2.2988,2.1924,2.1143,2.04,1.9844,1.9426,1.9426,1.9678,2.001,0.0,0.0,0.0,0.0,0.0,0.0,0.0,0.0,0.0,0.0,0.0,1.0107,1.14,0.0,1.316,1.3909,1.3746,1.3417,0.0,0.0,1.2375,1.1997,1.2245,1.2891,1.4025,1.6743,1.8484,1.9164,2.0941,2.2191,2.2995,2.3602,2.4155,2.4625,2.4625,2.3125,2.049,1.9397,1.8279,1.7096,0.0,0.0,0.0,0.0,0.0,0.0,0.0,0.0,0.0,0.0,0.0,0.0,0.0,0.0,0.0,0.0,0.0,0.0,0.0,0.0,0.0,0.0,0.0,0.0,0.0,0.0,0.0,0.0,0.0,0.0,0.0,0.0,0.0,0.0,0.0,0.0,0.0,0.0,0.0,2.0299,1.9645,0.0,0.0,0.0,0.0,2.0321,2.081,2.1414,2.2334,2.3555,2.4258,2.4316,2.5557,2.625,2.6289,2.6709,2.6943,2.6982,2.6963,2.6963,2.6982,2.6934,2.6699,2.6318,2.6299,2.581,2.5008,2.4062,2.3428,2.2925,2.2519,2.209,2.1719,2.1719,2.1738,2.1816,0.0,0.0,0.0,0.5351,0.5926,0.6394,0.6394,0.7393,0.8301,0.8721,0.9737,1.0819,0.0,1.2764,1.3516,1.4055,1.3776,1.3498,1.3341,0.0,1.2329,1.226,1.2673,1.3865,1.5928,1.7578,1.9206,2.0813,2.1976,2.3044,2.4016,2.4227,2.4491,2.4788,2.4788,2.4268,2.3238,2.1741,2.0073,1.8355,1.74,1.6132,0.0,0.0,0.0,0.0,0.0,0.0,0.0,0.0,0.0,0.0,0.0,0.0,0.0,0.0,0.0,0.0,0.0,0.0,0.0,0.0,0.0,0.0,0.0,0.0,0.0,0.0,0.0,0.0,0.0,0.0,0.0,0.0,0.0,0.0,0.0,0.0,0.0,2.184,2.1475,0.0,0.0,2.1318,2.1318,2.1787,2.2725,2.3545,2.4131,2.5127,2.581,2.6084,2.6543,2.6924,2.7207,2.7363,2.7568,2.7832,2.7559,2.7432,2.7422,2.7148,2.6934,2.6797,2.6797,2.6465,2.5898,2.5586,2.4873,2.39,2.3799,2.3643,2.3516,2.3516,2.3516,2.3496,0.5098,0.5098,0.0,0.5098,0.5829,0.6394,0.6394,0.7529,0.859,0.9123,1.0186,1.1336,1.2506,1.3276,1.3919,1.4494,1.4016,1.3695,1.3695,0.0,1.2533,1.2752,1.3631,1.5057,1.7056,1.8401,1.9954,2.1719,2.2799,2.3817,2.469,2.4954,2.5174,2.5372,2.5372,2.5272,2.5008,2.3891,2.2146,2.0048,1.9334,1.8041,1.6497,0.0,0.0,0.0,0.0,0.0,0.0,0.0,0.0,0.0,0.0,0.0,0.0,0.0,0.0,0.0,0.0,0.0,0.0,0.0,0.0,0.0,0.0,0.0,0.0,0.0,0.0,0.0,0.0,0.0,0.0,0.0,0.0,0.0,0.0,0.0,2.2205,2.3152,2.3018,2.3001,2.332,2.3369,2.3496,2.3799,2.4609,2.5273,2.5703,2.6416,2.6953,2.7226,2.7373,2.7588,2.7881,2.7881,2.8018,2.8291,2.8008,2.7881,2.7861,2.7578,2.7373,2.7236,2.7236,2.6992,2.6592,2.6445,2.5869,2.5068,2.4922,2.4775,2.4639,2.4639,2.4541,2.4375,0.5098,0.5098,0.5098,0.5098,0.5829,0.6394,0.6394,0.7553,0.8701,0.9485,1.0371,1.1582,1.332,1.386,1.4445,1.5303,1.4601,1.4104,1.4104,1.3359,1.3096,1.3545,1.5071,1.6348,1.7326,1.922,2.073,2.1807,2.3405,2.4508,2.5136,2.5849,2.6305,2.6499,2.6499,2.6185,2.5624,2.5598,2.4368,2.2322,2.1219,1.9786,1.8304,0.0,0.0,0.0,0.0,0.0,0.0,0.0,0.0,0.0,0.0,0.0,0.0,0.0,0.0,0.0,0.0,0.0,0.0,0.0,0.0,0.0,0.0,0.0,0.0,0.0,0.0,0.0,0.0,0.0,0.0,0.0,0.0,0.0,2.2186,2.2469,2.3114,2.4289,2.4287,2.4408,2.5086,2.5174,2.5488,2.6348,2.6426,2.6602,2.7012,2.7461,2.7757,2.7757,2.8115,2.833,2.831,2.831,2.8301,2.8291,2.8291,2.8291,2.8291,2.8291,2.8066,2.7738,2.7738,2.7441,2.7002,2.6592,2.6426,2.6367,2.5869,2.5469,2.5135,2.5135,2.4814,2.4434,0.5098,0.5098,0.5098,0.5098,0.5829,0.6394,0.6394,0.7783,0.9023,0.9524,1.0654,1.1946,1.335,1.386,1.4445,1.5303,1.4601,1.4104,1.4104,1.3633,1.3799,1.4844,1.5703,1.6818,1.8139,1.9588,2.0933,2.2158,2.3246,2.4282,2.5247,2.5615,2.6037,2.6499,2.6499,2.6411,2.6223,2.5774,2.5247,2.4556,2.3062,2.1707,2.0539,0.0,0.0,0.0,0.0,0.0,0.0,0.0,0.0,0.0,0.0,0.0,0.0,0.0,0.0,0.0,0.0,0.0,0.0,0.0,0.0,0.0,0.0,0.0,0.0,0.0,0.0,0.0,0.0,0.0,0.0,0.0,0.0,2.2676,2.2635,2.3545,2.4534,2.5528,2.5423,2.5585,2.6396,2.6484,2.6582,2.6826,2.7139,2.7415,2.748,2.8174,2.8574,2.8574,2.8994,2.9072,2.875,2.875,2.8594,2.8291,2.8291,2.8291,2.8291,2.8291,2.8232,2.8125,2.8125,2.7881,2.748,2.7415,2.7129,2.6768,2.5976,2.5615,2.5557,2.5557,2.5273,2.4893,0.5098,0.5098,0.5098,0.5098,0.5829,0.6394,0.6394,0.7881,0.9219,0.9824,1.089,1.2083,1.3359,1.3695,1.4114,1.4796,1.4231,1.3919,1.4094,1.4211,1.4639,1.5381,1.6512,1.7641,1.8708,1.9936,2.1157,2.2356,2.308,2.4057,2.5194,2.5465,2.5921,2.6499,2.6499,2.6499,2.6474,2.6135,2.5996,2.585,2.4644,2.3514,2.2485,2.1907,2.0815,1.9547,1.9321,1.8656,1.7727,1.6635,0.0,0.0,0.0,0.0,0.0,0.0,0.0,0.0,0.0,0.0,0.0,0.0,0.0,0.0,0.0,0.0,0.0,0.0,0.0,0.0,0.0,0.0,0.0,0.0,2.3867,2.4546,2.4318,2.4909,2.5551,2.6172,2.6418,2.6738,2.7236,2.7451,2.7549,2.7549,2.7949,2.8193,2.8193,2.8828,2.9189,2.9189,2.9443,2.9443,2.9189,2.9189,2.8975,2.8555,2.8555,2.8467,2.8291,2.8291,2.8291,0.0,2.8291,2.8154,2.792,2.7796,2.7519,0.0,0.0,0.0,0.0,0.0,2.5566,2.5352,0.5098,0.5098,0.5117,0.5176,0.5858,0.6426,0.6475,0.792,0.9297,1.0098,1.1038,1.2064,1.3301,1.3477,1.3656,1.4075,1.3724,1.3656,1.4075,1.4903,1.5478,1.5625,1.7359,1.8577,1.9098,2.0216,2.1281,2.2289,2.2889,2.3801,2.4933,2.5347,2.5923,2.6553,2.6587,2.6612,2.6675,2.6612,2.6587,2.6537,2.5925,2.5084,2.4117,2.3509,2.2606,2.1606,2.1144,2.0566,1.9836,1.8819,0.0,0.0,0.0,0.0,0.0,0.0,0.0,0.0,0.0,0.0,0.0,0.0,0.0,0.0,0.0,0.0,0.0,0.0,0.0,0.0,0.0,0.0,0.0,0.0,2.5725,2.6686,2.6557,2.6376,2.6369,2.6534,2.7258,2.7738,2.7787,2.8076,2.831,2.8359,2.8711,2.8945,2.8994,0.0,0.0,0.0,0.0,2.9697,2.9695,2.9695,2.9424,2.8994,2.8945,2.8721,2.8359,2.831,2.8291,2.8291,2.8291,2.8291,2.8262,2.7891,2.7767,2.763,2.6728,2.6387,2.6338,2.5849,2.5693,2.5693,0.5098,0.5098,0.5224,0.5606,0.6074,0.6533,0.6914,0.8125,0.9172,0.9669,1.0831,1.1946,1.2925,1.3301,1.3656,1.4075,1.3724,1.3656,0.0,0.0,1.5889,1.6953,1.8012,1.8913,1.9732,2.0328,2.0989,2.1655,2.2289,2.3165,2.436,2.5052,2.5895,2.6928,2.7082,2.7369,2.7758,2.7318,2.7165,2.7115,2.6549,2.5921,2.5234,2.4662,2.376,2.2782,2.2669,2.2008,2.1054,2.0427,1.9837,1.912,1.794,0.0,0.0,0.0,0.0,0.0,0.0,0.0,0.0,0.0,0.0,0.0,0.0,0.0,0.0,0.0,0.0,0.0,0.0,0.0,0.0,2.5935,2.6393,2.6627,2.7132,2.7306,2.7418,2.7454,2.762,2.7855,2.8135,2.8242,2.8437,2.8769,2.8877,2.9072,2.9424,2.9844,0.0,3.0078,3.0439,3.0459,3.0078,3.0078,2.9863,2.9443,0.0,0.0,2.8789,2.8447,2.8291,2.8291,2.8291,2.8291,2.8281,2.8203,2.7969,2.763,2.6728,2.6387,2.6338,2.5849,2.5693,2.5693,0.5098,0.5098,0.5244,0.5714,0.6123,0.6562,0.7031,0.8008,0.8916,0.9515,1.0381,1.1271,1.2142,1.2436,1.2705,1.312,1.3549,0.0,0.0,1.5439,1.6531,1.7646,1.8506,1.9258,1.9902,2.038,2.0886,2.1502,2.1987,2.2879,2.4068,2.4977,2.5853,2.6697,2.7282,2.7713,2.795,2.7784,2.7544,2.7291,2.7014,2.6575,2.5996,2.5423,2.4858,2.4261,2.3722,2.3213,2.2611,2.1769,2.1292,2.0865,1.9773,1.8844,1.794,0.0,0.0,0.0,0.0,0.0,0.0,0.0,0.0,0.0,0.0,0.0,0.0,0.0,0.0,2.3285,0.0,0.0,2.5396,2.6418,2.6947,2.7281,2.7523,2.781,2.7953,2.7738,2.7851,2.8066,2.8271,2.8476,2.8691,2.8896,2.9316,2.9648,2.9873,3.0303,3.0547,3.0547,3.0771,3.0781,3.0547,3.0547,3.0322,2.9883,2.9668,2.9453,2.9238,2.8799,2.8603,2.8594,2.8389,2.8291,2.8291,2.8291,2.8164,2.792,2.7275,2.6768,2.6367,2.6143,2.5879,2.5693,0.5098,0.5176,0.538,0.5831,0.6182,0.6579,0.7139,0.7896,0.8639,0.9279,0.9912,1.0567,1.1273,1.1508,1.176,0.0,0.0,0.0,0.0,1.6006,1.7116,1.8086,1.8877,1.9521,2.0029,2.0429,2.0838,2.1397,2.1845,2.259,2.3641,2.4805,2.5688,2.6359,2.7323,2.7866,2.8064,2.8063,2.7809,2.7419,2.7241,2.6889,2.6436,2.5824,2.5536,2.5335,2.4469,2.4017,2.369,2.2786,2.2472,2.2297,2.1333,2.0616,1.9936,1.897,1.8216,0.0,0.0,0.0,0.0,0.0,0.0,0.0,0.0,0.0,2.4661,2.4541,2.5447,2.6199,2.6012,2.6518,2.6882,2.6729,2.742,2.7894,2.7826,2.8086,2.8164,2.7885,2.8086,2.8291,2.8291,2.8672,2.8955,2.9033,2.9766,3.0234,3.0322,3.0684,3.0889,3.0889,3.0889,3.0889,3.0889,3.0889,3.0703,3.0332,3.0234,3.0019,2.9678,2.9238,2.9004,2.8896,2.8476,2.8291,2.8291,2.8291,2.8291,2.8262,2.792,2.7314,2.6611,2.6455,2.6162,2.5801,0.5098,0.5439,0.5851,0.626,0.6365,0.6677,0.7515,0.8066,0.8424,0.8522,0.9569,1.0342,1.043,1.1145,1.176,1.2164,1.3032,0.0,1.4764,1.6006,1.7252,1.8481,1.9033,1.9668,2.0517,2.0576,2.0731,2.0984,2.154,2.2111,2.2601,2.4037,2.5191,2.6071,2.7227,2.8169,2.8897,2.8164,2.7901,2.7921,2.6977,2.6549,2.6436,2.5824,2.531,2.4863,2.4738,2.4048,2.3183,2.3058,2.3007,2.2907,2.2322,2.1744,2.1179,2.0591,0.0,1.9133,2.0627,2.2485,2.3985,2.4111,2.4785,2.5458,0.0,0.0,2.5847,2.6308,2.6757,2.7126,2.7277,2.7349,2.7489,2.7768,2.7767,2.7845,2.8174,2.8262,2.8271,2.8232,2.8262,2.8291,2.8291,2.8672,2.9082,2.9473,2.9932,3.0371,3.0791,3.0859,3.0889,3.0889,3.0889,3.0889,3.0889,3.0889,3.0859,3.081,3.0391,3.0176,3.0107,2.9687,2.9287,2.8896,2.8476,2.8291,2.8291,2.8291,2.8291,2.8291,2.8242,2.7939,2.7483,2.667,2.6357,2.626,0.5098,0.5479,0.5919,0.6328,0.6631,0.7008,0.7608,0.7866,0.8086,0.8356,0.907,0.9629,0.9873,1.0674,1.1357,1.1797,1.2861,1.3877,1.4727,1.6006,1.7165,1.8223,1.8926,1.957,2.0176,2.0478,2.0693,2.0906,2.1282,2.1655,2.2084,2.3368,2.4425,2.5356,2.6745,2.7696,2.829,2.8248,2.8026,2.7595,2.7165,2.6575,2.5971,2.5686,2.487,2.381,2.381,2.3509,0.0,0.0,2.2184,2.2133,2.1907,2.1895,2.1857,2.1333,2.1224,0.0,2.2737,2.4248,0.0,0.0,2.6761,2.7384,2.7537,2.7679,2.7747,2.7662,2.7724,2.7767,2.7524,2.7651,2.78,0.0,2.7976,2.8096,2.8271,2.8291,2.8291,2.8291,2.8291,2.8291,2.8291,2.8906,2.9375,2.9616,3.0215,3.0684,3.0879,3.0889,3.0889,3.0889,3.0889,3.0889,3.0889,3.0889,3.0889,3.0889,3.0693,3.0605,3.0586,3.0137,2.956,2.8906,2.873,2.8525,2.8291,2.8291,2.8291,2.8291,2.8291,2.8184,2.793,2.707,2.6602,2.6328,0.5263,0.5654,0.6095,0.6523,0.6973,0.7359,0.7656,0.7695,0.7866,0.8336,0.874,0.9192,0.9737,1.0371,1.0957,1.1557,1.2539,1.3613,1.4745,1.5781,1.6824,1.7959,1.8603,1.9238,1.9902,2.0225,2.0526,2.0819,2.1012,2.1282,2.1589,2.265,2.3587,2.4414,2.5823,2.6796,2.7438,2.7813,2.7704,2.7304,2.7153,2.6499,2.5561,2.5272,2.4318,2.3108,2.3108,2.2807,0.0,0.0,2.1282,2.1282,2.1282,2.1644,2.2033,2.1738,2.2474,2.3557,2.4361,0.0,0.0,2.7227,2.7929,2.855,2.8621,2.8657,2.86,2.8211,2.8099,2.7935,2.7406,2.7582,0.0,2.7699,2.792,2.8164,2.8271,2.8291,2.8291,2.8291,2.8291,2.8291,2.8291,2.8955,2.9443,2.9616,3.0273,3.0752,3.0889,3.0889,3.0889,3.0889,3.0889,3.0889,3.0889,3.0889,3.0889,3.0889,3.0889,3.0889,3.0869,3.041,2.9795,2.9092,2.8975,2.8682,2.8291,2.8291,2.8291,2.8291,2.8291,2.8291,2.8203,2.7471,2.6924,2.6504,0.5685,0.6094,0.6533,0.7002,0.7418,0.7686,0.7695,0.7695,0.7866,0.8336,0.874,0.9326,1.0195,1.0303,1.0665,1.1528,1.1992,1.2964,1.4705,1.5205,1.6221,1.7939,1.8037,1.8633,1.9883,1.9922,2.0137,2.0605,2.0819,2.0906,2.0955,2.1834,2.2587,2.3292,2.4364,2.5538,2.6637,2.6517,2.6806,2.7231,2.6738,2.616,2.5485,2.4443,2.3634,2.3108,2.3108,0.0,0.0,0.0,2.0717,2.0717,2.0717,2.1094,0.0,2.1973,2.3285,0.0,0.0,0.0,2.8271,2.8016,2.8427,2.8887,2.8955,2.8286,2.7643,2.761,2.7593,2.7376,2.6903,2.7172,2.7456,2.765,2.7728,2.7822,2.8232,2.8291,2.8291,2.8291,2.8291,2.8291,0.0,2.8682,2.9111,2.9597,2.9971,3.042,3.0869,3.0889,3.0889,3.0889,3.0889,3.0889,3.0889,3.0889,3.0889,3.0889,3.0889,3.0889,3.0869,3.041,2.9961,2.9531,2.9101,2.8682,2.8291,2.8291,2.8291,2.8291,2.8291,2.8291,2.8242,2.7803,2.7373,2.6934,0.5704,0.6125,0.6553,0.7021,0.7437,0.7695,0.7695,0.7695,0.7866,0.8336,0.8984,0.0,0.0,0.0,0.0,0.0,1.1784,1.2574,1.3492,1.4707,1.5674,1.626,1.7129,1.793,1.8633,1.889,1.9277,1.9754,1.9801,1.9838,1.9848,2.0275,2.0982,2.1891,2.2813,2.379,2.4814,2.5202,2.5465,2.5636,2.5448,2.4808,2.3898,2.3534,2.2355,2.0901,0.0,0.0,0.0,0.0,1.9271,1.9572,1.9572,0.0,0.0,2.301,0.0,2.4909,0.0,0.0,2.7444,2.8265,2.8362,2.8243,2.8329,2.7836,2.7186,2.677,2.6625,2.6413,2.6,2.6399,2.6829,2.7168,2.748,2.7812,2.8232,2.8291,2.8291,2.8291,2.8291,0.0,0.0,0.0,0.0,2.9531,2.9961,3.04,3.0869,3.0889,3.0889,3.0889,3.0889,3.0889,3.0889,3.0889,3.0889,3.0889,3.0889,3.0889,3.0889,3.0732,3.0264,2.956,2.9414,2.8945,2.8291,2.8291,2.8291,2.8291,2.8291,2.8291,2.8271,2.8135,2.7627,2.6953,0.5929,0.6357,0.6797,0.7232,0.752,0.0,0.0,0.0,0.0,0.0,0.0,0.0,0.0,0.0,0.0,0.0,0.0,1.208,1.2856,1.3896,1.4707,1.5166,1.6143,1.6953,1.7506,1.7935,1.8398,1.8828,1.8828,1.8828,1.8828,1.897,1.951,2.0364,2.1051,2.1921,2.2975,2.3478,2.3855,2.4135,2.4135,2.3603,2.2769,2.2397,2.123,0.0,0.0,0.0,0.0,0.0,0.0,0.0,0.0,0.0,0.0,0.0,0.0,2.5024,0.0,2.6951,2.7364,2.8099,2.8054,2.7811,2.7746,2.7164,2.6445,2.5801,2.5495,2.5177,2.4947,2.5348,2.5928,2.667,2.7158,2.7685,2.8418,2.8516,2.8574,2.873,2.875,2.875,0.0,0.0,0.0,2.9607,2.9961,3.04,3.0869,3.0889,3.0889,3.0889,3.0889,3.0889,3.0889,3.0889,3.0889,3.0889,3.0889,3.0889,3.0889,3.0889,3.041,2.9626,2.9626,2.9082,2.8291,2.8291,2.8291,2.8291,2.8291,2.8291,2.8291,2.8291,2.7754,2.6973,0.6328,0.6787,0.7236,0.0,0.0,0.0,0.0,0.0,0.0,0.0,0.0,0.0,0.0,0.0,0.0,0.0,0.0,0.0,1.2719,1.2866,0.0,1.4666,1.5107,1.5722,1.658,1.7041,1.7451,1.7881,1.7881,1.7881,1.7881,1.7881,1.814,1.8675,1.9083,1.9954,2.1103,2.1428,2.2029,2.2754,2.2717,2.2471,2.2004,2.0978,0.0,0.0,0.0,0.0,0.0,0.0,0.0,0.0,0.0,0.0,0.0,0.0,0.0,2.5085,2.5917,2.6988,2.7854,2.7637,2.7507,2.7458,2.7268,2.6293,2.5268,2.4822,2.4185,2.3691,0.0,0.0,2.4756,2.6074,2.668,2.7432,2.8711,2.8906,2.9082,0.0,0.0,0.0,0.0,0.0,0.0,2.96,0.0,3.04,3.0869,3.0889,3.0889,3.0889,3.0889,3.0889,3.0889,3.0889,3.0889,3.0889,3.0889,3.0889,3.0889,3.0889,3.041,2.9626,2.9626,2.9082,2.8291,2.8291,2.8291,2.8291,2.8291,2.8291,2.8291,2.8291,2.7764,2.7041,0.0,0.0,0.0,0.0,0.0,0.0,0.0,0.0,0.0,0.0,0.0,0.0,0.0,0.0,0.0,0.0,0.0,0.0,1.1387,1.2357,0.0,0.0,0.0,1.4689,1.5273,1.5391,1.5654,0.0,0.0,1.6074,1.6074,1.6074,1.6357,1.6898,1.7429,1.8332,1.9412,1.9564,2.0084,2.0794,0.0,2.0005,1.9656,0.0,0.0,0.0,0.0,0.0,0.0,0.0,0.0,0.0,0.0,0.0,2.3315,0.0,0.0,2.5252,2.6136,2.6472,2.6641,2.6982,2.657,2.6003,2.5956,2.5076,2.4085,2.3644,2.2924,2.2373,2.2373,0.0,0.0,2.4707,2.583,0.0,2.8271,2.8721,0.0,0.0,0.0,2.9626,2.9626,2.9853,0.0,0.0,3.0137,3.04,3.0869,3.0889,3.0889,3.0889,3.0889,3.0889,3.0889,3.0889,3.0889,3.0889,3.0889,3.0889,3.0889,3.0889,3.041,2.9626,2.9626,2.9082,2.8291,2.8291,2.8291,2.8291,2.8291,2.8291,2.8291,2.8291,2.7959,2.7451,0.0,0.0,0.0,0.0,0.0,0.0,0.0,0.0,0.0,0.0,0.0,0.0,0.0,0.0,0.0,0.0,0.0,0.0,0.0,1.1809,0.0,1.2588,1.3383,1.3948,1.4219,1.4404,1.4582,0.0,0.0,0.0,0.0,1.4825,1.5031,1.5424,1.5882,1.6601,1.7465,1.7659,0.0,0.0,0.0,0.0,0.0,0.0,0.0,0.0,0.0,0.0,0.0,0.0,0.0,2.1788,2.2867,2.3446,2.3853,2.4352,0.0,2.5371,2.6023,2.6245,2.6364,2.6665,2.6107,2.5464,2.5265,2.4165,2.3057,2.2389,2.158,0.0,2.1025,0.0,0.0,0.0,0.0,0.0,2.8359,2.8935,2.9443,0.0,3.0146,0.0,3.0146,3.0361,3.0508,0.0,3.0508,3.0615,3.0879,3.0889,3.0889,3.0889,3.0889,3.0889,3.0889,3.0889,3.0889,3.0889,3.0889,3.0889,3.0889,3.0889,3.041,2.9626,0.0,2.9082,2.8291,2.8291,2.8291,2.8291,2.8291,2.8291,2.8291,2.8291,2.8027,2.765,0.0,0.0,0.0,0.0,0.0,0.0,0.0,0.0,0.0,0.0,0.0,0.0,0.0,0.0,0.0,0.0,0.0,0.0,0.0,0.0,1.178,1.2184,1.2973,1.3418,1.3418,1.3753,0.0,0.0,0.0,0.0,0.0,0.0,0.0,0.0,0.0,0.0,0.0,0.0,0.0,0.0,0.0,0.0,0.0,0.0,0.0,0.0,0.0,0.0,0.0,0.0,2.1846,2.2558,2.3556,2.3949,2.4131,2.4361,2.4897,2.5477,2.5698,2.6062,2.639,2.633,2.5797,2.5159,2.4608,2.3266,2.1943,2.1103,0.0,1.9609,1.9727,2.0732,2.1982,2.332,0.0,2.6719,2.8428,2.9141,2.9814,3.0693,3.085,3.0889,3.0889,3.0889,3.0889,3.0889,3.0889,3.0889,3.0889,3.0889,3.0889,3.0889,3.0889,3.0889,3.0889,3.0889,3.0889,3.0889,3.0889,3.0889,3.0889,3.083,3.0351,2.9626,0.0,0.0,2.8291,2.8291,2.8291,2.8291,2.8291,2.8291,2.8291,2.8291,2.8066,2.7685,0.0,0.0,0.0,0.0,0.0,0.0,0.0,0.0,0.0,0.0,0.0,0.0,0.0,0.0,0.0,0.0,0.0,0.0,0.0,0.0,0.0,1.2184,1.2715,1.2988,0.0,0.0,0.0,0.0,0.0,0.0,0.0,0.0,0.0,0.0,0.0,0.0,0.0,0.0,0.0,0.0,0.0,0.0,0.0,0.0,0.0,0.0,0.0,0.0,0.0,0.0,2.2137,2.3256,2.363,2.4293,2.4931,2.4786,2.5059,2.5464,2.5642,2.5781,2.5741,2.5416,2.4729,2.3898,2.3061,2.1603,0.0,0.0,0.0,1.8037,1.8695,1.9336,0.0,2.1943,0.0,0.0,0.0,0.0,2.9346,0.0,0.0,0.0,0.0,0.0,0.0,0.0,0.0,0.0,3.0889,3.0889,3.0889,3.0889,3.0889,3.0889,3.0889,3.0889,3.0889,3.0889,3.0889,3.0889,3.0879,3.0488,3.0049,2.9551,0.0,0.0,2.8291,2.8291,2.8291,2.8291,2.8291,2.8291,2.8291,2.8291,2.8252,2.8125,0.0,0.0,0.0,0.0,0.0,0.0,0.0,0.0,1.0165,0.0,0.0,0.0,0.0,0.0,0.0,0.0,0.0,0.0,0.0,0.0,0.0,0.0,0.0,0.0,0.0,0.0,0.0,0.0,0.0,0.0,0.0,0.0,0.0,0.0,0.0,0.0,0.0,0.0,0.0,0.0,0.0,0.0,0.0,0.0,0.0,0.0,0.0,0.0,0.0,0.0,2.0731,2.188,2.3165,2.401,2.4469,2.4558,2.4913,2.5299,2.5615,2.5693,2.5586,2.5176,2.4424,2.3506,2.2432,0.0,0.0,0.0,0.0,1.7168,1.7535,0.0,0.0,0.0,0.0,0.0,0.0,0.0,0.0,0.0,0.0,0.0,0.0,0.0,0.0,0.0,0.0,0.0,3.0889,3.0889,3.0889,3.0889,3.0889,3.0889,3.0889,3.0889,3.0889,3.0889,3.0889,3.0889,3.0869,3.041,2.9971,2.9541,2.9111,0.0,2.8291,2.8291,2.8291,2.8291,2.8291,2.8291,2.8291,2.8291,2.8291,2.8232,0.0,0.0,0.0,0.0,0.0,0.0,0.0,0.9814,1.0626,1.1213,1.1704,1.1909,1.1704,1.1025,1.0547,0.0,0.0,0.0,0.0,0.0,0.0,0.0,0.0,0.0,0.0,0.0,0.0,0.0,0.0,0.0,0.0,0.0,0.0,0.0,0.0,0.0,0.0,0.0,0.0,0.0,0.0,0.0,0.0,0.0,0.0,0.0,0.0,0.0,0.0,0.0,1.8976,1.9841,2.2002,2.3017,2.3557,2.3987,2.4521,2.5029,2.5478,2.5615,2.5557,2.5059,2.4287,2.3291,2.1914,2.0254,0.0,0.0,0.0,1.6443,1.6541,0.0,0.0,0.0,0.0,0.0,0.0,0.0,0.0,0.0,0.0,0.0,0.0,0.0,0.0,0.0,0.0,0.0,3.0889,3.0889,3.0889,3.0889,3.0889,3.0889,3.0889,3.0889,3.0889,3.0889,3.0889,3.084,3.0723,3.0264,2.9834,2.9404,2.8975,0.0,0.0,2.8291,2.8291,2.8291,2.8291,2.8291,2.8291,2.8291,2.8291,2.8242,0.0,0.0,0.0,0.0,0.0,0.0,0.0,1.0059,1.1099,1.1821,1.2262,1.2637,1.2903,1.1911,1.1005,0.0,0.0,0.0,0.0,0.0,0.0,0.0,0.0,0.0,0.0,0.0,0.0,0.0,0.0,0.0,0.0,0.0,0.0,0.0,0.0,0.0,0.0,0.0,0.0,0.0,0.0,0.0,0.0,0.0,0.0,0.0,0.0,0.0,0.0,0.0,0.0,1.8067,1.9504,2.1073,2.2451,2.3114,0.0,0.0,2.501,2.543,2.5489,2.4687,2.3828,2.2754,2.1104,0.0,0.0,0.0,1.6122,1.5654,1.6085,1.6907,0.0,0.0,0.0,0.0,0.0,0.0,0.0,0.0,0.0,0.0,0.0,0.0,0.0,0.0,0.0,0.0,0.0,3.0889,3.0889,3.0889,3.0889,3.0889,3.0889,3.0889,3.0889,3.0889,3.0889,3.0674,3.0244,2.9824,2.9394,2.8955,0.0,0.0,0.0,2.8291,2.8291,2.8291,2.8291,2.8291,2.8291,2.8291,2.8291,2.8281,0.0,0.0,0.0,0.0,0.0,0.0,0.0,0.9873,1.0863,1.1765,1.2313,1.2564,1.2511,1.2171,1.1737,0.0,0.0,0.0,0.0,0.0,0.0,0.0,0.0,0.0,0.0,0.0,0.0,0.0,0.0,0.0,0.0,0.0,0.0,0.0,0.0,0.0,0.0,0.0,0.0,0.0,0.0,0.0,0.0,0.0,0.0,0.0,0.0,0.0,0.0,0.0,0.0,0.0,1.7601,1.8419,0.0,0.0,2.2812,2.3477,2.4424,2.4805,2.4806,2.4502,2.3539,2.2373,2.0938,0.0,1.7764,1.6872,1.5995,1.5469,1.5635,1.6202,1.6907,0.0,1.9316,2.1045,0.0,0.0,0.0,0.0,0.0,0.0,0.0,0.0,0.0,0.0,0.0,0.0,0.0,3.0889,3.0889,3.0889,3.0889,3.0889,3.0889,3.0889,3.0889,3.0889,3.0605,3.0371,3.0176,2.9492,2.9082,2.8896,0.0,0.0,0.0,2.8291,2.8291,2.8291,2.8291,2.8291,2.8291,2.8291,2.8291,2.8291,0.0,0.0,0.0,0.0,0.0,0.0,0.8945,0.9727,1.0607,1.1471,1.2035,1.2307,1.2156,1.2215,1.212,1.1804,0.0,0.0,0.0,0.0,0.0,0.0,0.0,0.0,0.0,0.0,0.0,0.0,0.0,0.0,0.0,0.0,0.0,0.0,0.0,0.0,0.0,0.0,0.0,0.0,0.0,0.0,0.0,0.0,0.0,0.0,0.0,0.0,0.0,0.0,0.0,0.0,0.0,0.0,0.0,0.0,2.1504,2.2187,2.335,2.3848,2.4014,2.3887,2.2988,2.1826,0.0,0.0,1.7617,1.6853,1.5995,1.541,1.541,1.5879,1.6465,1.709,1.8623,2.0293,2.1914,0.0,0.0,0.0,0.0,0.0,0.0,0.0,0.0,0.0,0.0,0.0,0.0,3.0889,3.0889,3.0889,3.0889,3.0889,3.0889,3.0889,3.082,3.0684,3.0351,3.0059,2.9795,2.9189,2.8848,2.8721,0.0,0.0,0.0,2.8291,2.8291,2.8291,2.8291,2.8291,2.8291,2.8291,2.8291,2.8291,0.0,0.0,0.0,0.0,0.0,0.0,0.0,0.9727,1.0489,1.1033,1.1512,1.1942,1.2265,1.2057,1.1972,1.2191,0.0,0.0,0.0,0.0,0.0,0.0,0.0,0.0,0.0,0.0,0.0,0.0,0.0,0.0,0.0,0.0,0.0,0.0,0.0,0.0,0.0,0.0,0.0,0.0,0.0,0.0,0.0,0.0,0.0,0.0,0.0,0.0,0.0,0.0,0.0,0.0,0.0,1.5088,1.5937,0.0,1.9959,2.082,2.1711,2.2519,2.3013,2.2637,2.1843,2.0976,0.0,1.8613,1.7266,1.6794,1.5995,1.541,1.541,1.6102,1.6697,1.6707,1.8174,1.9746,2.1025,0.0,0.0,0.0,0.0,0.0,0.0,0.0,0.0,0.0,0.0,0.0,0.0,3.0889,3.0889,3.0889,3.0889,3.0889,3.0889,3.0889,3.0664,3.0205,3.0195,2.9756,2.8926,2.8926,2.8691,0.0,0.0,0.0,0.0,2.8291,2.8291,2.8291,2.8291,2.8291,2.8291,2.8291,2.8291,2.8291,0.0,0.0,0.0,0.0,0.0,0.0,0.0,0.9053,0.9686,1.0449,1.1084,1.1509,1.1665,1.1857,1.2061,1.2309,0.0,0.0,0.0,0.0,0.0,0.0,0.0,0.0,0.0,0.0,0.0,0.0,0.0,0.0,0.0,0.0,0.0,0.0,0.0,0.0,0.0,0.0,0.0,0.0,0.0,0.0,0.0,0.0,0.0,0.0,0.0,0.0,0.0,0.0,0.0,0.0,0.0,0.0,0.0,1.5801,1.7646,1.9434,2.0303,2.0947,2.1426,2.1551,2.0937,2.0069,1.9202,1.8184,1.72,1.6426,1.5811,1.541,1.541,1.5889,1.6377,1.6648,1.7886,0.0,0.0,0.0,0.0,0.0,0.0,0.0,0.0,0.0,0.0,0.0,0.0,0.0,0.0,3.0889,3.0889,3.0889,3.0889,3.0889,3.0889,3.0576,3.0342,3.0185,2.9609,2.918,2.8906,2.8623,0.0,0.0,0.0,0.0,0.0,2.8291,2.8291,2.8291,2.8291,2.8291,2.8291,2.8291,2.8291,2.8291,0.0,0.0,0.0,0.0,0.0,0.0,0.0,0.862,0.9089,0.9988,1.0525,1.0922,1.1233,1.1597,1.208,1.2622,0.0,0.0,0.0,0.0,0.0,0.0,0.0,0.0,0.0,0.0,0.0,0.0,0.0,0.0,0.0,0.0,0.0,0.0,0.0,0.0,0.0,0.0,0.0,0.0,0.0,0.0,1.4152,0.0,0.0,0.0,0.0,0.0,0.0,0.0,0.0,0.0,0.0,0.0,0.0,0.0,1.5674,1.7369,1.8403,1.915,1.9668,1.9951,1.9482,1.8818,1.8281,1.75,1.676,1.6212,1.5743,1.541,1.541,1.5908,1.6465,1.6904,1.8149,0.0,0.0,0.0,0.0,0.0,0.0,0.0,0.0,0.0,0.0,0.0,0.0,0.0,0.0,0.0,3.0635,3.0635,3.0635,3.0635,3.0635,3.0185,2.9883,2.9707,2.917,2.8838,2.8672,2.8408,0.0,0.0,0.0,0.0,0.0,2.8291,2.8291,2.8291,2.8291,2.8291,2.8291,2.8291,2.8291,2.8291,0.0,0.0,0.0,0.0,0.0,0.0,0.0,0.0,0.0,0.0,0.9908,1.0282,1.0948,1.1383,1.205,0.0,0.0,0.0,0.0,0.0,0.0,0.0,0.0,0.0,0.0,0.0,0.0,0.0,1.3561,1.3796,1.418,0.0,0.0,0.0,0.0,0.0,0.0,0.0,0.0,0.0,0.0,1.4152,0.0,0.0,0.0,0.0,0.0,0.0,0.0,0.0,0.0,0.0,0.0,0.0,0.0,0.0,0.0,0.0,0.0,1.7197,1.7881,1.791,1.7627,1.7334,1.7295,1.6682,0.0,1.6056,1.5723,1.5459,1.5459,1.618,1.6921,1.7363,0.0,0.0,0.0,0.0,0.0,0.0,0.0,0.0,0.0,0.0,0.0,0.0,0.0,0.0,0.0,0.0,3.0156,3.0156,3.0117,3.0117,3.0156,2.9736,2.9316,2.8916,2.8887,2.8672,2.8291,2.8291,0.0,0.0,0.0,0.0,0.0,2.8291,2.8291,2.8291,2.8291,2.8291,2.8291,2.8291,2.8291,2.8291,0.0,0.0,0.0,0.0,0.0,0.0,0.0,0.0,0.0,0.0,0.9868,1.0471,1.1153,1.1671,1.2489,0.0,0.0,0.0,0.0,0.0,0.0,0.0,0.0,0.0,0.0,0.0,0.0,1.3633,1.4114,1.4583,1.5014,1.4859,0.0,0.0,0.0,0.0,0.0,0.0,0.0,0.0,1.3834,1.3729,0.0,0.0,0.0,0.0,1.2978,1.2929,0.0,0.0,0.0,0.0,0.0,0.0,0.0,0.0,1.3398,1.3945,1.4552,0.0,1.6633,1.6943,1.6931,1.6797,0.0,1.6242,1.5997,1.5635,1.5752,1.5938,1.5938,1.6894,1.7744,0.0,0.0,0.0,0.0,0.0,0.0,0.0,0.0,0.0,0.0,0.0,0.0,0.0,0.0,0.0,0.0,0.0,2.9717,2.9717,2.9394,2.9385,2.9717,2.9287,2.9023,2.8916,2.8594,2.8389,2.8291,2.8291,0.0,0.0,0.0,0.0,2.8291,2.8291,2.8291,2.8291,2.8291,2.8291,2.8291,2.8291,2.8291,2.8291,0.0,0.0,0.0,0.0,0.0,0.0,0.0,0.0,0.0,0.0,0.0,0.0,0.0,0.0,0.0,0.0,0.0,0.0,0.0,0.0,0.0,0.0,0.0,0.0,0.0,0.0,0.0,0.0,0.0,1.527,0.0,0.0,0.0,0.0,0.0,0.0,0.0,0.0,0.0,0.0,1.3621,0.0,0.0,0.0,0.0,0.0,1.2954,1.2905,0.0,1.2905,1.2905,1.2905,0.0,0.0,0.0,0.0,1.3037,1.335,1.3938,1.4795,1.5654,1.6269,1.6248,1.6113,1.6105,1.5938,1.5693,1.5459,0.0,1.6153,1.6328,1.7432,0.0,0.0,0.0,0.0,0.0,0.0,0.0,0.0,0.0,0.0,0.0,0.0,0.0,0.0,0.0,0.0,0.0,0.0,2.9277,2.9277,2.8857,2.8838,2.9268,2.8848,2.8633,2.8633,2.8398,2.8291,2.8291,2.8291,0.0,0.0,0.0,0.0,2.8291,2.8291,2.8291,2.8291,2.8291,2.8291,2.8291,2.8291,2.8291,2.8291,0.0,0.0,0.0,0.0,0.0,0.0,0.0,0.0,0.0,0.0,0.0,0.0,0.0,0.0,0.0,0.0,0.0,0.0,0.0,0.0,0.0,0.0,0.0,0.0,0.0,0.0,0.0,0.0,0.0,0.0,0.0,0.0,0.0,0.0,0.0,0.0,0.0,0.0,0.0,0.0,0.0,0.0,0.0,0.0,0.0,0.0,0.0,0.0,0.0,1.2905,1.2905,1.2905,1.2905,0.0,0.0,0.0,0.0,0.0,1.388,1.4453,1.5028,1.5958,1.5889,1.5723,1.6193,0.0,0.0,0.0,0.0,0.0,1.6824,1.7993,0.0,0.0,0.0,0.0,0.0,0.0,0.0,0.0,0.0,0.0,0.0,0.0,0.0,0.0,0.0,0.0,0.0,0.0,0.0,2.8818,2.8476,2.8467,2.8818,2.8467,2.8291,2.8291,2.8291,2.8291,2.8291,2.8291,2.8291,0.0,0.0,0.0,2.8291,2.8291,2.8291,2.8291,2.8291,2.8291,2.8291,2.8291,2.8291,2.8291,0.0,0.0,0.0,0.0,0.0,0.0,0.0,0.0,0.0,0.0,0.0,0.0,0.0,0.0,0.0,0.0,0.0,0.0,0.0,0.0,0.0,0.0,0.0,0.0,0.0,0.0,0.0,0.0,0.0,0.0,1.7478,1.6924,1.6033,0.0,0.0,0.0,0.0,0.0,0.0,0.0,0.0,0.0,0.0,0.0,0.0,0.0,0.0,0.0,0.0,1.2905,1.2905,1.2905,1.2905,0.0,0.0,0.0,0.0,0.0,1.388,1.4453,1.5078,1.6318,1.6551,1.6609,1.708,1.6846,0.0,0.0,0.0,0.0,0.0,0.0,0.0,0.0,0.0,0.0,0.0,0.0,0.0,0.0,0.0,0.0,0.0,0.0,0.0,0.0,0.0,0.0,0.0,0.0,0.0,2.8389,2.833,2.832,2.8389,2.833,2.8291,2.8291,2.8291,2.8291,2.8291,2.8291,2.8291,0.0,0.0,2.8291,2.8291,2.8291,2.8291,2.8291,2.8291,2.8291,2.8291,2.8291,2.8291,2.8291,0.0,0.0,0.0,0.0,0.0,0.0,0.0,0.0,0.0,0.0,0.0,0.0,0.0,0.0,0.0,0.0,0.0,0.0,0.0,0.0,0.0,0.0,0.0,0.0,0.0,0.0,0.0,0.0,0.0,1.7718,1.8445,1.7656,1.6471,1.4992,0.0,0.0,0.0,0.0,0.0,0.0,0.0,0.0,0.0,0.0,0.0,0.0,0.0,0.0,0.0,0.0,1.2905,1.2905,1.2905,0.0,0.0,0.0,0.0,0.0,1.388,1.4591,1.5439,1.6758,1.708,1.7256,1.791,1.7876,1.773,0.0,0.0,0.0,0.0,0.0,0.0,0.0,0.0,0.0,0.0,0.0,0.0,0.0,0.0,0.0,0.0,0.0,0.0,0.0,0.0,0.0,0.0,0.0,0.0,0.0,2.8291,2.8291,2.8291,2.8291,2.8291,2.8291,2.8291,2.8291,2.8291,2.8291,2.8291,2.8291,0.0,2.8291,2.8291,2.8291,2.8291,2.8291,2.8291,2.8291,2.8291,2.8291,2.8291,2.8262,0.0,0.0,0.0,0.0,0.0,0.0,0.0,0.0,0.0,0.0,0.0,0.0,0.0,0.0,0.0,0.0,0.0,0.0,0.0,0.0,0.0,0.0,0.0,0.0,0.0,0.0,0.0,1.8192,1.8082,1.8328,1.8944,1.7943,1.6698,0.0,0.0,0.0,0.0,0.0,0.0,1.3372,0.0,0.0,0.0,0.0,0.0,0.0,0.0,0.0,0.0,0.0,0.0,0.0,0.0,0.0,0.0,1.2905,1.2905,1.3091,1.388,1.4738,1.5732,1.7051,1.7529,1.79,1.8705,1.8978,1.9085,0.0,0.0,0.0,0.0,0.0,0.0,0.0,0.0,0.0,0.0,0.0,0.0,0.0,0.0,0.0,0.0,0.0,0.0,0.0,0.0,0.0,0.0,0.0,0.0,0.0,2.8291,2.8291,2.8291,2.8291,2.8291,2.8291,2.8291,2.8291,2.8291,2.8291,2.8291,2.8291,2.8291,2.8291,2.8291,2.8291,2.8291,2.8291,2.8291,2.8291,2.8281,2.8184,2.8144,2.8086,0.0,0.0,0.0,0.0,0.0,0.0,0.0,0.0,0.0,0.0,0.0,0.0,0.0,0.0,0.0,0.0,0.0,0.0,0.0,0.0,0.0,0.0,0.0,0.0,0.0,1.7396,1.7971,1.8471,1.9022,1.8801,1.789,1.7134,1.6205,1.5189,0.0,0.0,0.0,0.0,0.0,1.3372,1.3186,0.0,0.0,0.0,0.0,0.0,0.0,0.0,0.0,0.0,0.0,0.0,0.0,0.0,1.2905,1.2905,1.2905,1.3091,1.388,1.4738,1.5732,1.7051,1.7969,1.8734,1.9592,2.0137,0.0,2.0927,0.0,0.0,0.0,0.0,0.0,0.0,0.0,0.0,0.0,0.0,0.0,0.0,0.0,0.0,0.0,0.0,0.0,0.0,0.0,0.0,0.0,0.0,0.0,0.0,0.0,2.8291,2.8291,2.8291,2.8291,2.8291,2.8291,2.8291,2.8291,2.8291,2.8291,2.8291,2.8291,2.8291,2.8291,2.8291,2.8291,2.8291,2.8291,2.8291,2.8242,2.7851,2.7767,2.7699,0.0,0.0,0.0,0.0,0.0,0.0,0.0,0.0,0.0,0.0,0.0,0.0,0.0,0.0,0.0,0.0,0.0,0.0,0.0,0.0,0.0,0.0,0.0,1.672,1.7169,1.7752,1.8461,1.9306,1.9131,1.873,1.8142,1.7133,0.0,0.0,0.0,0.0,0.0,0.0,0.0,1.321,1.3051,1.2978,0.0,0.0,0.0,0.0,0.0,0.0,0.0,0.0,1.2905,1.2905,1.2905,1.2905,1.2905,1.2905,1.2905,1.3091,1.388,1.4738,1.5732,1.7051,1.8418,1.958,0.0,2.1074,2.1904,2.2344,2.2978,0.0,0.0,0.0,0.0,0.0,0.0,0.0,0.0,0.0,0.0,0.0,0.0,0.0,0.0,0.0,0.0,0.0,0.0,0.0,0.0,0.0,0.0,0.0,0.0,2.8291,2.8291,2.8291,2.8164,2.791,2.8164,2.8291,2.8291,2.8291,2.8291,2.8281,2.8018,2.791,2.7881,2.7607,2.75,2.75,2.75,2.75,2.748,2.7324,2.7266,2.7197,0.0,0.0,0.0,0.0,0.0,0.0,0.0,0.0,0.0,0.0,0.0,0.0,0.0,0.0,0.0,0.0,0.0,0.0,0.0,0.0,0.0,0.0,0.0,1.6609,1.7385,1.7752,1.8392,1.9296,1.8796,1.8339,1.7934,0.0,0.0,0.0,0.0,0.0,0.0,0.0,0.0,0.0,1.2954,1.2905,0.0,0.0,0.0,0.0,0.0,0.0,0.0,0.0,1.2905,1.2905,1.2905,1.2905,1.2905,1.2905,1.2993,1.3262,1.4111,1.504,1.6143,1.7451,1.8965,0.0,2.1016,2.208,2.3037,2.3467,2.4121,0.0,0.0,0.0,0.0,0.0,0.0,0.0,0.0,0.0,0.0,0.0,0.0,0.0,0.0,0.0,0.0,0.0,0.0,0.0,0.0,0.0,0.0,0.0,0.0,0.0,2.7891,2.7891,2.7744,2.7461,2.7754,2.7891,2.7891,2.7891,2.7891,2.7871,2.7588,2.7461,2.7432,2.7139,2.7012,2.7012,2.7012,2.7012,2.6992,2.6865,2.6816,2.6758,0.0,0.0,0.0,0.0,0.0,0.0,0.0,0.0,0.0,0.0,0.0,0.0,0.0,0.0,0.0,0.0,0.0,0.0,0.0,0.0,0.0,0.0,0.0,1.6241,1.7373,1.7398,1.7674,1.8204,1.806,1.7656,1.6999,1.686,0.0,0.0,0.0,0.0,0.0,0.0,0.0,0.0,1.2954,1.2905,1.2905,0.0,0.0,0.0,0.0,0.0,0.0,0.0,1.2905,1.2905,1.2905,1.2905,1.2905,1.2905,1.3184,1.3691,1.4561,1.5742,1.7009,1.8286,0.0,0.0,2.2217,2.3184,2.3906,2.4346,0.0,0.0,0.0,0.0,0.0,0.0,0.0,0.0,0.0,0.0,0.0,0.0,0.0,0.0,0.0,0.0,0.0,0.0,0.0,0.0,0.0,0.0,0.0,0.0,0.0,0.0,2.7012,2.7012,2.7012,2.7012,2.7012,2.7012,2.7012,2.7012,2.7012,2.7012,2.7012,2.7012,2.7012,2.7002,2.7002,2.7002,2.7002,2.7002,2.6953,2.6533,2.6387,2.6328,0.0,0.0,0.0,0.0,0.0,0.0,0.0,0.0,0.0,0.0,0.0,0.0,0.0,0.0,0.0,0.0,0.0,0.0,0.0,0.0,0.0,0.0,0.0,0.0,0.0,0.0,1.725,1.8204,1.7792,1.7435,0.0,0.0,0.0,1.5413,0.0,0.0,0.0,0.0,0.0,0.0,0.0,1.2905,1.2905,0.0,0.0,0.0,0.0,0.0,0.0,0.0,0.0,0.0,1.2905,1.2905,1.2964,1.3232,1.3408,1.376,1.4912,1.5967,0.0,1.8701,0.0,0.0,0.0,2.3389,0.0,0.0,0.0,0.0,0.0,0.0,0.0,0.0,0.0,0.0,0.0,0.0,0.0,0.0,0.0,0.0,0.0,0.0,0.0,0.0,0.0,0.0,0.0,0.0,0.0,0.0,0.0,0.0,2.7012,2.7012,2.6865,2.6572,2.6572,2.6728,2.7012,2.7012,2.7012,2.6992,2.6699,2.6572,2.6553,2.624,2.6064,2.6064,2.6064,2.6064,2.6054,2.5927,2.5937,2.5908,0.0,0.0,0.0,0.0,0.0,0.0,0.0,0.0,0.0,0.0,0.0,1.1706,0.0,0.0,0.0,0.0,0.0,0.0,0.0,0.0,0.0,0.0,0.0,0.0,0.0,1.65,1.6839,0.0,0.0,0.0,0.0,0.0,0.0,1.5401,0.0,1.4523,0.0,0.0,0.0,0.0,1.3079,1.3031,1.3007,0.0,0.0,0.0,0.0,0.0,0.0,0.0,0.0,0.0,1.2905,1.2905,1.2983,1.3379,1.375,1.4297,1.5556,1.6668,0.0,1.9629,2.0781,2.1865,2.3276,0.0,0.0,0.0,0.0,0.0,0.0,0.0,0.0,0.0,0.0,0.0,0.0,0.0,0.0,0.0,0.0,0.0,0.0,0.0,0.0,0.0,0.0,0.0,0.0,0.0,0.0,0.0,0.0,0.0,2.6454,2.6454,2.6377,2.6133,2.6133,2.626,2.6454,2.6454,2.6454,2.6494,2.624,2.6133,2.6113,2.5801,2.5693,2.5693,2.5693,2.5693,2.5693,2.5693,2.5693,2.5693,0.0,0.0,0.9272,0.9394,0.0,0.0,0.0,0.0,0.0,0.0,1.1427,1.1924,0.0,0.0,0.0,1.3198,0.0,0.0,0.0,0.0,0.0,0.0,0.0,0.0,0.0,0.0,0.0,0.0,0.0,0.0,0.0,0.0,1.5893,1.5335,0.0,1.4777,0.0,0.0,0.0,0.0,1.3205,1.3158,1.3144,1.3104,0.0,0.0,0.0,0.0,0.0,0.0,0.0,0.0,1.2905,1.2905,1.2993,1.3428,1.415,1.5078,1.6395,1.7691,0.0,2.0771,2.165,0.0,2.4014,0.0,0.0,0.0,0.0,0.0,0.0,0.0,0.0,0.0,0.0,0.0,0.0,0.0,0.0,0.0,0.0,0.0,0.0,0.0,0.0,0.0,0.0,0.0,0.0,0.0,0.0,0.0,0.0,0.0,2.5693,2.5693,2.5693,0.0,2.5693,2.5693,2.5693,2.5693,2.5693,2.5693,2.5693,2.5693,2.5693,2.5693,2.5693,2.5693,2.5693,2.5693,2.5693,2.5693,2.5693,2.5693,0.0,0.0,0.9525,0.9564,0.0,0.0,0.0,0.0,0.9848,1.0665,1.1193,1.1774,1.25,1.2952,0.0,1.3198,1.3198,0.0,0.0,0.0,0.0,0.0,0.0,0.0,0.0,0.0,0.0,0.0,0.0,0.0,0.0,0.0,0.0,1.5513,0.0,1.48,0.0,0.0,0.0,1.3151,1.2851,1.2722,1.2762,1.2994,1.3109,0.0,0.0,0.0,0.0,0.0,0.0,0.0,1.2905,1.2905,1.3027,1.3753,1.4375,1.5175,1.6797,1.8174,0.0,0.0,2.2314,2.3477,2.3838,0.0,0.0,0.0,0.0,0.0,0.0,0.0,0.0,0.0,0.0,0.0,0.0,0.0,0.0,0.0,0.0,0.0,0.0,0.0,0.0,0.0,0.0,0.0,0.0,0.0,0.0,0.0,0.0,2.5693,2.5693,2.5693,2.5693,0.0,2.5693,2.5693,2.5693,2.5693,2.5693,2.5693,2.5693,2.5693,2.5693,2.5693,2.5693,2.5693,2.5693,2.5693,2.5693,2.5693,2.5693,2.5693,0.0,0.0,0.0,0.0,0.0,0.0,0.0,0.0,1.0316,1.0986,1.1577,1.2143,1.271,1.3023,0.0,0.0,1.3198,1.3198,0.0,0.0,0.0,0.0,0.0,0.0,0.0,0.0,0.0,0.0,0.0,0.0,0.0,0.0,0.0,1.5691,0.0,1.5037,0.0,0.0,0.0,1.2923,1.2627,1.2494,1.2459,1.2511,1.2523,1.25,1.2338,0.0,0.0,0.0,0.0,0.0,0.0,0.0,1.3032,1.3617,1.4287,1.5117,1.665,0.0,0.0,2.1113,0.0,2.3789,0.0,0.0,0.0,0.0,0.0,0.0,0.0,0.0,0.0,0.0,0.0,0.0,0.0,0.0,0.0,0.0,0.0,0.0,0.0,0.0,0.0,0.0,0.0,0.0,0.0,0.0,0.0,0.0,2.5693,2.5693,2.5693,2.5693,2.5693,2.5693,2.5693,2.5693,2.5693,2.5693,2.5693,2.5693,2.5693,2.5693,2.5693,2.5693,2.5693,2.5693,2.5693,2.5693,2.5693,2.5693,2.5693,2.5693,0.0,0.0,0.0,0.0,0.0,0.0,0.0,0.0,0.0,1.1512,1.2065,1.2601,1.3135,1.3198,1.3198,0.0,0.0,0.0,1.3198,0.0,0.0,0.0,0.0,0.0,0.0,0.0,0.0,0.0,0.0,0.0,0.0,0.0,0.0,1.6123,0.0,0.0,0.0,0.0,1.3376,1.2656,1.2341,1.2194,1.213,1.1945,1.1879,1.1857,1.1672,1.1797,1.2106,1.2184,0.0,0.0,0.0,0.0,1.2852,1.3271,1.3955,1.4853,1.6122,0.0,1.9309,2.1377,2.2734,0.0,0.0,0.0,0.0,0.0,0.0,0.0,0.0,0.0,0.0,0.0,0.0,0.0,0.0,0.0,0.0,0.0,0.0,0.0,0.0,0.0,0.0,0.0,0.0,0.0,0.0,0.0,2.5693,2.5693,2.5693,2.5693,2.5693,2.5693,2.5693,2.5693,2.5693,2.5693,2.5693,2.5693,2.5693,2.5693,2.5693,2.5693,2.5693,2.5693,2.5693,2.5693,2.5693,2.5693,2.5693,2.5693,2.5693,2.5693,0.0,0.0,0.0,0.0,0.0,0.0,0.0,0.0,0.0,0.0,1.2065,1.2601,1.3135,1.3198,1.3198,1.3198,1.3198,1.3198,0.0,0.0,0.0,0.0,0.0,0.0,0.0,0.0,0.0,0.0,0.0,0.0,0.0,0.0,0.0,1.7493,0.0,0.0,0.0,0.0,1.2766,1.216,1.1715,1.1532,1.1532,1.1738,1.1802,1.178,1.165,1.1623,1.1731,1.2077,1.2242,0.0,0.0,0.0,0.0,0.0,1.3301,1.3955,0.0,0.0,2.0088,0.0,2.2285,0.0,0.0,0.0,0.0,0.0,0.0,0.0,0.0,0.0,0.0,0.0,0.0,0.0,0.0,0.0,0.0,0.0,0.0,0.0,0.0,0.0,0.0,0.0,0.0,0.0,0.0,2.5693,2.5693,2.5693,2.5693,2.5693,2.5693,2.5693,2.5693,2.5693,2.5693,2.5693,2.5693,2.5693,2.5693,2.5693,2.5693,2.5693,2.5693,2.5693,2.5693,2.5693,2.5693,2.5693,2.5693,2.5693,2.5693,2.5693,0.0,0.0,0.0,0.0,0.0,0.0,0.0,0.0,0.0,0.0,0.0,1.2601,1.3135,1.3198,1.3073,1.2789,1.2751,0.0,0.0,0.0,0.0,0.0,0.0,0.0,0.0,0.0,0.0,0.0,0.0,0.0,0.0,1.8154,1.8142,0.0,0.0,0.0,0.0,0.0,1.3389,1.2359,1.1985,1.1929,1.2043,1.2111,1.2146,1.2123,1.1979,0.0,1.1963,1.2135,1.2369,1.2588,0.0,0.0,0.0,0.0,0.0,1.3149,1.4932,1.709,1.916,0.0,2.1475,0.0,0.0,0.0,0.0,0.0,0.0,0.0,0.0,0.0,0.0,0.0,0.0,0.0,0.0,0.0,0.0,0.0,0.0,0.0,0.0,0.0,0.0,0.0,0.0,0.0,2.5361,2.5361,2.5361,2.5361,2.5127,2.5117,2.5361,2.5361,2.5488,2.5693,2.5693,2.5693,2.5693,2.5693,2.5693,2.5693,2.5693,2.5693,2.5693,2.5693,2.5693,2.5693,2.5693,2.5693,2.5693,2.5693,2.5693,2.5693,0.0,0.0,0.0,0.0,0.0,0.0,0.0,0.0,0.0,0.0,0.0,1.2601,1.3135,0.0,0.0,0.0,1.2475,0.0,0.0,0.0,0.0,0.0,0.0,0.0,0.0,0.0,0.0,0.0,0.0,0.0,1.7757,1.883,1.8888,0.0,1.8229,0.0,0.0,0.0,0.0,1.2637,1.2399,1.2453,1.2682,1.2685,1.2677,1.2677,1.2582,0.0,0.0,0.0,0.0,0.0,0.0,0.0,0.0,0.0,0.0,0.0,0.0,0.0,1.7822,1.9111,0.0,0.0,0.0,0.0,0.0,0.0,0.0,0.0,0.0,0.0,0.0,0.0,0.0,0.0,0.0,0.0,0.0,0.0,0.0,0.0,0.0,0.0,0.0,0.0,0.0,0.0,2.4902,2.4902,2.4902,2.4902,2.459,2.457,2.4902,2.4902,2.5068,2.5352,2.5352,2.5352,2.5352,2.5352,2.5411,2.5528,2.5635,2.5693,2.5693,2.5693,2.5693,2.5693,2.5693,2.5693,2.5693,2.5693,2.5693,2.5693,0.0,0.0,0.0,0.0,0.0,0.0,0.0,0.0,0.0,0.0,0.0,1.2601,1.3135,1.3198,1.3185,1.316,1.2701,0.0,0.0,0.0,0.0,0.0,0.0,0.0,0.0,0.0,0.0,0.0,0.0,0.0,1.727,1.8594,1.9107,1.8941,1.87,1.7913,1.671,0.0,0.0,1.2775,1.265,1.2812,1.3172,1.3356,1.3437,1.3437,0.0,0.0,0.0,0.0,0.0,0.0,0.0,0.0,0.0,0.0,0.0,0.0,0.0,1.4863,0.0,0.0,0.0,0.0,0.0,0.0,0.0,0.0,0.0,0.0,0.0,0.0,0.0,0.0,0.0,0.0,0.0,0.0,0.0,0.0,0.0,0.0,0.0,0.0,0.0,0.0,0.0,0.0,2.4453,2.4453,2.4453,2.4453,2.4424,2.4424,2.4453,2.4453,2.4463,2.4482,2.4482,2.4482,2.4482,2.4482,2.4707,2.5174,2.5557,2.5693,2.5693,2.5693,2.5693,2.5693,2.5693,2.5693,2.5693,2.5693,2.5693,2.5693,0.0,0.0,0.0,0.0,0.0,0.0,0.0,0.0,0.0,0.0,0.0,0.0,0.0,1.3198,1.306,1.2726,1.2513,0.0,0.0,0.0,0.0,0.0,0.0,0.0,0.0,0.0,0.0,0.0,0.0,1.5842,1.6398,1.8134,1.8851,1.8691,1.8846,1.829,1.7173,1.63,0.0,1.4459,1.4435,1.4717,0.0,1.5468,1.5752,1.5957,0.0,0.0,0.0,0.0,0.0,0.0,0.0,1.1924,1.1469,1.0733,1.0918,0.0,0.0,0.0,0.0,0.0,0.0,0.0,0.0,0.0,0.0,0.0,0.0,0.0,0.0,0.0,0.0,0.0,0.0,0.0,0.0,0.0,0.0,0.0,0.0,0.0,0.0,0.0,0.0,0.0,0.0,0.0,2.4014,2.4014,2.4014,2.4014,2.374,2.3686,2.4014,2.4277,2.4414,2.4414,2.4414,2.4414,2.4414,2.4414,2.4502,2.4658,2.4824,2.5167,2.5693,2.5693,2.5693,2.5693,2.5693,2.5693,2.5693,2.5693,2.5693,2.5693,0.0,0.0,0.0,1.141,0.0,1.0883,1.0521,1.0758,1.1209,0.0,0.0,0.0,0.0,0.0,1.2973,1.245,1.2563,0.0,0.0,0.0,0.0,0.0,0.0,0.0,0.0,0.0,0.0,0.0,0.0,0.0,0.0,1.6847,1.7555,1.7549,1.7871,1.7695,0.0,0.0,0.0,1.5248,0.0,0.0,1.6625,0.0,1.7399,0.0,0.0,0.0,0.0,0.0,0.0,0.0,0.0,1.2051,1.1252,1.0664,1.0791,0.0,1.2008,0.0,0.0,0.0,0.0,0.0,0.0,0.0,0.0,0.0,0.0,0.0,0.0,0.0,0.0,0.0,0.0,0.0,0.0,0.0,0.0,0.0,0.0,0.0,0.0,0.0,0.0,0.0,0.0,0.0,2.3574,2.3574,2.3574,2.3574,2.3247,2.3237,2.3574,2.3848,2.3939,2.3939,2.3939,2.3939,2.3939,2.3939,2.4072,2.4209,2.4209,2.4697,2.5518,2.5518,2.5605,2.5693,2.5693,2.5693,2.5693,2.5693,2.5693,2.5693,1.3198,1.2789,1.2413,1.24,1.1964,1.1615,1.1603,1.1615,1.1829,1.235,0.0,0.0,0.0,0.0,0.0,0.0,0.0,0.0,0.0,0.0,0.0,0.0,0.0,0.0,0.0,0.0,0.0,0.0,0.0,0.0,0.0,0.0,1.5245,1.5522,1.5753,1.605,1.64,0.0,1.5771,1.5007,0.0,1.6437,1.7205,0.0,0.0,0.0,1.8676,1.8174,0.0,0.0,0.0,0.0,0.0,1.2334,1.0947,1.0907,1.1252,0.0,0.0,0.0,0.0,0.0,0.0,0.0,0.0,0.0,0.0,0.0,0.0,0.0,0.0,0.0,0.0,0.0,0.0,0.0,0.0,0.0,0.0,0.0,0.0,0.0,0.0,0.0,0.0,0.0,0.0,2.3091,2.3091,2.3091,2.3091,2.3091,2.3091,2.3091,2.3091,2.3091,2.3091,2.3091,2.3091,2.3091,2.3091,2.3091,2.3369,2.3769,2.3769,2.4248,2.5077,2.5086,2.5312,2.5664,2.5664,2.5674,2.5693,2.5693,2.5693,2.5693,1.3198,1.3073,1.2864,1.2463,1.2291,1.2052,1.1666,1.1927,1.2363,0.0,0.0,0.0,1.4381,1.4431,0.0,0.0,0.0,0.0,0.0,0.0,0.0,0.0,0.0,0.0,0.0,0.0,0.0,0.0,0.0,0.0,0.0,0.0,0.0,0.0,1.4231,1.4286,1.4142,1.5653,0.0,0.0,1.7083,1.7865,0.0,0.0,0.0,0.0,0.0,1.9923,0.0,0.0,1.7598,1.6005,0.0,0.0,0.0,1.1496,1.1508,0.0,1.2086,0.0,0.0,0.0,0.0,0.0,0.0,0.0,0.0,0.0,0.0,0.0,0.0,0.0,0.0,0.0,0.0,0.0,0.0,0.0,0.0,0.0,0.0,0.0,0.0,0.0,0.0,0.0,2.3091,2.3091,2.3091,2.3091,2.3091,2.3091,2.3091,2.3091,2.3091,2.3091,2.3091,2.3091,2.3091,2.3091,2.3091,2.3091,2.3159,2.3276,2.3276,2.3633,2.417,2.4473,2.4853,2.5254,2.5254,2.5449,2.5693,2.5693,2.5693,2.5693,1.3198,1.3198,1.3173,1.3107,1.3111,1.3086,1.2986,1.325,1.3559,0.0,0.0,0.0,1.4878,0.0,0.0,0.0,0.0,0.0,0.0,0.0,0.0,1.3198,1.3198,1.3198,0.0,0.0,0.0,0.0,0.0,0.0,0.0,0.0,0.0,0.0,1.293,1.3045,1.3008,1.461,0.0,0.0,1.7377,0.0,0.0,2.0223,2.0957,0.0,0.0,0.0,2.0674,2.0244,1.8802,0.0,0.0,0.0,1.2915,1.25,1.2396,0.0,0.0,0.0,0.0,0.0,0.0,0.0,0.0,0.0,0.0,0.0,0.0,0.0,0.0,0.0,0.0,0.0,0.0,0.0,0.0,0.0,0.0,0.0,0.0,0.0,0.0,0.0,0.0,0.0,2.3091,2.3091,2.3091,2.3091,2.3091,2.3091,2.3091,2.3091,2.3091,2.3091,2.3091,2.3091,2.3091,2.3091,2.3091,2.3091,2.3091,2.3091,2.3091,2.3237,2.3535,2.3779,2.4248,2.4814,2.5047,2.5225,2.5478,2.5625,2.5693,2.5693,0.0,1.3248,1.3483,1.4009,1.4154,1.4337,1.484,1.4896,1.4909,0.0,1.5097,0.0,0.0,0.0,0.0,0.0,0.0,0.0,0.0,0.0,1.3198,1.3198,1.3198,1.3198,1.3198,0.0,0.0,0.0,0.0,0.0,0.0,0.0,0.0,0.0,1.187,1.2191,1.2554,1.3465,0.0,1.5525,1.7034,1.8399,0.0,0.0,2.123,0.0,2.2012,2.1992,2.1875,2.1338,1.9816,0.0,0.0,1.5089,1.4309,1.3916,1.3721,0.0,1.4133,1.4211,0.0,0.0,0.0,0.0,0.0,1.5743,0.0,0.0,0.0,0.0,0.0,0.0,0.0,0.0,0.0,0.0,0.0,0.0,0.0,0.0,0.0,0.0,0.0,0.0,2.3091,2.3091,2.3091,2.3091,2.3091,2.3091,2.3091,2.3091,2.3091,2.3091,2.3091,2.3091,2.3091,2.3091,2.3091,2.3091,2.3091,2.3091,2.3091,2.3091,2.3091,2.3091,2.3091,2.3091,2.3569,2.4385,2.4775,2.4998,2.5049,2.5498,2.5615,2.5625,1.3198,1.3584,1.3959,1.4091,1.4462,1.479,1.4871,1.4896,1.5047,1.55,0.0,0.0,0.0,0.0,0.0,0.0,0.0,0.0,0.0,0.0,1.3198,1.3198,1.3198,1.3198,1.3198,1.3198,0.0,0.0,0.0,0.0,0.0,0.0,0.0,0.0,1.1267,1.1555,1.1965,1.3086,0.0,1.5546,1.7352,0.0,1.9969,2.1162,2.1943,2.2432,2.273,2.2676,2.2217,0.0,2.0185,1.9307,0.0,0.0,0.0,0.0,0.0,1.4629,1.5049,1.4912,1.4658,0.0,0.0,0.0,0.0,1.5537,0.0,0.0,0.0,0.0,0.0,0.0,0.0,0.0,0.0,0.0,0.0,0.0,0.0,0.0,0.0,0.0,0.0,0.0,2.3091,2.3091,2.3091,2.3091,2.3091,2.3091,2.3091,2.3091,2.3091,2.3091,2.3091,2.3091,2.3091,2.3091,2.3091,2.3091,2.3091,2.3091,2.3091,2.3091,2.3091,2.3091,2.3091,2.3091,2.3403,2.3926,2.4004,2.4248,2.46,2.5039,2.5195,2.5254,1.3198,1.369,1.4173,1.445,1.4934,1.5399,1.5655,1.5693,1.5894,1.6459,0.0,0.0,0.0,0.0,0.0,0.0,0.0,0.0,0.0,0.0,1.354,1.354,1.3313,1.3198,1.3198,1.3198,0.0,0.0,0.0,0.0,0.0,0.0,0.0,0.0,1.1115,1.1449,1.2018,0.0,1.4248,1.5566,1.736,0.0,2.0059,2.1387,2.2148,2.2568,2.2945,2.2828,2.2383,2.1514,2.0781,0.0,0.0,1.8203,1.7564,0.0,1.6613,1.6172,0.0,0.0,1.5811,1.6025,0.0,0.0,0.0,0.0,0.0,0.0,0.0,0.0,0.0,0.0,0.0,0.0,0.0,0.0,0.0,0.0,0.0,0.0,0.0,0.0,0.0,0.0,2.251,2.251,2.2705,2.2779,2.2779,2.2984,2.3091,2.3091,2.3091,2.3091,2.3091,2.3091,2.3091,2.3091,2.3091,2.3091,2.3091,2.3091,2.3091,2.3091,2.3091,2.3091,2.3091,2.3091,2.3227,2.3486,2.3711,2.3916,2.415,2.459,2.4746,2.4775,1.3198,1.3778,1.4387,1.4808,1.5437,1.6007,1.6425,1.6588,1.6961,0.0,0.0,0.0,0.0,0.0,0.0,0.0,0.0,0.0,0.0,0.0,0.0,1.4057,1.3613,1.3366,1.3366,1.3248,0.0,0.0,0.0,0.0,0.0,0.0,0.0,0.0,0.0,0.0,0.0,0.0,0.0,1.5684,0.0,1.8779,2.0059,2.1387,2.2148,2.2568,2.2945,2.2828,2.2451,2.2031,0.0,2.0595,1.9822,1.9238,0.0,0.0,0.0,0.0,0.0,0.0,0.0,0.0,0.0,1.584,0.0,0.0,0.0,1.5342,0.0,0.0,0.0,0.0,0.0,0.0,0.0,0.0,0.0,0.0,0.0,0.0,0.0,0.0,0.0,0.0,2.1768,2.1768,2.2148,2.2432,2.251,2.2867,2.3091,2.3091,2.3091,2.3091,2.3091,2.3091,2.3091,2.3091,2.3091,2.3091,2.3091,2.3091,2.3091,2.3091,2.3091,2.3091,2.3091,2.3091,2.3091,2.313,2.3525,2.3662,2.3721,2.4141,2.4297,2.4307,1.3198,1.4061,1.484,1.4884,1.5731,1.6425,1.6488,1.6948,1.7815,0.0,0.0,0.0,0.0,0.0,0.0,0.0,0.0,0.0,1.665,0.0,0.0,1.4621,1.4225,1.3997,1.3997,1.3483,1.3112,0.0,0.0,0.0,0.0,0.0,1.156,1.1256,1.2302,0.0,0.0,0.0,1.5195,0.0,1.7471,1.8779,0.0,2.1387,2.2148,2.2568,2.2945,2.2828,2.2451,0.0,2.1562,2.1034,0.0,2.0117,0.0,0.0,0.0,0.0,0.0,0.0,0.0,0.0,1.7549,0.0,0.0,0.0,1.5352,1.54,0.0,0.0,0.0,0.0,0.0,0.0,0.0,0.0,0.0,0.0,0.0,0.0,0.0,0.0,0.0,0.0,0.0,2.1268,2.1709,2.2119,2.249,2.2867,2.3091,2.3091,2.3091,2.3091,2.3091,2.3091,2.3091,2.3091,2.3091,2.3091,2.3091,2.3091,2.3091,2.3091,2.3091,2.3091,2.3091,2.3091,2.3091,2.3101,2.3149,2.3169,2.3218,2.3701,2.3857,2.3916,1.3198,1.4124,1.4896,1.4896,1.5781,1.65,1.65,1.7528,1.8694,0.0,0.0,0.0,0.0,0.0,0.0,0.0,0.0,1.8928,0.0,0.0,0.0,1.538,1.4991,1.4697,1.4443,1.3889,1.3548,0.0,1.289,0.0,0.0,0.0,1.1828,1.17,1.2636,0.0,1.3646,0.0,0.0,0.0,0.0,0.0,0.0,2.1475,2.2295,2.2857,2.3033,2.2828,2.248,0.0,2.1797,0.0,0.0,0.0,0.0,0.0,0.0,0.0,0.0,0.0,0.0,0.0,0.0,0.0,0.0,0.0,1.5488,0.0,0.0,0.0,0.0,0.0,0.0,0.0,0.0,0.0,0.0,0.0,0.0,0.0,0.0,0.0,0.0,0.0,0.0,0.0,0.0,2.1045,2.1697,2.237,2.2847,2.3091,2.3091,2.3091,2.3091,2.3091,2.3091,2.3091,2.3091,2.3091,2.3091,2.3091,2.3091,2.3091,2.3091,2.3091,2.3091,2.3091,2.3091,2.3091,2.3091,2.3091,2.312,2.3305,2.3408,2.3437,1.3629,0.0,0.0,1.5085,1.5881,1.6651,1.7114,1.8343,1.9572,0.0,0.0,0.0,2.2573,2.343,0.0,0.0,0.0,2.0595,0.0,0.0,1.7436,1.6476,1.609,0.0,0.0,0.0,0.0,1.4019,1.3392,0.0,0.0,0.0,1.2352,1.2377,0.0,1.4008,1.4717,0.0,0.0,1.7832,1.8994,2.0117,2.1212,2.1816,2.251,2.3091,2.3091,2.2828,2.251,2.251,2.2021,0.0,2.1787,0.0,0.0,0.0,0.0,0.0,2.085,0.0,0.0,0.0,0.0,0.0,0.0,0.0,0.0,0.0,0.0,0.0,0.0,0.0,0.0,0.0,0.0,0.0,0.0,0.0,0.0,0.0,0.0,0.0,0.0,0.0,0.0,0.0,0.0,0.0,2.0791,2.1914,2.2613,2.2916,2.3033,2.3091,2.3091,2.3091,2.3091,2.3091,2.3091,2.3091,2.3091,2.3091,2.3091,2.3091,2.3091,2.3091,2.3091,2.3091,2.3091,2.3091,2.3091,2.3091,2.3091,2.3091,2.3091,2.3091,1.4733,1.4859,0.0,0.0,0.0,1.7052,1.8669,1.9422,2.0511,0.0,0.0,0.0,0.0,0.0,0.0,0.0,0.0,2.2023,2.1008,0.0,1.9284,0.0,0.0,1.7057,0.0,0.0,1.5163,1.4573,1.4241,0.0,0.0,0.0,0.0,0.0,0.0,1.5348,1.6095,1.6975,1.7812,1.8637,1.9504,2.0918,2.2451,0.0,2.2721,2.3091,2.3091,0.0,0.0,2.251,2.2217,0.0,0.0,0.0,0.0,0.0,0.0,0.0,0.0,0.0,0.0,2.0,0.0,0.0,0.0,0.0,1.6202,0.0,0.0,0.0,0.0,0.0,0.0,0.0,0.0,0.0,0.0,0.0,0.0,0.0,0.0,0.0,0.0,0.0,0.0,0.0,0.0,0.0,1.9932,2.1582,2.2519,2.2529,2.2886,2.3091,2.3091,2.3091,2.3091,2.3091,2.3091,2.3091,2.3091,2.3091,2.3091,2.3091,2.3091,2.3091,2.3091,2.3091,2.3091,2.3091,2.3091,2.3091,2.3091,2.3091,2.3091,2.3091,0.0,0.0,0.0,0.0,0.0,1.7629,1.917,2.0154,2.1151,0.0,0.0,0.0,0.0,0.0,2.4993,0.0,0.0,2.2999,2.1614,2.1241,0.0,0.0,0.0,1.8518,0.0,0.0,1.622,1.5529,1.4926,0.0,0.0,0.0,0.0,0.0,0.0,1.5198,0.0,0.0,0.0,0.0,0.0,2.2107,2.2847,0.0,0.0,2.3091,2.3091,2.3003,0.0,2.2886,2.2646,2.2344,2.2627,2.2334,2.1943,2.2217,2.2002,0.0,0.0,0.0,2.0908,2.0459,0.0,0.0,0.0,0.0,0.0,0.0,0.0,0.0,0.0,0.0,0.0,0.0,0.0,0.0,0.0,0.0,0.0,0.0,0.0,0.0,0.0,0.0,0.0,0.0,0.0,0.0,0.0,2.0879,2.1882,2.249,2.2877,2.3091,2.3091,2.3091,2.3091,2.3091,2.3091,2.3091,2.3091,2.3091,2.3091,2.3091,2.3091,2.3091,2.3091,2.3091,2.3091,2.3091,2.3091,2.3091,2.3091,2.3091,2.3091,2.3091,1.5881,0.0,0.0,0.0,0.0,0.0,0.0,0.0,0.0,0.0,2.4138,0.0,2.4627,0.0,2.5198,0.0,2.4198,2.3644,2.2536,2.2179,0.0,2.0629,2.021,0.0,0.0,0.0,0.0,1.6321,0.0,1.4834,0.0,0.0,0.0,0.0,0.0,0.0,0.0,0.0,1.9131,0.0,0.0,2.2721,0.0,0.0,2.2857,2.3091,0.0,2.3091,2.3091,2.3091,2.2916,2.2783,2.3013,2.2721,2.2383,2.2656,2.2441,2.2139,2.2295,2.1904,0.0,2.1153,2.0059,0.0,1.875,0.0,0.0,0.0,0.0,0.0,0.0,0.0,0.0,0.0,0.0,0.0,0.0,0.0,0.0,0.0,0.0,0.0,0.0,0.0,1.4668,1.4903,0.0,0.0,0.0,0.0,2.1318,2.2041,2.2574,2.2945,2.3091,2.3091,2.3091,2.3091,2.3091,2.3091,2.3091,2.3091,2.3091,2.3091,2.3091,2.3091,2.3091,2.3091,2.3091,2.3091,2.3091,2.3091,2.3091,2.3091,2.3091,2.3091,0.0,0.0,0.0,0.0,1.8019,0.0,0.0,0.0,2.3119,0.0,2.4429,2.4536,2.4989,2.4816,2.472,2.4819,2.4378,0.0,2.3699,2.3047,0.0,0.0,2.1255,2.0533,1.9531,0.0,0.0,0.0,0.0,0.0,0.0,0.0,0.0,0.0,1.4646,0.0,1.6755,1.8052,1.9424,2.0811,2.2031,2.2783,2.3091,2.3091,0.0,2.3091,2.3091,2.3091,2.3091,2.3091,2.3091,2.3091,2.3091,2.3091,2.3091,2.3091,2.2808,2.2627,2.2984,2.2539,2.1914,2.1914,0.0,0.0,0.0,0.0,1.8783,0.0,0.0,0.0,0.0,0.0,0.0,0.0,0.0,0.0,0.0,0.0,0.0,0.0,0.0,0.0,0.0,0.0,1.4085,1.4104,1.6094,0.0,0.0,0.0,2.0723,2.1181,2.207,2.2672,2.3091,2.3091,2.3091,2.3091,2.3091,2.3091,2.3091,2.3091,2.3091,2.3091,2.3091,2.3091,2.3091,2.3091,2.3091,2.3091,2.3091,2.3091,2.3091,2.3091,2.3091,2.3091,1.7739,1.8205,1.8895,0.0,2.0026,2.0489,0.0,0.0,0.0,0.0,2.466,2.4926,2.4414,2.4483,2.4352,2.3917,2.4041,0.0,0.0,0.0,0.0,2.2949,2.2501,2.1871,2.1131,2.0345,0.0,1.8102,0.0,0.0,1.5113,0.0,0.0,0.0,0.0,0.0,1.6369,1.7915,1.9904,2.207,2.2672,2.3003,0.0,0.0,2.3091,2.3091,2.3091,2.3091,2.3091,2.3091,2.3091,2.3091,2.3091,2.3091,2.3091,2.3091,2.3023,2.2955,2.3062,2.2711,2.2353,2.2353,2.1621,2.081,0.0,0.0,0.0,0.0,0.0,0.0,0.0,0.0,0.0,0.0,0.0,0.0,0.0,0.0,0.0,0.0,0.0,0.0,0.0,1.3359,1.3773,1.4085,1.5244,0.0,0.0,0.0,0.0,2.1161,2.207,2.2672,2.3091,2.3091,2.3091,2.3091,2.3091,2.3091,2.3091,2.3091,2.3091,2.3091,2.3091,2.3091,2.3091,2.3091,2.3091,2.3091,2.3091,2.3091,2.3091,2.3091,2.3091,2.3091,1.8544,0.0,0.0,2.191,0.0,0.0,2.2719,0.0,0.0,2.4089,2.4689,0.0,2.4031,2.4118,2.397,2.3363,2.3677,0.0,0.0,0.0,0.0,2.331,2.2857,2.2307,2.1574,2.0753,0.0,1.8194,0.0,0.0,1.4852,0.0,0.0,0.0,0.0,1.4802,0.0,1.8428,2.0547,2.2295,2.2847,0.0,0.0,2.3091,2.3091,2.3091,2.3091,2.3091,2.3091,2.3091,2.3091,2.3091,2.3091,2.3091,2.3091,2.3091,2.3091,2.3091,2.3091,2.2925,2.274,2.274,2.2243,2.1728,2.1475,2.1084,2.0781,0.0,0.0,0.0,0.0,0.0,0.0,0.0,0.0,0.0,0.0,0.0,0.0,0.0,0.0,0.0,0.0,1.3369,1.3578,1.3821,1.4824,0.0,0.0,0.0,0.0,2.0586,2.1689,2.2441,2.2818,2.3003,2.3091,2.3091,2.3091,2.3091,2.3091,2.3091,2.3091,2.3091,2.3091,2.3091,2.3091,2.3091,2.3091,2.3091,2.3091,2.3091,2.3091,2.3091,2.3091,2.3091,0.0,0.0,0.0,0.0,0.0,0.0,0.0,2.4082,0.0,2.4392,0.0,2.4556,2.3887,2.3797,2.3624,2.3144,0.0,2.3503,2.3503,2.336,2.3277,2.3235,2.2863,2.2271,2.1531,2.0751,0.0,0.0,0.0,0.0,1.4361,0.0,0.0,0.0,0.0,0.0,0.0,1.9235,2.1114,0.0,2.276,2.3091,2.3091,2.3091,2.3091,2.3091,2.3091,2.3091,2.3091,2.3091,2.3091,2.3091,2.3091,2.3091,2.3091,2.3091,2.3091,2.3091,2.3091,2.3091,2.3091,2.3091,2.2818,2.2578,2.2519,2.2227,2.1953,2.1894,2.1885,2.1611,0.0,0.0,0.0,0.0,0.0,0.0,0.0,0.0,0.0,0.0,0.0,0.0,0.0,1.3486,1.3447,1.3506,0.0,0.0,0.0,0.0,0.0,1.9805,2.1113,0.0,2.251,0.0,2.3091,2.3091,2.3091,2.3091,2.3091,2.3091,2.3091,2.3091,2.3091,2.3091,2.3091,2.3091,2.3091,2.3091,2.3091,2.3091,2.3091,2.3091,2.3091,2.3091,0.0,0.0,0.0,0.0,0.0,2.4221,2.4155,2.4753,2.5025,2.4482,2.4671,0.0,2.3874,2.3797,2.3624,2.3144,2.3373,0.0,0.0,0.0,0.0,2.3428,2.3358,2.2954,2.2068,2.1183,2.0015,0.0,1.6799,1.5469,1.4696,0.0,0.0,0.0,0.0,0.0,1.7686,1.9744,0.0,2.1963,2.276,2.3091,2.3091,2.3091,2.3091,2.3091,2.3091,2.3091,2.3091,2.3091,2.3091,2.3091,2.3091,2.3091,2.3091,2.3091,2.3091,2.3091,2.3091,2.3091,2.3091,2.3091,2.3042,2.2896,2.2598,2.2461,2.2305,2.1963,2.1885,2.1611,2.0762,0.0,0.0,0.0,0.0,0.0,0.0,0.0,0.0,0.0,0.0,0.0,0.0,0.0,0.0,0.0,0.0,0.0,0.0,0.0,0.0,0.0,0.0,0.0,0.0,0.0,2.3091,2.3091,2.3091,2.3091,2.3091,2.3091,2.3091,2.3091,2.3091,2.3091,2.3091,2.3091,2.3091,2.3091,2.3091,2.3091,2.3091,2.3091,2.3091,2.3091,0.0,0.0,0.0,0.0,0.0,0.0,0.0,2.4521,0.0,2.4002,2.4292,2.4315,2.3711,2.3624,2.3493,2.3135,2.3232,2.3276,2.3276,2.3406,2.3406,2.3319,2.3276,0.0,2.2384,2.1478,2.0366,1.9049,1.7209,1.5791,0.0,1.3783,0.0,1.3372,0.0,1.6638,0.0,0.0,0.0,2.2266,2.2847,2.3091,2.3091,2.3091,2.3091,2.3091,2.3091,2.3091,2.3091,2.3091,2.3091,2.3091,2.3091,2.3091,2.3091,2.3091,2.3091,2.3091,2.3091,2.3091,2.3091,2.3091,2.3091,2.3042,2.2838,2.2789,2.2783,2.2578,2.2539,2.2197,2.1113,1.9502,0.0,0.0,0.0,0.0,0.0,0.0,0.0,0.0,0.0,0.0,0.0,0.0,0.0,0.0,0.0,0.0,0.0,0.0,0.0,0.0,0.0,0.0,0.0,0.0,0.0,2.3091,2.3091,2.3091,2.3091,2.3091,2.3091,2.3091,2.3091,2.3091,2.3091,2.3091,2.3091,2.3091,2.3091,2.3091,2.3091,2.3091,2.3091,2.3091,0.0,2.6274,0.0,0.0,2.5438,0.0,2.4326,2.4272,2.4158,2.361,2.3896,2.398,2.3547,2.3503,2.3406,2.3135,2.3091,2.3091,2.3091,2.3091,2.3091,2.3091,2.3091,2.2896,2.2519,2.1629,2.0596,0.0,0.0,0.0,0.0,1.4268,1.3987,1.4277,0.0,0.0,0.0,0.0,2.1687,2.2549,2.2925,2.3091,2.3091,2.3091,2.3091,2.3091,2.3091,2.3091,2.3091,2.3091,2.3091,2.3091,2.3091,2.3091,2.3091,2.3091,2.3091,2.3091,2.3091,2.3091,2.3091,2.3091,2.3091,2.3091,2.3091,2.3091,2.3091,2.3091,2.3023,2.2633,2.1531,2.0098,0.0,0.0,0.0,0.0,0.0,0.0,0.0,0.0,0.0,0.0,0.0,0.0,0.0,0.0,0.0,0.0,0.0,0.0,0.0,0.0,0.0,2.085,2.1738,0.0,2.2682,0.0,2.3091,2.3091,2.3091,2.3091,2.3091,2.3091,2.3091,2.3091,2.3091,2.3091,2.3091,2.3091,2.3091,2.3091,2.3091,2.3091,2.3091,2.3091,0.0,0.0,0.0,0.0,0.0,0.0,0.0,2.4756,2.4511,2.3847,2.382,2.3754,2.3503,2.3503,2.3406,2.3135,2.3091,2.3091,2.3091,2.3091,2.3091,2.3091,2.3091,2.2896,2.2519,2.1629,2.0742,0.0,0.0,0.0,0.0,0.0,1.5634,1.6424,0.0,0.0,0.0,2.08,2.1687,2.2549,2.2925,2.3091,2.3091,2.3091,2.3091,2.3091,2.3091,2.3091,2.3091,2.3091,2.3091,2.3091,2.3091,2.3091,2.3091,2.3091,2.3091,2.3091,2.3091,2.3091,2.3091,2.3091,2.3091,2.3091,2.3091,2.3091,2.3091,2.3091,2.2789,2.2422,2.1914,2.1075,2.0244,0.0,0.0,0.0,0.0,0.0,0.0,0.0,0.0,0.0,0.0,0.0,0.0,0.0,0.0,0.0,0.0,0.0,0.0,1.7471,0.0,2.04,2.1249,2.2109,0.0,2.3091,2.3091,2.3091,2.3091,2.3091,2.3091,2.3091,2.3091,2.3091,2.3091,2.3091,2.3091,2.3091,2.3091,2.3091,2.3091,2.3091,2.3091,2.3091,0.0,0.0,0.0,0.0,0.0,0.0,0.0,2.4683,2.448,2.4226,2.4177,2.4132,2.4042,2.4042,2.3898,2.3555,2.3525,2.3418,2.311,2.3091,2.3091,2.3091,2.3091,2.3013,2.2847,2.2262,2.1531,0.0,0.0,0.0,0.0,0.0,0.0,0.0,0.0,1.9727,2.1133,2.1748,2.2301,2.2857,2.3033,2.3091,2.3091,2.3091,2.3091,2.3091,2.3091,2.3091,2.3091,2.3091,2.3091,2.3091,2.3091,2.3091,2.3091,2.3091,2.3091,2.3091,2.3091,2.3091,2.3091,2.3091,2.3091,2.3091,2.3091,2.3091,2.3091,2.3091,2.2607,2.209,2.1914,2.0947,2.0117,0.0,0.0,0.0,0.0,0.0,0.0,0.0,0.0,0.0,0.0,0.0,0.0,0.0,0.0,1.3929,1.4094,0.0,0.0,1.7734,0.0,2.0215,2.1611,2.1973,2.2471,2.3091,2.3091,2.3091,2.3091,2.3091,2.3091,2.3091,2.3091,2.3091,2.3091,2.3091,2.3091,2.3091,2.3091,2.3091,2.3091,2.3091,2.3091,2.3091,2.7305,0.0,2.6459,0.0,2.5625,2.5119,2.499,2.4867,2.4758,2.4758,2.4758,2.4707,2.4443,2.4414,2.4297,2.4004,2.3975,2.3848,2.3491,2.3354,2.333,2.333,2.3169,0.0,2.3091,2.2734,2.2217,2.157,2.0693,0.0,0.0,1.833,0.0,0.0,1.9991,2.0957,2.209,2.2383,2.2711,2.3091,2.3091,2.3091,2.3091,2.3091,2.3091,2.3091,2.3091,2.3091,2.3091,2.3091,2.3091,2.3091,2.3091,2.3091,2.3091,2.3091,2.3091,2.3091,2.3091,2.3091,2.3091,2.3091,2.3091,2.3091,2.3091,2.3091,2.3091,2.3091,2.2568,2.2031,2.1904,2.1016,2.0254,2.0127,0.0,0.0,0.0,0.0,0.0,0.0,0.0,1.5087,0.0,0.0,0.0,0.0,0.0,1.4621,1.4494,0.0,0.0,0.0,0.0,0.0,0.0,2.1943,2.2432,2.3091,2.3091,2.3091,2.3091,2.3091,2.3091,2.3091,2.3091,2.3091,2.3091,2.3091,2.3091,2.3091,2.3091,2.3091,2.3091,2.3091,2.3091,2.3091,2.6148,2.5955,2.576,2.5543,2.5428,2.5379,2.5379,2.5574,2.5674,2.5674,2.5674,2.5343,2.4512,2.4414,2.4414,2.4414,2.4414,2.4404,2.4394,2.4014,2.3779,0.0,0.0,2.3091,2.3091,2.2734,2.251,2.249,0.0,0.0,2.0566,2.0088,2.0313,2.1161,2.1171,2.1658,2.251,2.251,2.2711,2.3091,2.3091,2.3091,2.3091,2.3091,2.3091,2.3091,2.3091,2.3091,2.3091,2.3091,2.3091,2.3091,2.3091,2.3091,2.3091,2.3091,2.3091,2.3091,2.3091,2.3091,2.3091,2.3091,2.3091,2.3091,2.3091,2.3091,2.3091,2.3091,2.276,2.2373,2.1963,2.1523,2.1034,2.0674,0.0,0.0,0.0,0.0,0.0,0.0,0.0,1.5743,1.4891,0.0,0.0,0.0,0.0,0.0,0.0,0.0,0.0,1.7969,1.9248,0.0,2.119,2.2038,2.2715,2.3091,2.3091,2.3091,2.3091,2.3091,2.3091,2.3091,2.3091,2.3091,2.3091,2.3091,2.3091,2.3091,2.3091,2.3091,2.3091,2.3091,2.3091,2.3091,2.611,2.603,2.5969,2.5922,2.5755,2.5614,2.5614,2.5644,2.5693,2.5693,2.5693,2.5577,2.5304,2.5274,2.5195,0.0,2.4863,2.4736,0.0,2.4287,2.4092,2.3799,2.3662,2.3437,2.3101,2.2964,2.275,2.251,0.0,0.0,0.0,2.1328,2.1562,2.2109,2.2109,2.237,2.2896,2.2896,2.2974,2.3091,2.3091,2.3091,2.3091,2.3091,2.3091,2.3091,2.3091,2.3091,2.3091,2.3091,2.3091,2.3091,2.3091,2.3091,2.3091,2.3091,2.3091,2.3091,2.3091,2.3091,2.3091,2.3091,2.3091,2.3091,2.3091,2.3091,2.3091,2.3091,2.276,2.2383,2.1963,2.1533,2.1094,2.0674,1.9999,0.0,0.0,0.0,0.0,0.0,0.0,1.6406,0.0,1.62,0.0,0.0,0.0,0.0,0.0,0.0,0.0,0.0,1.9844,0.0,2.21,2.2373,2.2682,2.3091,2.3091,2.3091,2.3091,2.3091,2.3091,2.3091,2.3091,2.3091,2.3091,2.3091,2.3091,2.3091,2.3091,2.3091,2.3091,2.3091,2.3091,2.3091,2.5942,2.597,2.5965,2.5965,2.583,2.5693,2.5693,2.5693,2.5693,2.5693,2.5693,2.5693,2.5693,2.5693,0.0,2.5342,2.5322,2.5205,2.4932,2.4756,2.4541,2.4287,2.4111,2.3896,2.3578,0.0,0.0,2.2998,2.2832,2.2617,2.2353,2.2353,2.249,2.2744,2.2744,2.2847,2.3091,2.3091,2.3091,2.3091,2.3091,2.3091,2.3091,2.3091,2.3091,2.3091,2.3091,2.3091,2.3091,2.3091,2.3091,2.3091,2.3091,2.3091,2.3091,2.3091,2.3091,2.3091,2.3091,2.3091,2.3091,2.3091,2.3091,2.3091,2.3091,2.3091,2.3091,2.3091,2.276,2.2383,2.1963,2.1533,2.1094,2.0674,2.0018,1.9473,0.0,0.0,0.0,0.0,0.0,0.0,0.0,1.7321,0.0,0.0,0.0,0.0,0.0,0.0,0.0,1.9764,2.0449,0.0,2.25,2.2666,2.2838,2.3091,2.3091,2.3091,2.3091,2.3091,2.3091,2.3091,2.3091,2.3091,2.3091,2.3091,2.3091,2.3091,2.3091,2.3091,2.3091,2.3091,2.3091,2.312,2.5693,2.5693,0.0,0.0,2.5693,0.0,2.5693,2.5693,2.5693,2.5693,2.5693,2.5693,2.5693,2.5693,2.5693,2.5693,0.0,0.0,0.0,2.5352,2.5145,2.5116,2.4678,2.4443,2.4414,2.4033,2.3818,2.3789,2.3379,2.312,2.3091,2.3091,2.3091,2.3091,2.3091,2.3091,2.3091,2.3091,2.3091,2.3091,2.3091,2.3091,2.3091,2.3091,2.3091,2.3091,2.3091,2.3091,2.3091,2.3091,2.3091,2.3091,2.3091,2.3091,2.3091,2.3091,2.3091,2.3091,2.3091,2.3091,2.3091,2.3091,2.3091,2.3091,2.3091,2.3091,2.3091,2.3091,2.2779,2.2422,2.1973,2.1553,2.1123,2.0683,2.0176,1.9736,1.9346,0.0,0.0,0.0,0.0,0.0,0.0,1.8412,1.8656,0.0,0.0,0.0,0.0,0.0,1.8965,2.0605,2.1074,2.1678,2.2549,2.2896,2.3091,2.3091,2.3091,2.3091,2.3091,2.3091,2.3091,2.3091,2.3091,2.3091,2.3091,2.3091,2.3091,2.3091,2.3091,2.3091,2.3091,2.3091,2.311,2.3198,0.0,0.0,2.5693,2.5693,2.5693,2.5693,2.5693,2.5693,2.5693,2.5693,2.5693,2.5693,2.5693,2.5693,2.5693,2.5693,2.5693,2.5693,2.5693,2.5586,2.543,2.5135,2.4971,2.4756,2.4424,2.4316,2.4111,2.3789,2.3691,2.3467,2.3091,2.3091,2.3091,2.3091,2.3091,2.3091,2.3091,2.3091,2.3091,2.3091,2.3091,2.3091,2.3091,2.3091,2.3091,2.3091,2.3091,2.3091,2.3091,2.3091,2.3091,2.3091,2.3091,2.3091,2.3091,2.3091,2.3091,2.3091,2.3091,2.3091,2.3091,2.3091,2.3091,2.3091,2.3091,2.3091,2.3091,2.3091,2.3013,2.2721,2.2021,2.1807,2.1475,2.0732,1.9969,1.9404,1.9297,1.8916,0.0,0.0,1.8779,1.8984,1.8984,1.9072,1.9268,0.0,0.0,0.0,0.0,2.0537,2.0615,2.1025,2.1816,2.2418,2.2945,2.3042,2.3091,2.3091,2.3091,2.3091,2.3091,2.3091,2.3091,2.3091,2.3091,2.3091,2.3091,2.3091,2.3091,2.3091,2.3091,2.3091,2.3091,2.3091,2.3305,2.3652,2.5693,2.5693,2.5693,2.5693,2.5693,2.5693,2.5693,2.5693,2.5693,2.5693,2.5693,2.5693,2.5693,2.5693,2.5693,2.5693,2.5693,2.5693,2.5693,2.5693,2.5586,2.5381,2.5371,2.5264,2.4982,2.4814,2.4502,2.4072,2.4072,2.3955,2.3676,2.3676,2.3676,2.3676,2.3676,2.3676,2.3676,2.3676,2.3676,2.3676,2.3676,2.3676,2.3676,2.3676,2.3676,2.3676,2.3676,2.3676,2.3676,2.3676,2.3549,2.3437,2.3437,2.3257,2.3091,2.3091,2.3091,2.3091,2.3091,2.3091,2.3091,2.3091,2.3091,2.3091,2.3091,2.3091,2.3091,2.3091,2.3091,2.2896,2.2295,2.2012,2.166,2.0986,1.998,1.9355,1.9551,1.8997,0.0,1.9443,1.9727,2.0067,2.0439,2.0478,2.0566,2.0801,0.0,0.0,2.1504,2.1668,2.1775,2.1775,2.2266,2.2672,2.3091,2.3091,2.3091,2.3091,2.3091,2.3091,2.3091,2.3091,2.3091,2.3091,2.3091,2.3091,2.3091,2.3091,2.3091,2.3091,2.3091,2.3091,2.3091,2.3091,2.3418,2.3818,2.5693,2.5693,2.5693,2.5693,2.5693,2.5693,2.5693,2.5693,2.5693,2.5693,2.5693,2.5693,2.5693,2.5693,2.5693,2.5693,2.5693,2.5693,2.5693,2.5693,2.5693,2.5693,2.5693,2.5693,2.5693,2.5361,2.4951,2.4521,2.4521,2.4482,2.4414,2.4414,2.4414,2.4414,2.4414,2.4414,2.4414,2.4414,2.4414,2.4414,2.4414,2.4414,2.4414,2.4414,2.4414,2.4414,2.4414,2.4414,2.4414,2.4414,2.418,2.3887,2.3887,2.3584,2.3198,2.3198,2.3149,2.3091,2.3091,2.3091,2.3091,2.3091,2.3091,2.3091,2.3091,2.3091,2.3091,2.3091,2.3091,2.2964,2.2588,2.2168,2.1748,2.1268,2.0195,1.9502,1.9863,0.0,1.9336,2.0478,2.0723,2.1104,2.1816,2.1885,2.1914,2.1982,2.1982,2.2012,0.0,2.2412,2.2607,2.2607,2.2607,2.274,2.3091,2.3091,2.3091,2.3091,2.3091,2.3091,2.3091,2.3091,2.3091,2.3091,2.3091,2.3091,2.3091,2.3091,2.3091,2.3091,2.3091,2.3091,2.3091,2.3091,2.3457,2.3935,2.5693,2.5693,2.5693,2.5693,2.5693,2.5693,2.5693,2.5693,2.5693,2.5693,2.5693,2.5693,2.5693,2.5693,2.5693,2.5693,2.5693,2.5693,2.5693,2.5693,2.5693,2.5693,2.5693,2.5693,2.5693,2.5625,2.541,2.4971,2.4971,2.4775,2.4414,2.4414,2.4414,2.4414,2.4414,2.4414,2.4414,2.4414,2.4414,2.4414,2.4414,2.4414,2.4414,2.4414,2.4414,2.4414,2.4414,2.4414,2.4414,2.4414,2.4375,2.4316,2.4316,2.4023,2.3691,2.3691,2.3428,2.3091,2.3091,2.3091,2.3091,2.3091,2.3091,2.3091,2.3091,2.3091,2.3091,2.3091,2.3091,2.2964,2.2588,2.2168,2.1748,2.1268,2.0439,1.9844,1.9902,0.0,2.038,2.0586,2.1271,2.1738,2.1875,2.1885,2.2031,2.2383,2.2412,2.2568,2.2886,2.2964,2.3003,2.3003,2.3003,2.3033,2.3091,2.3091,2.3091,2.3091,2.3091,2.3091,2.3091,2.3091,2.3091,2.3091,2.3091,2.3091,2.3091,2.3091,2.3091,2.3091,2.3091,2.3091,2.3091,2.3091,2.3598,2.4336,2.5693,2.5693,2.5693,2.5693,2.5693,2.5693,2.5693,2.5693,2.5693,2.5693,2.5693,2.5693,2.5693,2.5693,2.5693,2.5693,2.5693,2.5693,2.5693,2.5693,2.5693,2.5693,2.5693,2.5693,2.5693,2.5693,2.5586,2.543,2.543,2.5322,2.5079,2.5079,2.5079,2.5079,2.5079,2.5079,2.5079,2.5079,2.5079,2.5079,2.5079,2.5079,2.5079,2.5079,2.5079,2.5079,2.5079,2.5079,2.5079,2.5079,2.4971,2.4766,2.4766,2.4473,2.4121,2.4121,2.3662,2.3091,2.3091,2.3091,2.3091,2.3091,2.3091,2.3091,2.3091,2.3091,2.3091,2.3091,2.3091,2.3033,2.2847,2.251,2.208,2.165,2.084,0.0,0.0,2.0596,2.0869,2.1533,2.1973,2.2314,2.2539,2.2559,2.2604,2.2789,2.2808,2.2886,2.3081,2.3091,2.3091,2.3091,2.3091,2.3091,2.3091,2.3091,2.3091,2.3091,2.3091,2.3091,2.3091,2.3091,2.3091,2.3091,2.3091,2.3091,2.3091,2.3091,2.3091,2.3091,2.3091,2.3091,2.312,2.3364,2.3877,2.4453,2.5693,2.5693,2.5693,2.5693,2.5693,2.5693,2.5693,2.5693,2.5693,2.5693,2.5693,2.5693,2.5693,2.5693,2.5693,2.5693,2.5693,2.5693,2.5693,2.5693,2.5693,2.5693,2.5693,2.5693,2.5693,2.5693,2.5693,2.5693,2.5693,2.5693,2.5693,2.5693,2.5693,2.5693,2.5693,2.5693,2.5693,2.5693,2.5693,2.5693,2.5693,2.5693,2.5693,2.5693,2.5693,2.5693,2.5693,2.5693,2.5693,2.5693,2.5508,2.5225,2.5225,2.4922,2.457,2.457,2.4033,2.3364,2.3276,2.3169,2.3091,2.3091,2.3091,2.3091,2.3091,2.3091,2.3091,2.3091,2.3091,2.3091,2.3091,2.275,2.2402,2.209,0.0,0.0,0.0,2.1172,2.1387,2.2393,2.2598,2.274,2.3062,2.3091,2.3091,2.3091,2.3091,2.3091,2.3091,2.3091,2.3091,2.3091,2.3091,2.3091,2.3091,2.3091,2.3091,2.3091,2.3091,2.3091,2.3091,2.3091,2.3091,2.3091,2.3091,2.3091,2.3091,2.3091,2.3091,2.3091,2.3091,2.3091,2.3149,2.3633,2.4053,2.4482,2.5693,2.5693,2.5693,2.5693,2.5693,2.5693,2.5693,2.5693,2.5693,2.5693,2.5693,2.5693,2.5693,2.5693,2.5693,2.5693,2.5693,2.5693,2.5693,2.5693,2.5693,2.5693,2.5693,2.5693,2.5693,2.5693,2.5693,2.5693,2.5693,2.5693,2.5693,2.5693,2.5693,2.5693,2.5693,2.5693,2.5693,2.5693,2.5693,2.5693,2.5693,2.5693,2.5693,2.5693,2.5693,2.5693,2.5693,2.5693,2.5693,2.5693,2.5664,2.5635,2.5635,2.5381,2.5067,2.5067,2.4687,2.4238,2.3848,2.3447,2.3091,2.3091,2.3091,2.3091,2.3091,2.3091,2.3091,2.3091,2.3091,2.3091,2.3091,2.275,2.25,2.2471,0.0,0.0,2.1836,2.2148,2.2402,2.25,2.2808,2.3062,2.3091,2.3091,2.3091,2.3091,2.3091,2.3091,2.3091,2.3091,2.3091,2.3091,2.3091,2.3091,2.3091,2.3091,2.3091,2.3091,2.3091,2.3091,2.3091,2.3091,2.3091,2.3091,2.3091,2.3091,2.3091,2.3091,2.3091,2.3091,2.3091,2.3091,2.3149,2.3633,2.4053,2.4482,2.5693,2.5693,2.5693,2.5693,2.5693,2.5693,2.5693,2.5693,2.5693,2.5693,2.5693,2.5693,2.5693,2.5693,2.5693,2.5693,2.5693,2.5693,2.5693,2.5693,2.5693,2.5693,2.5693,2.5693,2.5693,2.5693,2.5693,2.5693,2.5693,2.5693,2.5693,2.5693,2.5693,2.5693,2.5693,2.5693,2.5693,2.5693,2.5693,2.5693,2.5693,2.5693,2.5693,2.5693,2.5693,2.5693,2.5693,2.5693,2.5693,2.5693,2.5693,2.5693,2.5693,2.5625,2.5478,2.5478,2.5166,2.4785,2.4675,2.4072,2.3477,2.3159,2.3091,2.3091,2.3091,2.3091,2.3091,2.3091,2.3091,2.3091,2.3091,2.2964,2.2769,2.2549,0.0,2.2275,2.2275,2.2412,2.2607,2.2828,2.3003,2.3091,2.3091,2.3091,2.3091,2.3091,2.3091,2.3091,2.3091,2.3091,2.3091,2.3091,2.3091,2.3091,2.3091,2.3091,2.3091,2.3091,2.3091,2.3091,2.3091,2.3091,2.3091,2.3091,2.3091,2.3091,2.3091,2.3091,2.3091,2.3091,2.3091,2.3257,2.3594,2.4023,2.4453,2.4883,2.5693,2.5693,2.5693,2.5693,2.5693,2.5693,2.5693,2.5693,2.5693,2.5693,2.5693,2.5693,2.5693,2.5693,2.5693,2.5693,2.5693,2.5693,2.5693,2.5693,2.5693,2.5693,2.5693,2.5693,2.5693,2.5693,2.5693,2.5693,2.5693,2.5693,2.5693,2.5693,2.5693,2.5693,2.5693,2.5693,2.5693,2.5693,2.5693,2.5693,2.5693,2.5693,2.5693,2.5693,2.5693,2.5693,2.5693,2.5693,2.5693,2.5693,2.5693,2.5693,2.5693,2.5693,2.5693,2.5693,2.5518,2.5244,2.5155,2.4639,2.4053,2.3486,2.3305,2.3257,2.312,2.3091,2.3091,2.3091,2.3091,2.3091,2.3091,2.3091,2.3003,2.2711,2.2672,2.2672,2.2672,2.2672,2.2769,2.3062,2.3091,2.3091,2.3091,2.3091,2.3091,2.3091,2.3091,2.3091,2.3091,2.3091,2.3091,2.3091,2.3091,2.3091,2.3091,2.3091,2.3091,2.3091,2.3091,2.3091,2.3091,2.3091,2.3091,2.3091,2.3091,2.3091,2.3091,2.3091,2.3091,2.3091,2.3091,2.3408,2.3838,2.4258,2.4697,2.5184,2.5693,2.5693,2.5693,2.5693,2.5693,2.5693,2.5693,2.5693,2.5693,2.5693,2.5693,2.5693,2.5693,2.5693,2.5693,2.5693,2.5693,2.5693,2.5703,2.5703,2.5703,2.5703,2.5693,2.5693,2.5693,2.5693,2.5693,2.5693,2.5693,2.5693,2.5693,2.5693,2.5693,2.5693,2.5693,2.5693,2.5693,2.5693,2.5693,2.5693,2.5693,2.5693,2.5693,2.5693,2.5693,2.5693,2.5693,2.5693,2.5693,2.5693,2.5693,2.5693,2.5693,2.5693,2.5693,2.5693,2.5693,2.5596,2.5195,2.5116,2.492,2.4014,2.3789,2.3682,2.3198,2.3091,2.3091,2.3091,2.3091,2.3091,2.3091,2.3091,2.3091,2.3091,2.3091,2.3091,2.3091,2.3091,2.3091,2.3091,2.3091,2.3091,2.3091,2.3091,2.3091,2.3091,2.3091,2.3091,2.3091,2.3091,2.3091,2.3091,2.3091,2.3091,2.3091,2.3091,2.3091,2.3091,2.3091,2.3091,2.3091,2.3091,2.3091,2.3091,2.3091,2.3091,2.3091,2.3091,2.3091,2.3091,2.3091,2.3408,2.3848,2.4258,2.4697,2.5184,2.5693,2.5693,2.5693,2.5693,2.5693,2.5693,2.5693,2.5693,2.5693,2.5693,2.5693,2.5693,2.5693,2.5693,2.5693,2.5693,2.6016,2.6318,2.6611,2.6631,2.6631,2.6631,2.6005,2.5693,2.5693,2.5693,2.5693,2.5693,2.5693,2.5693,2.5693,2.5693,2.5693,2.5693,2.5693,2.5693,2.5693,2.5693,2.5693,2.5693,2.5693,2.5693,2.5693,2.5693,2.5693,2.5693,2.5693,2.5693,2.5693,2.5693,2.5693,2.5693,2.5693,2.5693,2.5693,2.5693,2.5693,2.5664,2.5528,2.5537,2.5332,2.4443,2.4004,2.375,2.3623,2.3359,2.3091,2.3091,2.3091,2.3091,2.3091,2.3091,2.3091,2.3091,2.3091,2.3091,2.3091,2.3091,2.3091,2.3091,2.3091,2.3091,2.3091,2.3091,2.3091,2.3091,2.3091,2.3091,2.3091,2.3091,2.3091,2.3091,2.3091,2.3091,2.3091,2.3091,2.3091,2.3091,2.3091,2.3091,2.3091,2.3091,2.3091,2.3091,2.3091,2.3091,2.3091,2.3091,2.3091,2.3091,2.3091,2.3539,2.4248,2.4375,2.4893,2.5557,2.5693,2.5693,2.5693,2.5693,2.5693,2.5693,2.5693,2.5693,2.5693,2.5693,2.584,2.5996,2.5996,2.6093,2.6191,2.6191,2.6484,2.6738,2.6992,2.7012,2.7012,2.7012,2.6523,2.6162,2.5996,2.5996,2.5996,2.5996,2.5996,2.6074,2.6191,2.6074,2.6084,2.6181,2.584,2.5879,2.6181,2.6015,2.6094,2.6191,2.6191,2.6191,2.6191,2.6191,2.6191,2.6191,2.6191,2.6191,2.6171,2.6045,2.583,2.5693,2.5693,2.5693,2.5693,2.5693,2.5693,2.5693,2.5693,2.5693,2.5557,2.5068,2.4619,2.4248,2.4072,2.3701,2.3398,2.3398,2.3218,2.3091,2.3091,2.3091,2.3091,2.3091,2.3091,2.3091,2.3091,2.3091,2.3091,2.3091,2.3091,2.3091,2.3091,2.3091,2.3091,2.3091,2.3091,2.3091,2.3091,2.3091,2.3091,2.3091,2.3091,2.3091,2.3091,2.3091,2.3091,2.3091,2.3091,2.3091,2.3091,2.3091,2.3091,2.3091,2.3091,2.3091,2.3091,2.3091,2.3091,2.3091,2.3091,2.3617,2.4414,2.4414,2.4933,2.5693,2.5693,2.5693,2.5693,2.5693,2.5693,2.5693,2.5693,2.5723,2.5742,2.5742,2.6172,2.6445,2.6445,2.6787,2.7012,2.7012,2.7051,2.709,2.7129,2.7129,2.7129,2.7129,2.7129,2.6934,2.6514,2.6465,2.6445,2.6445,2.6445,2.6641,2.7012,2.6621,2.665,2.6982,2.6152,2.6289,2.6992,2.6602,2.667,2.7012,2.7012,2.7012,2.7012,2.7012,2.7012,2.7012,2.7012,2.7012,2.6953,2.6572,2.6182,2.5801,2.5801,2.5771,2.5742,2.5742,2.5713,2.5693,2.5693,2.5693,2.5693,2.5693,2.543,2.501,2.458,2.415,2.3848,2.3848,2.3525,2.3198,2.3159,2.3149,2.314,2.3101,2.3091,2.3091,2.3091,2.3091,2.3091,2.3091,2.3091,2.3091,2.3091,2.3091,2.3091,2.3091,2.3091,2.3091,2.3091,2.3091,2.3091,2.3091,2.3091,2.3091,2.3091,2.3091,2.3091,2.3091,2.3091,2.3091,2.3091,2.3091,2.3091,2.3091,2.3091,2.3091,2.3091,2.3091,2.3091,2.3091,2.3091,2.3598,2.4365,2.4365,2.4922,2.5635,2.5693,2.5693,2.5693,2.5693,2.5693,2.5693,2.5693,2.6025,2.625,2.625,2.6611,2.6875,2.6875,2.6963,2.7012,2.7012,2.7334,2.7666,2.7998,2.8018,2.8018,2.8018,2.8018,2.7822,2.7454,2.706,2.6875,2.6875,2.6875,2.6924,2.7012,2.6924,2.6934,2.7012,2.6826,2.6836,2.7012,2.6914,2.6934,2.7012,2.7012,2.7012,2.7012,2.7012,2.7012,2.7012,2.7012,2.7012,2.7002,2.6914,2.6816,2.6738,2.6738,2.6514,2.625,2.625,2.6006,2.5693,2.5693,2.5693,2.5693,2.5693,2.5615,2.5478,2.5029,2.459,2.4277,2.4277,2.4199,2.4043,2.3711,2.3652,2.3535,2.3149,2.3091,2.3091,2.3091,2.3091,2.3091,2.3091,2.3091,2.3091,2.3091,2.3091,2.3091,2.3091,2.3091,2.3091,2.3091,2.3091,2.3091,2.3091,2.3091,2.3091,2.3091,2.3091,2.3091,2.3091,2.3091,2.3091,2.3091,2.3091,2.3091,2.3091,2.3091,2.3091,2.3091,2.3091,2.3091,2.3091,2.3091,2.3467,2.3926,2.3926,2.4473,2.5264,2.5693,2.5693,2.5693,2.5693,2.5693,2.5693,2.5693,2.6113,2.6387,2.6387,2.6934,2.7324,2.7324,2.751,2.7627,2.7627,2.7832,2.8057,2.8281,2.8291,2.8291,2.8291,2.8291,2.8193,2.7969,2.7744,2.7529,2.7324,2.7324,2.7422,2.7617,2.7422,2.7432,2.7607,2.7197,2.7246,2.7617,2.7412,2.7441,2.7627,2.7627,2.7627,2.7627,2.7627,2.7627,2.7627,2.7627,2.749,2.7324,2.7324,2.7187,2.7012,2.7012,2.6865,2.6689,2.6689,2.6387,2.6045,2.6045,2.5849,2.5693,2.5693,2.5693,2.5625,2.5439,2.5049,2.4727,2.4727,2.456,2.4346,2.4131,2.4092,2.3945,2.3516,2.3447,2.3379,2.312,2.3091,2.3091,2.3091,2.3091,2.3091,2.3091,2.3091,2.3091,2.3091,2.3091,2.3091,2.3091,2.3091,2.3091,2.3091,2.3091,2.3091,2.3091,2.3091,2.3091,2.3091,2.3091,2.3091,2.3091,2.3091,2.3091,2.3091,2.3091,2.3091,2.3091,2.3091,2.3091,2.3091,2.3091,2.3408,2.3789,2.3789,2.4199,2.4824,2.5693,2.5693,2.5693,2.5693,2.5693,2.5713,2.5791,2.6211,2.6523,2.6602,2.7285,2.7826,2.7826,2.8086,2.8291,2.8291,2.8291,2.8291,2.8291,2.8291,2.8291,2.8291,2.8291,2.8291,2.8291,2.8291,2.8125,2.7826,2.7826,2.7949,2.8281,2.7939,2.7959,2.8262,2.7549,2.7627,2.8271,2.792,2.7978,2.8291,2.8291,2.8291,2.8291,2.8291,2.8291,2.8291,2.8291,2.8066,2.7826,2.7826,2.7529,2.7236,2.7236,2.7187,2.7129,2.7129,2.6826,2.6484,2.6406,2.6123,2.5781,2.5703,2.5693,2.5693,2.5693,2.5449,2.5185,2.5185,2.4893,2.4619,2.4541,2.4531,2.4394,2.3965,2.3896,2.3769,2.3364,2.3315,2.3315,2.3315,2.3247,2.3179,2.3101,2.3091,2.3091,2.3091,2.3091,2.3091,2.3091,2.3091,2.3091,2.3091,2.3091,2.3091,2.3091,2.3091,2.3091,2.3091,2.3091,2.3091,2.3091,2.3091,2.3091,2.3091,2.3091,2.3091,2.3091,2.3091,2.3091,2.3091,2.3091,2.3359,2.3691,2.376,2.4014,2.4375,2.5693,2.5693,2.5693,2.5693,2.5693,2.582,2.624,2.666,2.706,2.7441,2.791,2.8203,2.8203,2.8262,2.8291,2.8291,2.8291,2.8291,2.8291,2.8291,2.8291,2.8291,2.8291,2.8291,2.8291,2.8291,2.8262,2.8203,2.8203,2.8232,2.8291,2.8232,2.8232,2.8281,2.8174,2.8184,2.8291,2.8232,2.8242,2.8291,2.8291,2.8291,2.8291,2.8291,2.8291,2.8291,2.8291,2.8262,2.8203,2.8203,2.8164,2.8115,2.8115,2.7871,2.763,2.763,2.7275,2.6846,2.6484,2.6348,2.6211,2.5781,2.5693,2.5693,2.5693,2.5645,2.5596,2.5596,2.5557,2.5439,2.5049,2.5028,2.4834,2.4404,2.4336,2.4316,2.4248,2.4238,2.4238,2.4238,2.3926,2.3555,2.313,2.3091,2.3091,2.3091,2.3091,2.3091,2.3091,2.3091,2.3091,2.3091,2.3091,2.3091,2.3091,2.3091,2.3091,2.3091,2.3091,2.3091,2.3091,2.3091,2.3091,2.3091,2.3091,2.3091,2.3091,2.3091,2.3091,2.3091,2.3091,2.313,2.3227,2.3652,2.3828,2.3935,2.5693,2.5693,2.5693,2.5693,2.5693,2.584,2.6328,2.6748,2.7168,2.766,2.8027,2.8291,2.8291,2.8291,2.8291,2.8291,2.8291,2.8291,2.8291,2.8291,2.8291,2.8291,2.8291,2.8291,2.8291,2.8291,2.8291,2.8291,2.8291,2.8291,2.8291,2.8291,2.8291,2.8291,2.8291,2.8291,2.8291,2.8291,2.8291,2.8291,2.8291,2.8291,2.8291,2.8291,2.8291,2.8291,2.8291,2.8291,2.8291,2.8291,2.8291,2.8291,2.8291,2.8164,2.8018,2.8018,2.7715,2.7334,2.7148,2.6924,2.6641,2.6211,2.6103,2.6035,2.5742,2.5693,2.5693,2.5693,2.5693,2.5625,2.5478,2.5439,2.5293,2.4853,2.4775,2.4697,2.4453,2.4414,2.4414,2.4414,2.4043,2.3711,2.3525,2.3237,2.3091,2.3091,2.3091,2.3091,2.3091,2.3091,2.3091,2.3091,2.3091,2.3091,2.3091,2.3091,2.3091,2.3091,2.3091,2.3091,2.3091,2.3091,2.3091,2.3091,2.3091,2.3091,2.3091,2.3091,2.3091,2.3091,2.3091,2.3091,2.312,2.3315,2.3428,2.3486]}]]